<?xml version="1.0" encoding="UTF-8" standalone="no" ?>
<gpx xmlns="http://www.topografix.com/GPX/1/1" xmlns:xsi="http://www.w3.org/2001/XMLSchema-instance" xsi:schemaLocation="http://www.topografix.com/GPX/1/1 http://www.topografix.com/GPX/1/1/gpx.xsd" version="1.1" creator="VisuGPX - https://www.visugpx.com">
  <metadata>
    <name>de Lyon aux Echelles</name>
    <desc><![CDATA[choix des petites routes, tracé manuel pour une rando faite en 2004]]></desc>
  </metadata>
  <trk>
    <name><![CDATA[15125734-de Lyon aux echelles]]></name>
    <extensions>
      <line xmlns="http://www.topografix.com/GPX/gpx_style/0/2">
        <color>0000FF</color>
        <width>4</width>
      </line>
    </extensions>
    <trkseg>
      <trkpt lat="45.67243" lon="4.8295">
        <ele>175</ele>
        <time>2022-07-12T12:42:20Z</time>
      </trkpt>
      <trkpt lat="45.67156" lon="4.82891">
        <ele>175</ele>
        <time>2022-07-12T12:42:37Z</time>
      </trkpt>
      <trkpt lat="45.67099" lon="4.8287">
        <ele>176</ele>
        <time>2022-07-12T12:42:48Z</time>
      </trkpt>
      <trkpt lat="45.6707" lon="4.82863">
        <ele>176</ele>
        <time>2022-07-12T12:42:53Z</time>
      </trkpt>
      <trkpt lat="45.66887" lon="4.82839">
        <ele>175</ele>
        <time>2022-07-12T12:43:26Z</time>
      </trkpt>
      <trkpt lat="45.6686" lon="4.82839">
        <ele>175</ele>
        <time>2022-07-12T12:43:30Z</time>
      </trkpt>
      <trkpt lat="45.66813" lon="4.82844">
        <ele>175</ele>
        <time>2022-07-12T12:43:39Z</time>
      </trkpt>
      <trkpt lat="45.66795" lon="4.82843">
        <ele>175</ele>
        <time>2022-07-12T12:43:42Z</time>
      </trkpt>
      <trkpt lat="45.6678" lon="4.8284">
        <ele>175</ele>
        <time>2022-07-12T12:43:45Z</time>
      </trkpt>
      <trkpt lat="45.66757" lon="4.82833">
        <ele>176</ele>
        <time>2022-07-12T12:43:49Z</time>
      </trkpt>
      <trkpt lat="45.66719" lon="4.82817">
        <ele>177</ele>
        <time>2022-07-12T12:43:56Z</time>
      </trkpt>
      <trkpt lat="45.66684" lon="4.82798">
        <ele>178</ele>
        <time>2022-07-12T12:44:03Z</time>
      </trkpt>
      <trkpt lat="45.66654" lon="4.82771">
        <ele>180</ele>
        <time>2022-07-12T12:44:09Z</time>
      </trkpt>
      <trkpt lat="45.66535" lon="4.82653">
        <ele>181</ele>
        <time>2022-07-12T12:44:35Z</time>
      </trkpt>
      <trkpt lat="45.66521" lon="4.82629">
        <ele>181</ele>
        <time>2022-07-12T12:44:38Z</time>
      </trkpt>
      <trkpt lat="45.6652" lon="4.82617">
        <ele>181</ele>
        <time>2022-07-12T12:44:40Z</time>
      </trkpt>
      <trkpt lat="45.66515" lon="4.8261">
        <ele>181</ele>
        <time>2022-07-12T12:44:41Z</time>
      </trkpt>
      <trkpt lat="45.66508" lon="4.8261">
        <ele>180</ele>
        <time>2022-07-12T12:44:42Z</time>
      </trkpt>
      <trkpt lat="45.66501" lon="4.82618">
        <ele>179</ele>
        <time>2022-07-12T12:44:44Z</time>
      </trkpt>
      <trkpt lat="45.66481" lon="4.8262">
        <ele>178</ele>
        <time>2022-07-12T12:44:48Z</time>
      </trkpt>
      <trkpt lat="45.66356" lon="4.82556">
        <ele>175</ele>
        <time>2022-07-12T12:45:11Z</time>
      </trkpt>
      <trkpt lat="45.66296" lon="4.82522">
        <ele>176</ele>
        <time>2022-07-12T12:45:23Z</time>
      </trkpt>
      <trkpt lat="45.66282" lon="4.82509">
        <ele>176</ele>
        <time>2022-07-12T12:45:26Z</time>
      </trkpt>
      <trkpt lat="45.66253" lon="4.82483">
        <ele>177</ele>
        <time>2022-07-12T12:45:32Z</time>
      </trkpt>
      <trkpt lat="45.6616" lon="4.82418">
        <ele>175</ele>
        <time>2022-07-12T12:45:50Z</time>
      </trkpt>
      <trkpt lat="45.66123" lon="4.82389">
        <ele>174</ele>
        <time>2022-07-12T12:45:58Z</time>
      </trkpt>
      <trkpt lat="45.65876" lon="4.82086">
        <ele>180</ele>
        <time>2022-07-12T12:46:56Z</time>
      </trkpt>
      <trkpt lat="45.65663" lon="4.81837">
        <ele>183</ele>
        <time>2022-07-12T12:47:45Z</time>
      </trkpt>
      <trkpt lat="45.65611" lon="4.81785">
        <ele>187</ele>
        <time>2022-07-12T12:47:56Z</time>
      </trkpt>
      <trkpt lat="45.65581" lon="4.81745">
        <ele>189</ele>
        <time>2022-07-12T12:48:03Z</time>
      </trkpt>
      <trkpt lat="45.6555" lon="4.81683">
        <ele>190</ele>
        <time>2022-07-12T12:48:13Z</time>
      </trkpt>
      <trkpt lat="45.65521" lon="4.81602">
        <ele>187</ele>
        <time>2022-07-12T12:48:24Z</time>
      </trkpt>
      <trkpt lat="45.65508" lon="4.81584">
        <ele>185</ele>
        <time>2022-07-12T12:48:27Z</time>
      </trkpt>
      <trkpt lat="45.6549" lon="4.8157">
        <ele>185</ele>
        <time>2022-07-12T12:48:31Z</time>
      </trkpt>
      <trkpt lat="45.6548" lon="4.81568">
        <ele>185</ele>
        <time>2022-07-12T12:48:33Z</time>
      </trkpt>
      <trkpt lat="45.65437" lon="4.81573">
        <ele>185</ele>
        <time>2022-07-12T12:48:40Z</time>
      </trkpt>
      <trkpt lat="45.65419" lon="4.81572">
        <ele>185</ele>
        <time>2022-07-12T12:48:43Z</time>
      </trkpt>
      <trkpt lat="45.65408" lon="4.81568">
        <ele>185</ele>
        <time>2022-07-12T12:48:45Z</time>
      </trkpt>
      <trkpt lat="45.65394" lon="4.81561">
        <ele>185</ele>
        <time>2022-07-12T12:48:48Z</time>
      </trkpt>
      <trkpt lat="45.65372" lon="4.81539">
        <ele>186</ele>
        <time>2022-07-12T12:48:53Z</time>
      </trkpt>
      <trkpt lat="45.65249" lon="4.81373">
        <ele>184</ele>
        <time>2022-07-12T12:49:23Z</time>
      </trkpt>
      <trkpt lat="45.65249" lon="4.81365">
        <ele>184</ele>
        <time>2022-07-12T12:49:24Z</time>
      </trkpt>
      <trkpt lat="45.65235" lon="4.81351">
        <ele>184</ele>
        <time>2022-07-12T12:49:27Z</time>
      </trkpt>
      <trkpt lat="45.65067" lon="4.81261">
        <ele>177</ele>
        <time>2022-07-12T12:49:59Z</time>
      </trkpt>
      <trkpt lat="45.65041" lon="4.81243">
        <ele>178</ele>
        <time>2022-07-12T12:50:04Z</time>
      </trkpt>
      <trkpt lat="45.65008" lon="4.81213">
        <ele>180</ele>
        <time>2022-07-12T12:50:11Z</time>
      </trkpt>
      <trkpt lat="45.65006" lon="4.81206">
        <ele>180</ele>
        <time>2022-07-12T12:50:12Z</time>
      </trkpt>
      <trkpt lat="45.65002" lon="4.81202">
        <ele>181</ele>
        <time>2022-07-12T12:50:13Z</time>
      </trkpt>
      <trkpt lat="45.64996" lon="4.81202">
        <ele>181</ele>
        <time>2022-07-12T12:50:14Z</time>
      </trkpt>
      <trkpt lat="45.64992" lon="4.81209">
        <ele>180</ele>
        <time>2022-07-12T12:50:15Z</time>
      </trkpt>
      <trkpt lat="45.64961" lon="4.81203">
        <ele>179</ele>
        <time>2022-07-12T12:50:21Z</time>
      </trkpt>
      <trkpt lat="45.64916" lon="4.81202">
        <ele>177</ele>
        <time>2022-07-12T12:50:29Z</time>
      </trkpt>
      <trkpt lat="45.64847" lon="4.81207">
        <ele>174</ele>
        <time>2022-07-12T12:50:41Z</time>
      </trkpt>
      <trkpt lat="45.64817" lon="4.81204">
        <ele>174</ele>
        <time>2022-07-12T12:50:46Z</time>
      </trkpt>
      <trkpt lat="45.64772" lon="4.81193">
        <ele>175</ele>
        <time>2022-07-12T12:50:54Z</time>
      </trkpt>
      <trkpt lat="45.64769" lon="4.81189">
        <ele>176</ele>
        <time>2022-07-12T12:50:55Z</time>
      </trkpt>
      <trkpt lat="45.64765" lon="4.81187">
        <ele>176</ele>
        <time>2022-07-12T12:50:56Z</time>
      </trkpt>
      <trkpt lat="45.64761" lon="4.81188">
        <ele>176</ele>
        <time>2022-07-12T12:50:57Z</time>
      </trkpt>
      <trkpt lat="45.64757" lon="4.81195">
        <ele>175</ele>
        <time>2022-07-12T12:50:58Z</time>
      </trkpt>
      <trkpt lat="45.64758" lon="4.81204">
        <ele>174</ele>
        <time>2022-07-12T12:50:59Z</time>
      </trkpt>
      <trkpt lat="45.64752" lon="4.81224">
        <ele>172</ele>
        <time>2022-07-12T12:51:02Z</time>
      </trkpt>
      <trkpt lat="45.64729" lon="4.81324">
        <ele>167</ele>
        <time>2022-07-12T12:51:15Z</time>
      </trkpt>
      <trkpt lat="45.64711" lon="4.81421">
        <ele>162</ele>
        <time>2022-07-12T12:51:27Z</time>
      </trkpt>
      <trkpt lat="45.64708" lon="4.81432">
        <ele>162</ele>
        <time>2022-07-12T12:51:29Z</time>
      </trkpt>
      <trkpt lat="45.64689" lon="4.8146">
        <ele>160</ele>
        <time>2022-07-12T12:51:33Z</time>
      </trkpt>
      <trkpt lat="45.64583" lon="4.81619">
        <ele>156</ele>
        <time>2022-07-12T12:52:01Z</time>
      </trkpt>
      <trkpt lat="45.64484" lon="4.81763">
        <ele>159</ele>
        <time>2022-07-12T12:52:26Z</time>
      </trkpt>
      <trkpt lat="45.6447" lon="4.81783">
        <ele>160</ele>
        <time>2022-07-12T12:52:29Z</time>
      </trkpt>
      <trkpt lat="45.64467" lon="4.8178">
        <ele>160</ele>
        <time>2022-07-12T12:52:30Z</time>
      </trkpt>
      <trkpt lat="45.64441" lon="4.81819">
        <ele>161</ele>
        <time>2022-07-12T12:52:37Z</time>
      </trkpt>
      <trkpt lat="45.64432" lon="4.81841">
        <ele>161</ele>
        <time>2022-07-12T12:52:40Z</time>
      </trkpt>
      <trkpt lat="45.64424" lon="4.8188">
        <ele>162</ele>
        <time>2022-07-12T12:52:45Z</time>
      </trkpt>
      <trkpt lat="45.64419" lon="4.81934">
        <ele>162</ele>
        <time>2022-07-12T12:52:52Z</time>
      </trkpt>
      <trkpt lat="45.64421" lon="4.81967">
        <ele>162</ele>
        <time>2022-07-12T12:52:56Z</time>
      </trkpt>
      <trkpt lat="45.64442" lon="4.82137">
        <ele>163</ele>
        <time>2022-07-12T12:53:17Z</time>
      </trkpt>
      <trkpt lat="45.64445" lon="4.82177">
        <ele>164</ele>
        <time>2022-07-12T12:53:22Z</time>
      </trkpt>
      <trkpt lat="45.64445" lon="4.82207">
        <ele>164</ele>
        <time>2022-07-12T12:53:26Z</time>
      </trkpt>
      <trkpt lat="45.64443" lon="4.82234">
        <ele>164</ele>
        <time>2022-07-12T12:53:29Z</time>
      </trkpt>
      <trkpt lat="45.64437" lon="4.8226">
        <ele>164</ele>
        <time>2022-07-12T12:53:33Z</time>
      </trkpt>
      <trkpt lat="45.64422" lon="4.82302">
        <ele>163</ele>
        <time>2022-07-12T12:53:39Z</time>
      </trkpt>
      <trkpt lat="45.64424" lon="4.82304">
        <ele>163</ele>
        <time>2022-07-12T12:53:39Z</time>
      </trkpt>
      <trkpt lat="45.64401" lon="4.82363">
        <ele>159</ele>
        <time>2022-07-12T12:53:48Z</time>
      </trkpt>
      <trkpt lat="45.64326" lon="4.82546">
        <ele>158</ele>
        <time>2022-07-12T12:54:14Z</time>
      </trkpt>
      <trkpt lat="45.64302" lon="4.82606">
        <ele>161</ele>
        <time>2022-07-12T12:54:23Z</time>
      </trkpt>
      <trkpt lat="45.64294" lon="4.82615">
        <ele>162</ele>
        <time>2022-07-12T12:54:24Z</time>
      </trkpt>
      <trkpt lat="45.64287" lon="4.82621">
        <ele>162</ele>
        <time>2022-07-12T12:54:26Z</time>
      </trkpt>
      <trkpt lat="45.64277" lon="4.82616">
        <ele>162</ele>
        <time>2022-07-12T12:54:28Z</time>
      </trkpt>
      <trkpt lat="45.64267" lon="4.82617">
        <ele>162</ele>
        <time>2022-07-12T12:54:30Z</time>
      </trkpt>
      <trkpt lat="45.64259" lon="4.8262">
        <ele>162</ele>
        <time>2022-07-12T12:54:31Z</time>
      </trkpt>
      <trkpt lat="45.64252" lon="4.82626">
        <ele>162</ele>
        <time>2022-07-12T12:54:32Z</time>
      </trkpt>
      <trkpt lat="45.64247" lon="4.82634">
        <ele>163</ele>
        <time>2022-07-12T12:54:34Z</time>
      </trkpt>
      <trkpt lat="45.64242" lon="4.82646">
        <ele>163</ele>
        <time>2022-07-12T12:54:36Z</time>
      </trkpt>
      <trkpt lat="45.6424" lon="4.8266">
        <ele>163</ele>
        <time>2022-07-12T12:54:37Z</time>
      </trkpt>
      <trkpt lat="45.64241" lon="4.82671">
        <ele>163</ele>
        <time>2022-07-12T12:54:39Z</time>
      </trkpt>
      <trkpt lat="45.64246" lon="4.8269">
        <ele>163</ele>
        <time>2022-07-12T12:54:41Z</time>
      </trkpt>
      <trkpt lat="45.64245" lon="4.82709">
        <ele>162</ele>
        <time>2022-07-12T12:54:44Z</time>
      </trkpt>
      <trkpt lat="45.64243" lon="4.82721">
        <ele>162</ele>
        <time>2022-07-12T12:54:45Z</time>
      </trkpt>
      <trkpt lat="45.6424" lon="4.82726">
        <ele>162</ele>
        <time>2022-07-12T12:54:46Z</time>
      </trkpt>
      <trkpt lat="45.64212" lon="4.82778">
        <ele>163</ele>
        <time>2022-07-12T12:54:54Z</time>
      </trkpt>
      <trkpt lat="45.64199" lon="4.82789">
        <ele>163</ele>
        <time>2022-07-12T12:54:57Z</time>
      </trkpt>
      <trkpt lat="45.64194" lon="4.82789">
        <ele>163</ele>
        <time>2022-07-12T12:54:58Z</time>
      </trkpt>
      <trkpt lat="45.64187" lon="4.82794">
        <ele>163</ele>
        <time>2022-07-12T12:54:59Z</time>
      </trkpt>
      <trkpt lat="45.64185" lon="4.82798">
        <ele>163</ele>
        <time>2022-07-12T12:55:00Z</time>
      </trkpt>
      <trkpt lat="45.64183" lon="4.82804">
        <ele>163</ele>
        <time>2022-07-12T12:55:00Z</time>
      </trkpt>
      <trkpt lat="45.64183" lon="4.82814">
        <ele>164</ele>
        <time>2022-07-12T12:55:02Z</time>
      </trkpt>
      <trkpt lat="45.64186" lon="4.82824">
        <ele>164</ele>
        <time>2022-07-12T12:55:03Z</time>
      </trkpt>
      <trkpt lat="45.64181" lon="4.82838">
        <ele>164</ele>
        <time>2022-07-12T12:55:05Z</time>
      </trkpt>
      <trkpt lat="45.64127" lon="4.82949">
        <ele>165</ele>
        <time>2022-07-12T12:55:22Z</time>
      </trkpt>
      <trkpt lat="45.64126" lon="4.82952">
        <ele>165</ele>
        <time>2022-07-12T12:55:22Z</time>
      </trkpt>
      <trkpt lat="45.64127" lon="4.82949">
        <ele>165</ele>
        <time>2022-07-12T12:55:23Z</time>
      </trkpt>
      <trkpt lat="45.64181" lon="4.82838">
        <ele>164</ele>
        <time>2022-07-12T12:55:40Z</time>
      </trkpt>
      <trkpt lat="45.64192" lon="4.8283">
        <ele>164</ele>
        <time>2022-07-12T12:55:42Z</time>
      </trkpt>
      <trkpt lat="45.64199" lon="4.82831">
        <ele>164</ele>
        <time>2022-07-12T12:55:43Z</time>
      </trkpt>
      <trkpt lat="45.64206" lon="4.82827">
        <ele>163</ele>
        <time>2022-07-12T12:55:44Z</time>
      </trkpt>
      <trkpt lat="45.64211" lon="4.82817">
        <ele>163</ele>
        <time>2022-07-12T12:55:46Z</time>
      </trkpt>
      <trkpt lat="45.64212" lon="4.82809">
        <ele>163</ele>
        <time>2022-07-12T12:55:47Z</time>
      </trkpt>
      <trkpt lat="45.6421" lon="4.828">
        <ele>163</ele>
        <time>2022-07-12T12:55:48Z</time>
      </trkpt>
      <trkpt lat="45.64204" lon="4.82791">
        <ele>163</ele>
        <time>2022-07-12T12:55:50Z</time>
      </trkpt>
      <trkpt lat="45.64194" lon="4.82789">
        <ele>163</ele>
        <time>2022-07-12T12:55:51Z</time>
      </trkpt>
      <trkpt lat="45.6417" lon="4.8278">
        <ele>163</ele>
        <time>2022-07-12T12:55:56Z</time>
      </trkpt>
      <trkpt lat="45.64158" lon="4.82772">
        <ele>163</ele>
        <time>2022-07-12T12:55:58Z</time>
      </trkpt>
      <trkpt lat="45.64144" lon="4.82761">
        <ele>163</ele>
        <time>2022-07-12T12:56:01Z</time>
      </trkpt>
      <trkpt lat="45.64108" lon="4.82714">
        <ele>162</ele>
        <time>2022-07-12T12:56:10Z</time>
      </trkpt>
      <trkpt lat="45.6406" lon="4.82641">
        <ele>161</ele>
        <time>2022-07-12T12:56:22Z</time>
      </trkpt>
      <trkpt lat="45.6402" lon="4.8259">
        <ele>160</ele>
        <time>2022-07-12T12:56:32Z</time>
      </trkpt>
      <trkpt lat="45.63982" lon="4.8255">
        <ele>161</ele>
        <time>2022-07-12T12:56:40Z</time>
      </trkpt>
      <trkpt lat="45.63898" lon="4.82469">
        <ele>161</ele>
        <time>2022-07-12T12:56:58Z</time>
      </trkpt>
      <trkpt lat="45.63849" lon="4.82424">
        <ele>161</ele>
        <time>2022-07-12T12:57:08Z</time>
      </trkpt>
      <trkpt lat="45.63799" lon="4.82383">
        <ele>160</ele>
        <time>2022-07-12T12:57:19Z</time>
      </trkpt>
      <trkpt lat="45.63699" lon="4.82315">
        <ele>161</ele>
        <time>2022-07-12T12:57:38Z</time>
      </trkpt>
      <trkpt lat="45.63673" lon="4.82301">
        <ele>161</ele>
        <time>2022-07-12T12:57:43Z</time>
      </trkpt>
      <trkpt lat="45.636" lon="4.82274">
        <ele>160</ele>
        <time>2022-07-12T12:57:57Z</time>
      </trkpt>
      <trkpt lat="45.63469" lon="4.82235">
        <ele>161</ele>
        <time>2022-07-12T12:58:21Z</time>
      </trkpt>
      <trkpt lat="45.63343" lon="4.82201">
        <ele>163</ele>
        <time>2022-07-12T12:58:43Z</time>
      </trkpt>
      <trkpt lat="45.63312" lon="4.82182">
        <ele>163</ele>
        <time>2022-07-12T12:58:49Z</time>
      </trkpt>
      <trkpt lat="45.6324" lon="4.82118">
        <ele>163</ele>
        <time>2022-07-12T12:59:04Z</time>
      </trkpt>
      <trkpt lat="45.63129" lon="4.82012">
        <ele>162</ele>
        <time>2022-07-12T12:59:28Z</time>
      </trkpt>
      <trkpt lat="45.63002" lon="4.81885">
        <ele>160</ele>
        <time>2022-07-12T12:59:56Z</time>
      </trkpt>
      <trkpt lat="45.62995" lon="4.81874">
        <ele>159</ele>
        <time>2022-07-12T12:59:58Z</time>
      </trkpt>
      <trkpt lat="45.62991" lon="4.81864">
        <ele>159</ele>
        <time>2022-07-12T12:59:59Z</time>
      </trkpt>
      <trkpt lat="45.62991" lon="4.81849">
        <ele>159</ele>
        <time>2022-07-12T13:00:01Z</time>
      </trkpt>
      <trkpt lat="45.6299" lon="4.8184">
        <ele>158</ele>
        <time>2022-07-12T13:00:02Z</time>
      </trkpt>
      <trkpt lat="45.62988" lon="4.81832">
        <ele>158</ele>
        <time>2022-07-12T13:00:03Z</time>
      </trkpt>
      <trkpt lat="45.62983" lon="4.81825">
        <ele>159</ele>
        <time>2022-07-12T13:00:04Z</time>
      </trkpt>
      <trkpt lat="45.62978" lon="4.8182">
        <ele>159</ele>
        <time>2022-07-12T13:00:05Z</time>
      </trkpt>
      <trkpt lat="45.62966" lon="4.81817">
        <ele>159</ele>
        <time>2022-07-12T13:00:08Z</time>
      </trkpt>
      <trkpt lat="45.62959" lon="4.81821">
        <ele>159</ele>
        <time>2022-07-12T13:00:09Z</time>
      </trkpt>
      <trkpt lat="45.62951" lon="4.81831">
        <ele>159</ele>
        <time>2022-07-12T13:00:11Z</time>
      </trkpt>
      <trkpt lat="45.62949" lon="4.81837">
        <ele>159</ele>
        <time>2022-07-12T13:00:12Z</time>
      </trkpt>
      <trkpt lat="45.6295" lon="4.81863">
        <ele>160</ele>
        <time>2022-07-12T13:00:15Z</time>
      </trkpt>
      <trkpt lat="45.62948" lon="4.81888">
        <ele>160</ele>
        <time>2022-07-12T13:00:18Z</time>
      </trkpt>
      <trkpt lat="45.62944" lon="4.81906">
        <ele>160</ele>
        <time>2022-07-12T13:00:21Z</time>
      </trkpt>
      <trkpt lat="45.62916" lon="4.81971">
        <ele>160</ele>
        <time>2022-07-12T13:00:30Z</time>
      </trkpt>
      <trkpt lat="45.62903" lon="4.82009">
        <ele>161</ele>
        <time>2022-07-12T13:00:35Z</time>
      </trkpt>
      <trkpt lat="45.62893" lon="4.82071">
        <ele>163</ele>
        <time>2022-07-12T13:00:43Z</time>
      </trkpt>
      <trkpt lat="45.62891" lon="4.82132">
        <ele>165</ele>
        <time>2022-07-12T13:00:51Z</time>
      </trkpt>
      <trkpt lat="45.62896" lon="4.82324">
        <ele>167</ele>
        <time>2022-07-12T13:01:15Z</time>
      </trkpt>
      <trkpt lat="45.62856" lon="4.82286">
        <ele>169</ele>
        <time>2022-07-12T13:01:23Z</time>
      </trkpt>
      <trkpt lat="45.62767" lon="4.82195">
        <ele>175</ele>
        <time>2022-07-12T13:01:43Z</time>
      </trkpt>
      <trkpt lat="45.62686" lon="4.82106">
        <ele>179</ele>
        <time>2022-07-12T13:02:01Z</time>
      </trkpt>
      <trkpt lat="45.62625" lon="4.82047">
        <ele>181</ele>
        <time>2022-07-12T13:02:14Z</time>
      </trkpt>
      <trkpt lat="45.62615" lon="4.8204">
        <ele>181</ele>
        <time>2022-07-12T13:02:16Z</time>
      </trkpt>
      <trkpt lat="45.62575" lon="4.82003">
        <ele>182</ele>
        <time>2022-07-12T13:02:24Z</time>
      </trkpt>
      <trkpt lat="45.62572" lon="4.81999">
        <ele>182</ele>
        <time>2022-07-12T13:02:25Z</time>
      </trkpt>
      <trkpt lat="45.62562" lon="4.81983">
        <ele>183</ele>
        <time>2022-07-12T13:02:28Z</time>
      </trkpt>
      <trkpt lat="45.62518" lon="4.8194">
        <ele>184</ele>
        <time>2022-07-12T13:02:37Z</time>
      </trkpt>
      <trkpt lat="45.62495" lon="4.81922">
        <ele>184</ele>
        <time>2022-07-12T13:02:42Z</time>
      </trkpt>
      <trkpt lat="45.62492" lon="4.81929">
        <ele>184</ele>
        <time>2022-07-12T13:02:43Z</time>
      </trkpt>
      <trkpt lat="45.62484" lon="4.81938">
        <ele>184</ele>
        <time>2022-07-12T13:02:45Z</time>
      </trkpt>
      <trkpt lat="45.6238" lon="4.81952">
        <ele>185</ele>
        <time>2022-07-12T13:03:03Z</time>
      </trkpt>
      <trkpt lat="45.62235" lon="4.81982">
        <ele>190</ele>
        <time>2022-07-12T13:03:30Z</time>
      </trkpt>
      <trkpt lat="45.62202" lon="4.82001">
        <ele>192</ele>
        <time>2022-07-12T13:03:36Z</time>
      </trkpt>
      <trkpt lat="45.62183" lon="4.82023">
        <ele>194</ele>
        <time>2022-07-12T13:03:40Z</time>
      </trkpt>
      <trkpt lat="45.62132" lon="4.82103">
        <ele>201</ele>
        <time>2022-07-12T13:03:54Z</time>
      </trkpt>
      <trkpt lat="45.62113" lon="4.82119">
        <ele>205</ele>
        <time>2022-07-12T13:03:58Z</time>
      </trkpt>
      <trkpt lat="45.62097" lon="4.82121">
        <ele>207</ele>
        <time>2022-07-12T13:04:00Z</time>
      </trkpt>
      <trkpt lat="45.6207" lon="4.82112">
        <ele>210</ele>
        <time>2022-07-12T13:04:05Z</time>
      </trkpt>
      <trkpt lat="45.62055" lon="4.82112">
        <ele>213</ele>
        <time>2022-07-12T13:04:08Z</time>
      </trkpt>
      <trkpt lat="45.6204" lon="4.8212">
        <ele>216</ele>
        <time>2022-07-12T13:04:11Z</time>
      </trkpt>
      <trkpt lat="45.62031" lon="4.82137">
        <ele>218</ele>
        <time>2022-07-12T13:04:14Z</time>
      </trkpt>
      <trkpt lat="45.62013" lon="4.82197">
        <ele>225</ele>
        <time>2022-07-12T13:04:22Z</time>
      </trkpt>
      <trkpt lat="45.61996" lon="4.82299">
        <ele>231</ele>
        <time>2022-07-12T13:04:35Z</time>
      </trkpt>
      <trkpt lat="45.61879" lon="4.82436">
        <ele>249</ele>
        <time>2022-07-12T13:05:02Z</time>
      </trkpt>
      <trkpt lat="45.61841" lon="4.82487">
        <ele>252</ele>
        <time>2022-07-12T13:05:11Z</time>
      </trkpt>
      <trkpt lat="45.61805" lon="4.82556">
        <ele>253</ele>
        <time>2022-07-12T13:05:22Z</time>
      </trkpt>
      <trkpt lat="45.61766" lon="4.82607">
        <ele>256</ele>
        <time>2022-07-12T13:05:31Z</time>
      </trkpt>
      <trkpt lat="45.6167" lon="4.82686">
        <ele>262</ele>
        <time>2022-07-12T13:05:51Z</time>
      </trkpt>
      <trkpt lat="45.61591" lon="4.82732">
        <ele>270</ele>
        <time>2022-07-12T13:06:06Z</time>
      </trkpt>
      <trkpt lat="45.61575" lon="4.82752">
        <ele>273</ele>
        <time>2022-07-12T13:06:10Z</time>
      </trkpt>
      <trkpt lat="45.61551" lon="4.82803">
        <ele>275</ele>
        <time>2022-07-12T13:06:17Z</time>
      </trkpt>
      <trkpt lat="45.61537" lon="4.82817">
        <ele>276</ele>
        <time>2022-07-12T13:06:20Z</time>
      </trkpt>
      <trkpt lat="45.61407" lon="4.82904">
        <ele>273</ele>
        <time>2022-07-12T13:06:46Z</time>
      </trkpt>
      <trkpt lat="45.61208" lon="4.83061">
        <ele>286</ele>
        <time>2022-07-12T13:07:26Z</time>
      </trkpt>
      <trkpt lat="45.61185" lon="4.83072">
        <ele>287</ele>
        <time>2022-07-12T13:07:31Z</time>
      </trkpt>
      <trkpt lat="45.61182" lon="4.83065">
        <ele>287</ele>
        <time>2022-07-12T13:07:32Z</time>
      </trkpt>
      <trkpt lat="45.61176" lon="4.83063">
        <ele>288</ele>
        <time>2022-07-12T13:07:33Z</time>
      </trkpt>
      <trkpt lat="45.6117" lon="4.83068">
        <ele>288</ele>
        <time>2022-07-12T13:07:34Z</time>
      </trkpt>
      <trkpt lat="45.61168" lon="4.83087">
        <ele>288</ele>
        <time>2022-07-12T13:07:36Z</time>
      </trkpt>
      <trkpt lat="45.61165" lon="4.83095">
        <ele>288</ele>
        <time>2022-07-12T13:07:38Z</time>
      </trkpt>
      <trkpt lat="45.61138" lon="4.83111">
        <ele>288</ele>
        <time>2022-07-12T13:07:43Z</time>
      </trkpt>
      <trkpt lat="45.61104" lon="4.83139">
        <ele>288</ele>
        <time>2022-07-12T13:07:50Z</time>
      </trkpt>
      <trkpt lat="45.61094" lon="4.8315">
        <ele>288</ele>
        <time>2022-07-12T13:07:52Z</time>
      </trkpt>
      <trkpt lat="45.61036" lon="4.83189">
        <ele>279</ele>
        <time>2022-07-12T13:08:03Z</time>
      </trkpt>
      <trkpt lat="45.60988" lon="4.83218">
        <ele>271</ele>
        <time>2022-07-12T13:08:13Z</time>
      </trkpt>
      <trkpt lat="45.6089" lon="4.83295">
        <ele>260</ele>
        <time>2022-07-12T13:08:33Z</time>
      </trkpt>
      <trkpt lat="45.6087" lon="4.83294">
        <ele>259</ele>
        <time>2022-07-12T13:08:36Z</time>
      </trkpt>
      <trkpt lat="45.6086" lon="4.833">
        <ele>258</ele>
        <time>2022-07-12T13:08:38Z</time>
      </trkpt>
      <trkpt lat="45.60802" lon="4.83395">
        <ele>244</ele>
        <time>2022-07-12T13:08:54Z</time>
      </trkpt>
      <trkpt lat="45.6078" lon="4.83376">
        <ele>243</ele>
        <time>2022-07-12T13:08:58Z</time>
      </trkpt>
      <trkpt lat="45.60758" lon="4.83371">
        <ele>242</ele>
        <time>2022-07-12T13:09:02Z</time>
      </trkpt>
      <trkpt lat="45.60729" lon="4.83379">
        <ele>239</ele>
        <time>2022-07-12T13:09:08Z</time>
      </trkpt>
      <trkpt lat="45.60712" lon="4.8342">
        <ele>235</ele>
        <time>2022-07-12T13:09:13Z</time>
      </trkpt>
      <trkpt lat="45.60677" lon="4.83446">
        <ele>232</ele>
        <time>2022-07-12T13:09:20Z</time>
      </trkpt>
      <trkpt lat="45.60648" lon="4.83461">
        <ele>230</ele>
        <time>2022-07-12T13:09:26Z</time>
      </trkpt>
      <trkpt lat="45.60619" lon="4.83464">
        <ele>229</ele>
        <time>2022-07-12T13:09:31Z</time>
      </trkpt>
      <trkpt lat="45.60529" lon="4.83484">
        <ele>228</ele>
        <time>2022-07-12T13:09:47Z</time>
      </trkpt>
      <trkpt lat="45.60456" lon="4.83514">
        <ele>227</ele>
        <time>2022-07-12T13:10:01Z</time>
      </trkpt>
      <trkpt lat="45.60443" lon="4.83526">
        <ele>226</ele>
        <time>2022-07-12T13:10:04Z</time>
      </trkpt>
      <trkpt lat="45.60415" lon="4.83562">
        <ele>225</ele>
        <time>2022-07-12T13:10:10Z</time>
      </trkpt>
      <trkpt lat="45.60396" lon="4.83582">
        <ele>225</ele>
        <time>2022-07-12T13:10:15Z</time>
      </trkpt>
      <trkpt lat="45.60314" lon="4.83636">
        <ele>227</ele>
        <time>2022-07-12T13:10:31Z</time>
      </trkpt>
      <trkpt lat="45.60259" lon="4.83679">
        <ele>226</ele>
        <time>2022-07-12T13:10:42Z</time>
      </trkpt>
      <trkpt lat="45.60207" lon="4.83704">
        <ele>225</ele>
        <time>2022-07-12T13:10:51Z</time>
      </trkpt>
      <trkpt lat="45.60161" lon="4.83722">
        <ele>225</ele>
        <time>2022-07-12T13:11:00Z</time>
      </trkpt>
      <trkpt lat="45.60119" lon="4.83733">
        <ele>226</ele>
        <time>2022-07-12T13:11:08Z</time>
      </trkpt>
      <trkpt lat="45.60021" lon="4.8378">
        <ele>226</ele>
        <time>2022-07-12T13:11:26Z</time>
      </trkpt>
      <trkpt lat="45.60008" lon="4.8377">
        <ele>226</ele>
        <time>2022-07-12T13:11:29Z</time>
      </trkpt>
      <trkpt lat="45.59995" lon="4.83799">
        <ele>227</ele>
        <time>2022-07-12T13:11:33Z</time>
      </trkpt>
      <trkpt lat="45.59943" lon="4.83904">
        <ele>226</ele>
        <time>2022-07-12T13:11:49Z</time>
      </trkpt>
      <trkpt lat="45.59895" lon="4.84017">
        <ele>227</ele>
        <time>2022-07-12T13:12:05Z</time>
      </trkpt>
      <trkpt lat="45.59859" lon="4.84111">
        <ele>230</ele>
        <time>2022-07-12T13:12:19Z</time>
      </trkpt>
      <trkpt lat="45.59814" lon="4.84573">
        <ele>227</ele>
        <time>2022-07-12T13:13:17Z</time>
      </trkpt>
      <trkpt lat="45.59802" lon="4.84633">
        <ele>227</ele>
        <time>2022-07-12T13:13:25Z</time>
      </trkpt>
      <trkpt lat="45.59772" lon="4.84751">
        <ele>228</ele>
        <time>2022-07-12T13:13:40Z</time>
      </trkpt>
      <trkpt lat="45.59764" lon="4.84895">
        <ele>228</ele>
        <time>2022-07-12T13:13:58Z</time>
      </trkpt>
      <trkpt lat="45.59769" lon="4.84935">
        <ele>227</ele>
        <time>2022-07-12T13:14:03Z</time>
      </trkpt>
      <trkpt lat="45.59788" lon="4.84989">
        <ele>226</ele>
        <time>2022-07-12T13:14:11Z</time>
      </trkpt>
      <trkpt lat="45.59822" lon="4.85032">
        <ele>226</ele>
        <time>2022-07-12T13:14:19Z</time>
      </trkpt>
      <trkpt lat="45.59854" lon="4.85049">
        <ele>227</ele>
        <time>2022-07-12T13:14:25Z</time>
      </trkpt>
      <trkpt lat="45.59915" lon="4.85073">
        <ele>227</ele>
        <time>2022-07-12T13:14:36Z</time>
      </trkpt>
      <trkpt lat="45.59957" lon="4.85126">
        <ele>224</ele>
        <time>2022-07-12T13:14:47Z</time>
      </trkpt>
      <trkpt lat="45.5996" lon="4.8514">
        <ele>224</ele>
        <time>2022-07-12T13:14:48Z</time>
      </trkpt>
      <trkpt lat="45.59959" lon="4.85161">
        <ele>224</ele>
        <time>2022-07-12T13:14:51Z</time>
      </trkpt>
      <trkpt lat="45.59952" lon="4.85189">
        <ele>224</ele>
        <time>2022-07-12T13:14:55Z</time>
      </trkpt>
      <trkpt lat="45.59945" lon="4.85184">
        <ele>224</ele>
        <time>2022-07-12T13:14:56Z</time>
      </trkpt>
      <trkpt lat="45.59937" lon="4.85183">
        <ele>225</ele>
        <time>2022-07-12T13:14:58Z</time>
      </trkpt>
      <trkpt lat="45.59929" lon="4.85187">
        <ele>225</ele>
        <time>2022-07-12T13:14:59Z</time>
      </trkpt>
      <trkpt lat="45.59921" lon="4.85197">
        <ele>225</ele>
        <time>2022-07-12T13:15:01Z</time>
      </trkpt>
      <trkpt lat="45.59904" lon="4.85218">
        <ele>226</ele>
        <time>2022-07-12T13:15:05Z</time>
      </trkpt>
      <trkpt lat="45.59864" lon="4.85228">
        <ele>227</ele>
        <time>2022-07-12T13:15:13Z</time>
      </trkpt>
      <trkpt lat="45.59822" lon="4.85238">
        <ele>230</ele>
        <time>2022-07-12T13:15:20Z</time>
      </trkpt>
      <trkpt lat="45.59558" lon="4.85289">
        <ele>242</ele>
        <time>2022-07-12T13:16:08Z</time>
      </trkpt>
      <trkpt lat="45.59554" lon="4.85276">
        <ele>242</ele>
        <time>2022-07-12T13:16:09Z</time>
      </trkpt>
      <trkpt lat="45.59549" lon="4.85271">
        <ele>242</ele>
        <time>2022-07-12T13:16:10Z</time>
      </trkpt>
      <trkpt lat="45.59543" lon="4.85268">
        <ele>242</ele>
        <time>2022-07-12T13:16:12Z</time>
      </trkpt>
      <trkpt lat="45.59536" lon="4.85269">
        <ele>242</ele>
        <time>2022-07-12T13:16:13Z</time>
      </trkpt>
      <trkpt lat="45.59531" lon="4.85272">
        <ele>243</ele>
        <time>2022-07-12T13:16:14Z</time>
      </trkpt>
      <trkpt lat="45.59527" lon="4.85278">
        <ele>243</ele>
        <time>2022-07-12T13:16:15Z</time>
      </trkpt>
      <trkpt lat="45.59524" lon="4.85287">
        <ele>243</ele>
        <time>2022-07-12T13:16:16Z</time>
      </trkpt>
      <trkpt lat="45.59524" lon="4.85297">
        <ele>244</ele>
        <time>2022-07-12T13:16:17Z</time>
      </trkpt>
      <trkpt lat="45.59526" lon="4.85305">
        <ele>244</ele>
        <time>2022-07-12T13:16:18Z</time>
      </trkpt>
      <trkpt lat="45.59492" lon="4.85337">
        <ele>246</ele>
        <time>2022-07-12T13:16:26Z</time>
      </trkpt>
      <trkpt lat="45.59397" lon="4.85422">
        <ele>248</ele>
        <time>2022-07-12T13:16:46Z</time>
      </trkpt>
      <trkpt lat="45.59357" lon="4.85468">
        <ele>252</ele>
        <time>2022-07-12T13:16:55Z</time>
      </trkpt>
      <trkpt lat="45.5932" lon="4.85531">
        <ele>257</ele>
        <time>2022-07-12T13:17:05Z</time>
      </trkpt>
      <trkpt lat="45.59294" lon="4.85592">
        <ele>262</ele>
        <time>2022-07-12T13:17:14Z</time>
      </trkpt>
      <trkpt lat="45.59247" lon="4.85739">
        <ele>261</ele>
        <time>2022-07-12T13:17:34Z</time>
      </trkpt>
      <trkpt lat="45.59206" lon="4.85823">
        <ele>265</ele>
        <time>2022-07-12T13:17:47Z</time>
      </trkpt>
      <trkpt lat="45.59166" lon="4.85883">
        <ele>262</ele>
        <time>2022-07-12T13:17:57Z</time>
      </trkpt>
      <trkpt lat="45.59106" lon="4.85954">
        <ele>265</ele>
        <time>2022-07-12T13:18:11Z</time>
      </trkpt>
      <trkpt lat="45.59098" lon="4.85963">
        <ele>265</ele>
        <time>2022-07-12T13:18:13Z</time>
      </trkpt>
      <trkpt lat="45.59071" lon="4.86021">
        <ele>258.9</ele>
        <time>2022-07-12T13:18:19Z</time>
      </trkpt>
      <trkpt lat="45.58987" lon="4.86083">
        <ele>266</ele>
        <time>2022-07-12T13:18:37Z</time>
      </trkpt>
      <trkpt lat="45.58973" lon="4.86093">
        <ele>267</ele>
        <time>2022-07-12T13:18:40Z</time>
      </trkpt>
      <trkpt lat="45.58957" lon="4.86109">
        <ele>268</ele>
        <time>2022-07-12T13:18:44Z</time>
      </trkpt>
      <trkpt lat="45.58955" lon="4.86114">
        <ele>268</ele>
        <time>2022-07-12T13:18:44Z</time>
      </trkpt>
      <trkpt lat="45.58954" lon="4.8613">
        <ele>267</ele>
        <time>2022-07-12T13:18:46Z</time>
      </trkpt>
      <trkpt lat="45.58955" lon="4.86153">
        <ele>266</ele>
        <time>2022-07-12T13:18:49Z</time>
      </trkpt>
      <trkpt lat="45.58954" lon="4.86353">
        <ele>266</ele>
        <time>2022-07-12T13:19:14Z</time>
      </trkpt>
      <trkpt lat="45.58955" lon="4.86366">
        <ele>267</ele>
        <time>2022-07-12T13:19:16Z</time>
      </trkpt>
      <trkpt lat="45.58946" lon="4.86391">
        <ele>267</ele>
        <time>2022-07-12T13:19:19Z</time>
      </trkpt>
      <trkpt lat="45.58853" lon="4.86543">
        <ele>266</ele>
        <time>2022-07-12T13:19:45Z</time>
      </trkpt>
      <trkpt lat="45.58837" lon="4.86577">
        <ele>266</ele>
        <time>2022-07-12T13:19:50Z</time>
      </trkpt>
      <trkpt lat="45.5882" lon="4.86632">
        <ele>267</ele>
        <time>2022-07-12T13:19:57Z</time>
      </trkpt>
      <trkpt lat="45.58801" lon="4.86725">
        <ele>269</ele>
        <time>2022-07-12T13:20:09Z</time>
      </trkpt>
      <trkpt lat="45.58785" lon="4.86791">
        <ele>269</ele>
        <time>2022-07-12T13:20:18Z</time>
      </trkpt>
      <trkpt lat="45.58763" lon="4.86835">
        <ele>267</ele>
        <time>2022-07-12T13:20:25Z</time>
      </trkpt>
      <trkpt lat="45.58663" lon="4.86975">
        <ele>259</ele>
        <time>2022-07-12T13:20:50Z</time>
      </trkpt>
      <trkpt lat="45.58605" lon="4.87025">
        <ele>256</ele>
        <time>2022-07-12T13:21:02Z</time>
      </trkpt>
      <trkpt lat="45.58575" lon="4.87081">
        <ele>255</ele>
        <time>2022-07-12T13:21:10Z</time>
      </trkpt>
      <trkpt lat="45.58564" lon="4.87136">
        <ele>253</ele>
        <time>2022-07-12T13:21:18Z</time>
      </trkpt>
      <trkpt lat="45.58549" lon="4.87258">
        <ele>251</ele>
        <time>2022-07-12T13:21:33Z</time>
      </trkpt>
      <trkpt lat="45.58548" lon="4.87292">
        <ele>251</ele>
        <time>2022-07-12T13:21:37Z</time>
      </trkpt>
      <trkpt lat="45.5855" lon="4.87312">
        <ele>251</ele>
        <time>2022-07-12T13:21:40Z</time>
      </trkpt>
      <trkpt lat="45.58564" lon="4.87382">
        <ele>251</ele>
        <time>2022-07-12T13:21:49Z</time>
      </trkpt>
      <trkpt lat="45.5857" lon="4.87461">
        <ele>249</ele>
        <time>2022-07-12T13:21:59Z</time>
      </trkpt>
      <trkpt lat="45.58567" lon="4.87563">
        <ele>247</ele>
        <time>2022-07-12T13:22:11Z</time>
      </trkpt>
      <trkpt lat="45.58567" lon="4.87685">
        <ele>243</ele>
        <time>2022-07-12T13:22:27Z</time>
      </trkpt>
      <trkpt lat="45.58566" lon="4.87708">
        <ele>243</ele>
        <time>2022-07-12T13:22:30Z</time>
      </trkpt>
      <trkpt lat="45.58555" lon="4.87775">
        <ele>241</ele>
        <time>2022-07-12T13:22:38Z</time>
      </trkpt>
      <trkpt lat="45.58552" lon="4.87819">
        <ele>240</ele>
        <time>2022-07-12T13:22:44Z</time>
      </trkpt>
      <trkpt lat="45.58542" lon="4.87823">
        <ele>240</ele>
        <time>2022-07-12T13:22:45Z</time>
      </trkpt>
      <trkpt lat="45.58528" lon="4.87831">
        <ele>238</ele>
        <time>2022-07-12T13:22:48Z</time>
      </trkpt>
      <trkpt lat="45.58518" lon="4.87839">
        <ele>237</ele>
        <time>2022-07-12T13:22:50Z</time>
      </trkpt>
      <trkpt lat="45.58482" lon="4.87883">
        <ele>235</ele>
        <time>2022-07-12T13:22:59Z</time>
      </trkpt>
      <trkpt lat="45.58456" lon="4.87904">
        <ele>233</ele>
        <time>2022-07-12T13:23:04Z</time>
      </trkpt>
      <trkpt lat="45.58428" lon="4.87918">
        <ele>232</ele>
        <time>2022-07-12T13:23:09Z</time>
      </trkpt>
      <trkpt lat="45.58391" lon="4.87923">
        <ele>229</ele>
        <time>2022-07-12T13:23:16Z</time>
      </trkpt>
      <trkpt lat="45.58351" lon="4.8792">
        <ele>227</ele>
        <time>2022-07-12T13:23:23Z</time>
      </trkpt>
      <trkpt lat="45.58201" lon="4.87896">
        <ele>219</ele>
        <time>2022-07-12T13:23:50Z</time>
      </trkpt>
      <trkpt lat="45.58169" lon="4.87896">
        <ele>217</ele>
        <time>2022-07-12T13:23:55Z</time>
      </trkpt>
      <trkpt lat="45.58131" lon="4.87902">
        <ele>216</ele>
        <time>2022-07-12T13:24:02Z</time>
      </trkpt>
      <trkpt lat="45.58118" lon="4.87906">
        <ele>215</ele>
        <time>2022-07-12T13:24:05Z</time>
      </trkpt>
      <trkpt lat="45.57966" lon="4.88024">
        <ele>209</ele>
        <time>2022-07-12T13:24:35Z</time>
      </trkpt>
      <trkpt lat="45.5789" lon="4.88069">
        <ele>205</ele>
        <time>2022-07-12T13:24:50Z</time>
      </trkpt>
      <trkpt lat="45.57858" lon="4.88068">
        <ele>205</ele>
        <time>2022-07-12T13:24:56Z</time>
      </trkpt>
      <trkpt lat="45.57819" lon="4.88063">
        <ele>204</ele>
        <time>2022-07-12T13:25:03Z</time>
      </trkpt>
      <trkpt lat="45.57536" lon="4.87973">
        <ele>198</ele>
        <time>2022-07-12T13:25:54Z</time>
      </trkpt>
      <trkpt lat="45.57489" lon="4.87963">
        <ele>198</ele>
        <time>2022-07-12T13:26:03Z</time>
      </trkpt>
      <trkpt lat="45.57438" lon="4.8796">
        <ele>197</ele>
        <time>2022-07-12T13:26:12Z</time>
      </trkpt>
      <trkpt lat="45.57356" lon="4.87934">
        <ele>198</ele>
        <time>2022-07-12T13:26:27Z</time>
      </trkpt>
      <trkpt lat="45.57296" lon="4.87912">
        <ele>197</ele>
        <time>2022-07-12T13:26:38Z</time>
      </trkpt>
      <trkpt lat="45.57169" lon="4.87852">
        <ele>196</ele>
        <time>2022-07-12T13:27:02Z</time>
      </trkpt>
      <trkpt lat="45.57021" lon="4.87855">
        <ele>194</ele>
        <time>2022-07-12T13:27:28Z</time>
      </trkpt>
      <trkpt lat="45.568" lon="4.87853">
        <ele>199</ele>
        <time>2022-07-12T13:28:07Z</time>
      </trkpt>
      <trkpt lat="45.56778" lon="4.87844">
        <ele>198</ele>
        <time>2022-07-12T13:28:11Z</time>
      </trkpt>
      <trkpt lat="45.5676" lon="4.87827">
        <ele>197</ele>
        <time>2022-07-12T13:28:15Z</time>
      </trkpt>
      <trkpt lat="45.56748" lon="4.87805">
        <ele>198</ele>
        <time>2022-07-12T13:28:19Z</time>
      </trkpt>
      <trkpt lat="45.56739" lon="4.8778">
        <ele>200</ele>
        <time>2022-07-12T13:28:22Z</time>
      </trkpt>
      <trkpt lat="45.5673" lon="4.87738">
        <ele>203</ele>
        <time>2022-07-12T13:28:28Z</time>
      </trkpt>
      <trkpt lat="45.56727" lon="4.87703">
        <ele>203</ele>
        <time>2022-07-12T13:28:32Z</time>
      </trkpt>
      <trkpt lat="45.56728" lon="4.8767">
        <ele>202</ele>
        <time>2022-07-12T13:28:36Z</time>
      </trkpt>
      <trkpt lat="45.56733" lon="4.87637">
        <ele>201</ele>
        <time>2022-07-12T13:28:40Z</time>
      </trkpt>
      <trkpt lat="45.56755" lon="4.87542">
        <ele>196</ele>
        <time>2022-07-12T13:28:53Z</time>
      </trkpt>
      <trkpt lat="45.56758" lon="4.87506">
        <ele>197</ele>
        <time>2022-07-12T13:28:57Z</time>
      </trkpt>
      <trkpt lat="45.5675" lon="4.87448">
        <ele>199</ele>
        <time>2022-07-12T13:29:05Z</time>
      </trkpt>
      <trkpt lat="45.56734" lon="4.87406">
        <ele>202</ele>
        <time>2022-07-12T13:29:11Z</time>
      </trkpt>
      <trkpt lat="45.5672" lon="4.87384">
        <ele>202</ele>
        <time>2022-07-12T13:29:14Z</time>
      </trkpt>
      <trkpt lat="45.56697" lon="4.87363">
        <ele>201</ele>
        <time>2022-07-12T13:29:19Z</time>
      </trkpt>
      <trkpt lat="45.56676" lon="4.87332">
        <ele>197</ele>
        <time>2022-07-12T13:29:25Z</time>
      </trkpt>
      <trkpt lat="45.5664" lon="4.87239">
        <ele>198</ele>
        <time>2022-07-12T13:29:38Z</time>
      </trkpt>
      <trkpt lat="45.56619" lon="4.87199">
        <ele>197</ele>
        <time>2022-07-12T13:29:44Z</time>
      </trkpt>
      <trkpt lat="45.56598" lon="4.87173">
        <ele>195</ele>
        <time>2022-07-12T13:29:49Z</time>
      </trkpt>
      <trkpt lat="45.56587" lon="4.87165">
        <ele>194</ele>
        <time>2022-07-12T13:29:51Z</time>
      </trkpt>
      <trkpt lat="45.56571" lon="4.87153">
        <ele>196</ele>
        <time>2022-07-12T13:29:54Z</time>
      </trkpt>
      <trkpt lat="45.56542" lon="4.87129">
        <ele>200</ele>
        <time>2022-07-12T13:30:00Z</time>
      </trkpt>
      <trkpt lat="45.565" lon="4.871">
        <ele>200</ele>
        <time>2022-07-12T13:30:09Z</time>
      </trkpt>
      <trkpt lat="45.56483" lon="4.87082">
        <ele>199</ele>
        <time>2022-07-12T13:30:12Z</time>
      </trkpt>
      <trkpt lat="45.56469" lon="4.87051">
        <ele>197</ele>
        <time>2022-07-12T13:30:17Z</time>
      </trkpt>
      <trkpt lat="45.56446" lon="4.87009">
        <ele>192</ele>
        <time>2022-07-12T13:30:24Z</time>
      </trkpt>
      <trkpt lat="45.56435" lon="4.86995">
        <ele>191</ele>
        <time>2022-07-12T13:30:26Z</time>
      </trkpt>
      <trkpt lat="45.56423" lon="4.86985">
        <ele>191</ele>
        <time>2022-07-12T13:30:29Z</time>
      </trkpt>
      <trkpt lat="45.5641" lon="4.86982">
        <ele>191</ele>
        <time>2022-07-12T13:30:31Z</time>
      </trkpt>
      <trkpt lat="45.56399" lon="4.86984">
        <ele>191</ele>
        <time>2022-07-12T13:30:33Z</time>
      </trkpt>
      <trkpt lat="45.56354" lon="4.87016">
        <ele>195</ele>
        <time>2022-07-12T13:30:42Z</time>
      </trkpt>
      <trkpt lat="45.56324" lon="4.87027">
        <ele>199</ele>
        <time>2022-07-12T13:30:48Z</time>
      </trkpt>
      <trkpt lat="45.56292" lon="4.87029">
        <ele>202</ele>
        <time>2022-07-12T13:30:53Z</time>
      </trkpt>
      <trkpt lat="45.56265" lon="4.87024">
        <ele>203</ele>
        <time>2022-07-12T13:30:58Z</time>
      </trkpt>
      <trkpt lat="45.56243" lon="4.87014">
        <ele>203</ele>
        <time>2022-07-12T13:31:02Z</time>
      </trkpt>
      <trkpt lat="45.56219" lon="4.86995">
        <ele>200</ele>
        <time>2022-07-12T13:31:07Z</time>
      </trkpt>
      <trkpt lat="45.56191" lon="4.8697">
        <ele>198</ele>
        <time>2022-07-12T13:31:13Z</time>
      </trkpt>
      <trkpt lat="45.56174" lon="4.86961">
        <ele>197</ele>
        <time>2022-07-12T13:31:16Z</time>
      </trkpt>
      <trkpt lat="45.56157" lon="4.86958">
        <ele>196</ele>
        <time>2022-07-12T13:31:19Z</time>
      </trkpt>
      <trkpt lat="45.56137" lon="4.8696">
        <ele>195</ele>
        <time>2022-07-12T13:31:23Z</time>
      </trkpt>
      <trkpt lat="45.56032" lon="4.87011">
        <ele>199</ele>
        <time>2022-07-12T13:31:42Z</time>
      </trkpt>
      <trkpt lat="45.56002" lon="4.87018">
        <ele>198</ele>
        <time>2022-07-12T13:31:48Z</time>
      </trkpt>
      <trkpt lat="45.55978" lon="4.87021">
        <ele>203</ele>
        <time>2022-07-12T13:31:52Z</time>
      </trkpt>
      <trkpt lat="45.55952" lon="4.87013">
        <ele>204</ele>
        <time>2022-07-12T13:31:57Z</time>
      </trkpt>
      <trkpt lat="45.55922" lon="4.86988">
        <ele>202</ele>
        <time>2022-07-12T13:32:03Z</time>
      </trkpt>
      <trkpt lat="45.55853" lon="4.86918">
        <ele>193</ele>
        <time>2022-07-12T13:32:18Z</time>
      </trkpt>
      <trkpt lat="45.55834" lon="4.86905">
        <ele>193</ele>
        <time>2022-07-12T13:32:22Z</time>
      </trkpt>
      <trkpt lat="45.55824" lon="4.86899">
        <ele>191</ele>
        <time>2022-07-12T13:32:24Z</time>
      </trkpt>
      <trkpt lat="45.55813" lon="4.86899">
        <ele>189</ele>
        <time>2022-07-12T13:32:26Z</time>
      </trkpt>
      <trkpt lat="45.55806" lon="4.86903">
        <ele>189</ele>
        <time>2022-07-12T13:32:27Z</time>
      </trkpt>
      <trkpt lat="45.55791" lon="4.86917">
        <ele>188</ele>
        <time>2022-07-12T13:32:30Z</time>
      </trkpt>
      <trkpt lat="45.55738" lon="4.86984">
        <ele>197</ele>
        <time>2022-07-12T13:32:43Z</time>
      </trkpt>
      <trkpt lat="45.55706" lon="4.87006">
        <ele>197</ele>
        <time>2022-07-12T13:32:49Z</time>
      </trkpt>
      <trkpt lat="45.55546" lon="4.87075">
        <ele>189</ele>
        <time>2022-07-12T13:33:19Z</time>
      </trkpt>
      <trkpt lat="45.55524" lon="4.87101">
        <ele>190</ele>
        <time>2022-07-12T13:33:24Z</time>
      </trkpt>
      <trkpt lat="45.55469" lon="4.87247">
        <ele>193</ele>
        <time>2022-07-12T13:33:45Z</time>
      </trkpt>
      <trkpt lat="45.55452" lon="4.87277">
        <ele>192</ele>
        <time>2022-07-12T13:33:50Z</time>
      </trkpt>
      <trkpt lat="45.55424" lon="4.87312">
        <ele>189</ele>
        <time>2022-07-12T13:33:56Z</time>
      </trkpt>
      <trkpt lat="45.55312" lon="4.8743">
        <ele>184</ele>
        <time>2022-07-12T13:34:21Z</time>
      </trkpt>
      <trkpt lat="45.55284" lon="4.87468">
        <ele>185</ele>
        <time>2022-07-12T13:34:28Z</time>
      </trkpt>
      <trkpt lat="45.55228" lon="4.87559">
        <ele>186</ele>
        <time>2022-07-12T13:34:43Z</time>
      </trkpt>
      <trkpt lat="45.55184" lon="4.87609">
        <ele>187</ele>
        <time>2022-07-12T13:34:53Z</time>
      </trkpt>
      <trkpt lat="45.55103" lon="4.87666">
        <ele>183</ele>
        <time>2022-07-12T13:35:09Z</time>
      </trkpt>
      <trkpt lat="45.5504" lon="4.87691">
        <ele>183</ele>
        <time>2022-07-12T13:35:21Z</time>
      </trkpt>
      <trkpt lat="45.55024" lon="4.87695">
        <ele>183</ele>
        <time>2022-07-12T13:35:23Z</time>
      </trkpt>
      <trkpt lat="45.54887" lon="4.87694">
        <ele>179</ele>
        <time>2022-07-12T13:35:48Z</time>
      </trkpt>
      <trkpt lat="45.54836" lon="4.87701">
        <ele>176</ele>
        <time>2022-07-12T13:35:57Z</time>
      </trkpt>
      <trkpt lat="45.54804" lon="4.87722">
        <ele>176</ele>
        <time>2022-07-12T13:36:03Z</time>
      </trkpt>
      <trkpt lat="45.54653" lon="4.87857">
        <ele>172</ele>
        <time>2022-07-12T13:36:35Z</time>
      </trkpt>
      <trkpt lat="45.54565" lon="4.87939">
        <ele>178</ele>
        <time>2022-07-12T13:36:54Z</time>
      </trkpt>
      <trkpt lat="45.54495" lon="4.87992">
        <ele>182</ele>
        <time>2022-07-12T13:37:08Z</time>
      </trkpt>
      <trkpt lat="45.54477" lon="4.88002">
        <ele>183</ele>
        <time>2022-07-12T13:37:11Z</time>
      </trkpt>
      <trkpt lat="45.54459" lon="4.88007">
        <ele>183</ele>
        <time>2022-07-12T13:37:14Z</time>
      </trkpt>
      <trkpt lat="45.54384" lon="4.8802">
        <ele>182</ele>
        <time>2022-07-12T13:37:28Z</time>
      </trkpt>
      <trkpt lat="45.54327" lon="4.88016">
        <ele>177</ele>
        <time>2022-07-12T13:37:38Z</time>
      </trkpt>
      <trkpt lat="45.54234" lon="4.87992">
        <ele>173</ele>
        <time>2022-07-12T13:37:55Z</time>
      </trkpt>
      <trkpt lat="45.5419" lon="4.87975">
        <ele>174</ele>
        <time>2022-07-12T13:38:03Z</time>
      </trkpt>
      <trkpt lat="45.54159" lon="4.87972">
        <ele>174</ele>
        <time>2022-07-12T13:38:08Z</time>
      </trkpt>
      <trkpt lat="45.5413" lon="4.87978">
        <ele>173</ele>
        <time>2022-07-12T13:38:14Z</time>
      </trkpt>
      <trkpt lat="45.54084" lon="4.87993">
        <ele>170</ele>
        <time>2022-07-12T13:38:22Z</time>
      </trkpt>
      <trkpt lat="45.54027" lon="4.88008">
        <ele>176</ele>
        <time>2022-07-12T13:38:32Z</time>
      </trkpt>
      <trkpt lat="45.53992" lon="4.88005">
        <ele>180</ele>
        <time>2022-07-12T13:38:39Z</time>
      </trkpt>
      <trkpt lat="45.53963" lon="4.8799">
        <ele>185</ele>
        <time>2022-07-12T13:38:44Z</time>
      </trkpt>
      <trkpt lat="45.53931" lon="4.87962">
        <ele>184</ele>
        <time>2022-07-12T13:38:51Z</time>
      </trkpt>
      <trkpt lat="45.53911" lon="4.87929">
        <ele>178</ele>
        <time>2022-07-12T13:38:56Z</time>
      </trkpt>
      <trkpt lat="45.53884" lon="4.87866">
        <ele>187</ele>
        <time>2022-07-12T13:39:05Z</time>
      </trkpt>
      <trkpt lat="45.53877" lon="4.87834">
        <ele>189</ele>
        <time>2022-07-12T13:39:10Z</time>
      </trkpt>
      <trkpt lat="45.53875" lon="4.87808">
        <ele>188</ele>
        <time>2022-07-12T13:39:13Z</time>
      </trkpt>
      <trkpt lat="45.53878" lon="4.87763">
        <ele>182</ele>
        <time>2022-07-12T13:39:19Z</time>
      </trkpt>
      <trkpt lat="45.53883" lon="4.87729">
        <ele>177</ele>
        <time>2022-07-12T13:39:23Z</time>
      </trkpt>
      <trkpt lat="45.5389" lon="4.87701">
        <ele>172</ele>
        <time>2022-07-12T13:39:27Z</time>
      </trkpt>
      <trkpt lat="45.53908" lon="4.87645">
        <ele>164</ele>
        <time>2022-07-12T13:39:34Z</time>
      </trkpt>
      <trkpt lat="45.53917" lon="4.87625">
        <ele>162</ele>
        <time>2022-07-12T13:39:37Z</time>
      </trkpt>
      <trkpt lat="45.53923" lon="4.87605">
        <ele>162</ele>
        <time>2022-07-12T13:39:40Z</time>
      </trkpt>
      <trkpt lat="45.53921" lon="4.87571">
        <ele>161</ele>
        <time>2022-07-12T13:39:44Z</time>
      </trkpt>
      <trkpt lat="45.53912" lon="4.87554">
        <ele>160</ele>
        <time>2022-07-12T13:39:47Z</time>
      </trkpt>
      <trkpt lat="45.53896" lon="4.87536">
        <ele>159</ele>
        <time>2022-07-12T13:39:50Z</time>
      </trkpt>
      <trkpt lat="45.53874" lon="4.87526">
        <ele>159</ele>
        <time>2022-07-12T13:39:55Z</time>
      </trkpt>
      <trkpt lat="45.53842" lon="4.87534">
        <ele>160</ele>
        <time>2022-07-12T13:40:00Z</time>
      </trkpt>
      <trkpt lat="45.53798" lon="4.87554">
        <ele>161</ele>
        <time>2022-07-12T13:40:09Z</time>
      </trkpt>
      <trkpt lat="45.53758" lon="4.87559">
        <ele>161</ele>
        <time>2022-07-12T13:40:16Z</time>
      </trkpt>
      <trkpt lat="45.53704" lon="4.87576">
        <ele>164</ele>
        <time>2022-07-12T13:40:26Z</time>
      </trkpt>
      <trkpt lat="45.53675" lon="4.87577">
        <ele>164</ele>
        <time>2022-07-12T13:40:31Z</time>
      </trkpt>
      <trkpt lat="45.53665" lon="4.87572">
        <ele>164</ele>
        <time>2022-07-12T13:40:33Z</time>
      </trkpt>
      <trkpt lat="45.5363" lon="4.87534">
        <ele>161</ele>
        <time>2022-07-12T13:40:40Z</time>
      </trkpt>
      <trkpt lat="45.53616" lon="4.87506">
        <ele>157</ele>
        <time>2022-07-12T13:40:45Z</time>
      </trkpt>
      <trkpt lat="45.53606" lon="4.87462">
        <ele>156</ele>
        <time>2022-07-12T13:40:50Z</time>
      </trkpt>
      <trkpt lat="45.53604" lon="4.87445">
        <ele>156</ele>
        <time>2022-07-12T13:40:53Z</time>
      </trkpt>
      <trkpt lat="45.53607" lon="4.87441">
        <ele>156</ele>
        <time>2022-07-12T13:40:53Z</time>
      </trkpt>
      <trkpt lat="45.53609" lon="4.87429">
        <ele>156</ele>
        <time>2022-07-12T13:40:55Z</time>
      </trkpt>
      <trkpt lat="45.53606" lon="4.87421">
        <ele>156</ele>
        <time>2022-07-12T13:40:56Z</time>
      </trkpt>
      <trkpt lat="45.53605" lon="4.87415">
        <ele>156</ele>
        <time>2022-07-12T13:40:57Z</time>
      </trkpt>
      <trkpt lat="45.53598" lon="4.87409">
        <ele>156</ele>
        <time>2022-07-12T13:40:58Z</time>
      </trkpt>
      <trkpt lat="45.53592" lon="4.87407">
        <ele>156</ele>
        <time>2022-07-12T13:40:59Z</time>
      </trkpt>
      <trkpt lat="45.53585" lon="4.8741">
        <ele>156</ele>
        <time>2022-07-12T13:41:01Z</time>
      </trkpt>
      <trkpt lat="45.53581" lon="4.87416">
        <ele>156</ele>
        <time>2022-07-12T13:41:02Z</time>
      </trkpt>
      <trkpt lat="45.53578" lon="4.87425">
        <ele>156</ele>
        <time>2022-07-12T13:41:03Z</time>
      </trkpt>
      <trkpt lat="45.53577" lon="4.87434">
        <ele>156</ele>
        <time>2022-07-12T13:41:04Z</time>
      </trkpt>
      <trkpt lat="45.53564" lon="4.87458">
        <ele>157</ele>
        <time>2022-07-12T13:41:08Z</time>
      </trkpt>
      <trkpt lat="45.53547" lon="4.87466">
        <ele>158</ele>
        <time>2022-07-12T13:41:11Z</time>
      </trkpt>
      <trkpt lat="45.53528" lon="4.87468">
        <ele>159</ele>
        <time>2022-07-12T13:41:14Z</time>
      </trkpt>
      <trkpt lat="45.53502" lon="4.87462">
        <ele>161</ele>
        <time>2022-07-12T13:41:19Z</time>
      </trkpt>
      <trkpt lat="45.53475" lon="4.8746">
        <ele>161</ele>
        <time>2022-07-12T13:41:24Z</time>
      </trkpt>
      <trkpt lat="45.53216" lon="4.87424">
        <ele>159</ele>
        <time>2022-07-12T13:42:10Z</time>
      </trkpt>
      <trkpt lat="45.53206" lon="4.87408">
        <ele>156</ele>
        <time>2022-07-12T13:42:13Z</time>
      </trkpt>
      <trkpt lat="45.532" lon="4.87391">
        <ele>155</ele>
        <time>2022-07-12T13:42:15Z</time>
      </trkpt>
      <trkpt lat="45.53163" lon="4.874">
        <ele>156</ele>
        <time>2022-07-12T13:42:22Z</time>
      </trkpt>
      <trkpt lat="45.52979" lon="4.87376">
        <ele>158</ele>
        <time>2022-07-12T13:42:55Z</time>
      </trkpt>
      <trkpt lat="45.52911" lon="4.87372">
        <ele>155</ele>
        <time>2022-07-12T13:43:07Z</time>
      </trkpt>
      <trkpt lat="45.52865" lon="4.87374">
        <ele>154</ele>
        <time>2022-07-12T13:43:15Z</time>
      </trkpt>
      <trkpt lat="45.52846" lon="4.87372">
        <ele>154</ele>
        <time>2022-07-12T13:43:18Z</time>
      </trkpt>
      <trkpt lat="45.52836" lon="4.87378">
        <ele>154</ele>
        <time>2022-07-12T13:43:20Z</time>
      </trkpt>
      <trkpt lat="45.52824" lon="4.87389">
        <ele>155</ele>
        <time>2022-07-12T13:43:23Z</time>
      </trkpt>
      <trkpt lat="45.52822" lon="4.87401">
        <ele>156</ele>
        <time>2022-07-12T13:43:24Z</time>
      </trkpt>
      <trkpt lat="45.52824" lon="4.87425">
        <ele>158</ele>
        <time>2022-07-12T13:43:27Z</time>
      </trkpt>
      <trkpt lat="45.52832" lon="4.87452">
        <ele>158</ele>
        <time>2022-07-12T13:43:31Z</time>
      </trkpt>
      <trkpt lat="45.52837" lon="4.87475">
        <ele>158</ele>
        <time>2022-07-12T13:43:34Z</time>
      </trkpt>
      <trkpt lat="45.52853" lon="4.87488">
        <ele>159</ele>
        <time>2022-07-12T13:43:37Z</time>
      </trkpt>
      <trkpt lat="45.5287" lon="4.87507">
        <ele>161</ele>
        <time>2022-07-12T13:43:41Z</time>
      </trkpt>
      <trkpt lat="45.52904" lon="4.87548">
        <ele>161</ele>
        <time>2022-07-12T13:43:49Z</time>
      </trkpt>
      <trkpt lat="45.52924" lon="4.87575">
        <ele>162</ele>
        <time>2022-07-12T13:43:54Z</time>
      </trkpt>
      <trkpt lat="45.52945" lon="4.87617">
        <ele>171</ele>
        <time>2022-07-12T13:44:01Z</time>
      </trkpt>
      <trkpt lat="45.5295" lon="4.87628">
        <ele>173</ele>
        <time>2022-07-12T13:44:02Z</time>
      </trkpt>
      <trkpt lat="45.52959" lon="4.87684">
        <ele>176</ele>
        <time>2022-07-12T13:44:09Z</time>
      </trkpt>
      <trkpt lat="45.52959" lon="4.87704">
        <ele>176</ele>
        <time>2022-07-12T13:44:12Z</time>
      </trkpt>
      <trkpt lat="45.52958" lon="4.87716">
        <ele>176</ele>
        <time>2022-07-12T13:44:13Z</time>
      </trkpt>
      <trkpt lat="45.52936" lon="4.87766">
        <ele>168</ele>
        <time>2022-07-12T13:44:21Z</time>
      </trkpt>
      <trkpt lat="45.52918" lon="4.87789">
        <ele>161</ele>
        <time>2022-07-12T13:44:25Z</time>
      </trkpt>
      <trkpt lat="45.52864" lon="4.87826">
        <ele>162</ele>
        <time>2022-07-12T13:44:36Z</time>
      </trkpt>
      <trkpt lat="45.52819" lon="4.8785">
        <ele>164</ele>
        <time>2022-07-12T13:44:44Z</time>
      </trkpt>
      <trkpt lat="45.52815" lon="4.87856">
        <ele>164</ele>
        <time>2022-07-12T13:44:45Z</time>
      </trkpt>
      <trkpt lat="45.52714" lon="4.88223">
        <ele>175</ele>
        <time>2022-07-12T13:45:34Z</time>
      </trkpt>
      <trkpt lat="45.527" lon="4.88291">
        <ele>177</ele>
        <time>2022-07-12T13:45:43Z</time>
      </trkpt>
      <trkpt lat="45.52695" lon="4.88307">
        <ele>177</ele>
        <time>2022-07-12T13:45:45Z</time>
      </trkpt>
      <trkpt lat="45.52678" lon="4.88341">
        <ele>174</ele>
        <time>2022-07-12T13:45:51Z</time>
      </trkpt>
      <trkpt lat="45.52657" lon="4.88377">
        <ele>172</ele>
        <time>2022-07-12T13:45:56Z</time>
      </trkpt>
      <trkpt lat="45.52571" lon="4.88465">
        <ele>173</ele>
        <time>2022-07-12T13:46:15Z</time>
      </trkpt>
      <trkpt lat="45.52559" lon="4.8848">
        <ele>174</ele>
        <time>2022-07-12T13:46:18Z</time>
      </trkpt>
      <trkpt lat="45.52541" lon="4.88512">
        <ele>174</ele>
        <time>2022-07-12T13:46:23Z</time>
      </trkpt>
      <trkpt lat="45.52536" lon="4.88525">
        <ele>176</ele>
        <time>2022-07-12T13:46:25Z</time>
      </trkpt>
      <trkpt lat="45.52531" lon="4.88538">
        <ele>176</ele>
        <time>2022-07-12T13:46:27Z</time>
      </trkpt>
      <trkpt lat="45.52525" lon="4.88566">
        <ele>178</ele>
        <time>2022-07-12T13:46:31Z</time>
      </trkpt>
      <trkpt lat="45.52501" lon="4.88681">
        <ele>172</ele>
        <time>2022-07-12T13:46:45Z</time>
      </trkpt>
      <trkpt lat="45.52481" lon="4.88891">
        <ele>178</ele>
        <time>2022-07-12T13:47:12Z</time>
      </trkpt>
      <trkpt lat="45.52477" lon="4.88954">
        <ele>178</ele>
        <time>2022-07-12T13:47:20Z</time>
      </trkpt>
      <trkpt lat="45.52477" lon="4.88966">
        <ele>178</ele>
        <time>2022-07-12T13:47:21Z</time>
      </trkpt>
      <trkpt lat="45.52483" lon="4.88997">
        <ele>180</ele>
        <time>2022-07-12T13:47:25Z</time>
      </trkpt>
      <trkpt lat="45.52495" lon="4.89044">
        <ele>177</ele>
        <time>2022-07-12T13:47:32Z</time>
      </trkpt>
      <trkpt lat="45.52544" lon="4.89172">
        <ele>185</ele>
        <time>2022-07-12T13:47:50Z</time>
      </trkpt>
      <trkpt lat="45.52587" lon="4.89259">
        <ele>180</ele>
        <time>2022-07-12T13:48:03Z</time>
      </trkpt>
      <trkpt lat="45.5261" lon="4.893">
        <ele>183</ele>
        <time>2022-07-12T13:48:10Z</time>
      </trkpt>
      <trkpt lat="45.52625" lon="4.89325">
        <ele>181</ele>
        <time>2022-07-12T13:48:14Z</time>
      </trkpt>
      <trkpt lat="45.52659" lon="4.89364">
        <ele>180</ele>
        <time>2022-07-12T13:48:21Z</time>
      </trkpt>
      <trkpt lat="45.52687" lon="4.89404">
        <ele>181</ele>
        <time>2022-07-12T13:48:28Z</time>
      </trkpt>
      <trkpt lat="45.52696" lon="4.89421">
        <ele>181</ele>
        <time>2022-07-12T13:48:31Z</time>
      </trkpt>
      <trkpt lat="45.52707" lon="4.89456">
        <ele>183</ele>
        <time>2022-07-12T13:48:36Z</time>
      </trkpt>
      <trkpt lat="45.52713" lon="4.89485">
        <ele>183</ele>
        <time>2022-07-12T13:48:40Z</time>
      </trkpt>
      <trkpt lat="45.52714" lon="4.89504">
        <ele>183</ele>
        <time>2022-07-12T13:48:42Z</time>
      </trkpt>
      <trkpt lat="45.52713" lon="4.89519">
        <ele>184</ele>
        <time>2022-07-12T13:48:44Z</time>
      </trkpt>
      <trkpt lat="45.52695" lon="4.89596">
        <ele>185</ele>
        <time>2022-07-12T13:48:54Z</time>
      </trkpt>
      <trkpt lat="45.52694" lon="4.89625">
        <ele>185</ele>
        <time>2022-07-12T13:48:58Z</time>
      </trkpt>
      <trkpt lat="45.52694" lon="4.89653">
        <ele>186</ele>
        <time>2022-07-12T13:49:01Z</time>
      </trkpt>
      <trkpt lat="45.52698" lon="4.89683">
        <ele>187</ele>
        <time>2022-07-12T13:49:05Z</time>
      </trkpt>
      <trkpt lat="45.52707" lon="4.89724">
        <ele>187</ele>
        <time>2022-07-12T13:49:10Z</time>
      </trkpt>
      <trkpt lat="45.52716" lon="4.89752">
        <ele>187</ele>
        <time>2022-07-12T13:49:14Z</time>
      </trkpt>
      <trkpt lat="45.52762" lon="4.89854">
        <ele>180</ele>
        <time>2022-07-12T13:49:29Z</time>
      </trkpt>
      <trkpt lat="45.52784" lon="4.89892">
        <ele>183</ele>
        <time>2022-07-12T13:49:35Z</time>
      </trkpt>
      <trkpt lat="45.52872" lon="4.90032">
        <ele>185</ele>
        <time>2022-07-12T13:49:59Z</time>
      </trkpt>
      <trkpt lat="45.52882" lon="4.90056">
        <ele>185</ele>
        <time>2022-07-12T13:50:02Z</time>
      </trkpt>
      <trkpt lat="45.52913" lon="4.90136">
        <ele>179</ele>
        <time>2022-07-12T13:50:14Z</time>
      </trkpt>
      <trkpt lat="45.52923" lon="4.90152">
        <ele>178</ele>
        <time>2022-07-12T13:50:16Z</time>
      </trkpt>
      <trkpt lat="45.52955" lon="4.90179">
        <ele>177</ele>
        <time>2022-07-12T13:50:23Z</time>
      </trkpt>
      <trkpt lat="45.52961" lon="4.90192">
        <ele>178</ele>
        <time>2022-07-12T13:50:25Z</time>
      </trkpt>
      <trkpt lat="45.52966" lon="4.90207">
        <ele>178</ele>
        <time>2022-07-12T13:50:27Z</time>
      </trkpt>
      <trkpt lat="45.52961" lon="4.90192">
        <ele>178</ele>
        <time>2022-07-12T13:50:29Z</time>
      </trkpt>
      <trkpt lat="45.52955" lon="4.90179">
        <ele>177</ele>
        <time>2022-07-12T13:50:31Z</time>
      </trkpt>
      <trkpt lat="45.52948" lon="4.90199">
        <ele>178</ele>
        <time>2022-07-12T13:50:34Z</time>
      </trkpt>
      <trkpt lat="45.52924" lon="4.90211">
        <ele>178</ele>
        <time>2022-07-12T13:50:38Z</time>
      </trkpt>
      <trkpt lat="45.52901" lon="4.90222">
        <ele>182</ele>
        <time>2022-07-12T13:50:43Z</time>
      </trkpt>
      <trkpt lat="45.52895" lon="4.90226">
        <ele>183</ele>
        <time>2022-07-12T13:50:44Z</time>
      </trkpt>
      <trkpt lat="45.52893" lon="4.90232">
        <ele>184</ele>
        <time>2022-07-12T13:50:45Z</time>
      </trkpt>
      <trkpt lat="45.52891" lon="4.90285">
        <ele>185</ele>
        <time>2022-07-12T13:50:51Z</time>
      </trkpt>
      <trkpt lat="45.52881" lon="4.90329">
        <ele>187</ele>
        <time>2022-07-12T13:50:57Z</time>
      </trkpt>
      <trkpt lat="45.52869" lon="4.90372">
        <ele>186</ele>
        <time>2022-07-12T13:51:03Z</time>
      </trkpt>
      <trkpt lat="45.52856" lon="4.90408">
        <ele>186</ele>
        <time>2022-07-12T13:51:08Z</time>
      </trkpt>
      <trkpt lat="45.52778" lon="4.90576">
        <ele>189</ele>
        <time>2022-07-12T13:51:33Z</time>
      </trkpt>
      <trkpt lat="45.52772" lon="4.90581">
        <ele>189</ele>
        <time>2022-07-12T13:51:34Z</time>
      </trkpt>
      <trkpt lat="45.52736" lon="4.90601">
        <ele>192</ele>
        <time>2022-07-12T13:51:41Z</time>
      </trkpt>
      <trkpt lat="45.52692" lon="4.90635">
        <ele>194</ele>
        <time>2022-07-12T13:51:50Z</time>
      </trkpt>
      <trkpt lat="45.52664" lon="4.90659">
        <ele>196</ele>
        <time>2022-07-12T13:51:56Z</time>
      </trkpt>
      <trkpt lat="45.52572" lon="4.9075">
        <ele>198</ele>
        <time>2022-07-12T13:52:16Z</time>
      </trkpt>
      <trkpt lat="45.5256" lon="4.90757">
        <ele>198</ele>
        <time>2022-07-12T13:52:18Z</time>
      </trkpt>
      <trkpt lat="45.5255" lon="4.90753">
        <ele>199</ele>
        <time>2022-07-12T13:52:20Z</time>
      </trkpt>
      <trkpt lat="45.52525" lon="4.90793">
        <ele>199</ele>
        <time>2022-07-12T13:52:27Z</time>
      </trkpt>
      <trkpt lat="45.52503" lon="4.90819">
        <ele>199</ele>
        <time>2022-07-12T13:52:32Z</time>
      </trkpt>
      <trkpt lat="45.52467" lon="4.90853">
        <ele>201</ele>
        <time>2022-07-12T13:52:39Z</time>
      </trkpt>
      <trkpt lat="45.52449" lon="4.90867">
        <ele>201</ele>
        <time>2022-07-12T13:52:43Z</time>
      </trkpt>
      <trkpt lat="45.52431" lon="4.90876">
        <ele>201</ele>
        <time>2022-07-12T13:52:46Z</time>
      </trkpt>
      <trkpt lat="45.52362" lon="4.90899">
        <ele>200</ele>
        <time>2022-07-12T13:52:59Z</time>
      </trkpt>
      <trkpt lat="45.52332" lon="4.90931">
        <ele>199</ele>
        <time>2022-07-12T13:53:06Z</time>
      </trkpt>
      <trkpt lat="45.52315" lon="4.90957">
        <ele>201</ele>
        <time>2022-07-12T13:53:10Z</time>
      </trkpt>
      <trkpt lat="45.52296" lon="4.90969">
        <ele>206</ele>
        <time>2022-07-12T13:53:14Z</time>
      </trkpt>
      <trkpt lat="45.52289" lon="4.9097">
        <ele>208</ele>
        <time>2022-07-12T13:53:15Z</time>
      </trkpt>
      <trkpt lat="45.5229" lon="4.91018">
        <ele>208</ele>
        <time>2022-07-12T13:53:21Z</time>
      </trkpt>
      <trkpt lat="45.52288" lon="4.91065">
        <ele>210</ele>
        <time>2022-07-12T13:53:27Z</time>
      </trkpt>
      <trkpt lat="45.52283" lon="4.91118">
        <ele>208</ele>
        <time>2022-07-12T13:53:34Z</time>
      </trkpt>
      <trkpt lat="45.52273" lon="4.91162">
        <ele>207</ele>
        <time>2022-07-12T13:53:39Z</time>
      </trkpt>
      <trkpt lat="45.52261" lon="4.91199">
        <ele>204</ele>
        <time>2022-07-12T13:53:44Z</time>
      </trkpt>
      <trkpt lat="45.52243" lon="4.91229">
        <ele>203</ele>
        <time>2022-07-12T13:53:49Z</time>
      </trkpt>
      <trkpt lat="45.52139" lon="4.91377">
        <ele>206</ele>
        <time>2022-07-12T13:54:15Z</time>
      </trkpt>
      <trkpt lat="45.52119" lon="4.91408">
        <ele>206</ele>
        <time>2022-07-12T13:54:21Z</time>
      </trkpt>
      <trkpt lat="45.52094" lon="4.91451">
        <ele>205</ele>
        <time>2022-07-12T13:54:28Z</time>
      </trkpt>
      <trkpt lat="45.52075" lon="4.91477">
        <ele>203</ele>
        <time>2022-07-12T13:54:32Z</time>
      </trkpt>
      <trkpt lat="45.52062" lon="4.91491">
        <ele>202</ele>
        <time>2022-07-12T13:54:35Z</time>
      </trkpt>
      <trkpt lat="45.51998" lon="4.91543">
        <ele>201</ele>
        <time>2022-07-12T13:54:48Z</time>
      </trkpt>
      <trkpt lat="45.51977" lon="4.91565">
        <ele>199</ele>
        <time>2022-07-12T13:54:53Z</time>
      </trkpt>
      <trkpt lat="45.51871" lon="4.91739">
        <ele>198</ele>
        <time>2022-07-12T13:55:22Z</time>
      </trkpt>
      <trkpt lat="45.51836" lon="4.91779">
        <ele>199</ele>
        <time>2022-07-12T13:55:30Z</time>
      </trkpt>
      <trkpt lat="45.51823" lon="4.91781">
        <ele>201</ele>
        <time>2022-07-12T13:55:32Z</time>
      </trkpt>
      <trkpt lat="45.51816" lon="4.9179">
        <ele>201</ele>
        <time>2022-07-12T13:55:34Z</time>
      </trkpt>
      <trkpt lat="45.51812" lon="4.91808">
        <ele>199</ele>
        <time>2022-07-12T13:55:36Z</time>
      </trkpt>
      <trkpt lat="45.51816" lon="4.91821">
        <ele>197</ele>
        <time>2022-07-12T13:55:38Z</time>
      </trkpt>
      <trkpt lat="45.51814" lon="4.9184">
        <ele>195</ele>
        <time>2022-07-12T13:55:40Z</time>
      </trkpt>
      <trkpt lat="45.51809" lon="4.91862">
        <ele>195</ele>
        <time>2022-07-12T13:55:43Z</time>
      </trkpt>
      <trkpt lat="45.51797" lon="4.91897">
        <ele>195</ele>
        <time>2022-07-12T13:55:48Z</time>
      </trkpt>
      <trkpt lat="45.51783" lon="4.91933">
        <ele>196</ele>
        <time>2022-07-12T13:55:53Z</time>
      </trkpt>
      <trkpt lat="45.51767" lon="4.91963">
        <ele>195</ele>
        <time>2022-07-12T13:55:58Z</time>
      </trkpt>
      <trkpt lat="45.51699" lon="4.92077">
        <ele>196</ele>
        <time>2022-07-12T13:56:16Z</time>
      </trkpt>
      <trkpt lat="45.51693" lon="4.92086">
        <ele>197</ele>
        <time>2022-07-12T13:56:18Z</time>
      </trkpt>
      <trkpt lat="45.51665" lon="4.92138">
        <ele>198</ele>
        <time>2022-07-12T13:56:26Z</time>
      </trkpt>
      <trkpt lat="45.51627" lon="4.92201">
        <ele>199</ele>
        <time>2022-07-12T13:56:37Z</time>
      </trkpt>
      <trkpt lat="45.51617" lon="4.92229">
        <ele>195</ele>
        <time>2022-07-12T13:56:40Z</time>
      </trkpt>
      <trkpt lat="45.51609" lon="4.92234">
        <ele>195</ele>
        <time>2022-07-12T13:56:42Z</time>
      </trkpt>
      <trkpt lat="45.51606" lon="4.92238">
        <ele>195</ele>
        <time>2022-07-12T13:56:43Z</time>
      </trkpt>
      <trkpt lat="45.51603" lon="4.92251">
        <ele>193</ele>
        <time>2022-07-12T13:56:44Z</time>
      </trkpt>
      <trkpt lat="45.51604" lon="4.92263">
        <ele>193</ele>
        <time>2022-07-12T13:56:46Z</time>
      </trkpt>
      <trkpt lat="45.51599" lon="4.92277">
        <ele>193</ele>
        <time>2022-07-12T13:56:48Z</time>
      </trkpt>
      <trkpt lat="45.51592" lon="4.9234">
        <ele>192</ele>
        <time>2022-07-12T13:56:56Z</time>
      </trkpt>
      <trkpt lat="45.51563" lon="4.92414">
        <ele>196</ele>
        <time>2022-07-12T13:57:06Z</time>
      </trkpt>
      <trkpt lat="45.51543" lon="4.92442">
        <ele>197</ele>
        <time>2022-07-12T13:57:11Z</time>
      </trkpt>
      <trkpt lat="45.51517" lon="4.92462">
        <ele>199</ele>
        <time>2022-07-12T13:57:17Z</time>
      </trkpt>
      <trkpt lat="45.51471" lon="4.92491">
        <ele>202</ele>
        <time>2022-07-12T13:57:26Z</time>
      </trkpt>
      <trkpt lat="45.51445" lon="4.9251">
        <ele>204</ele>
        <time>2022-07-12T13:57:31Z</time>
      </trkpt>
      <trkpt lat="45.51418" lon="4.92542">
        <ele>204</ele>
        <time>2022-07-12T13:57:37Z</time>
      </trkpt>
      <trkpt lat="45.51378" lon="4.92611">
        <ele>203</ele>
        <time>2022-07-12T13:57:48Z</time>
      </trkpt>
      <trkpt lat="45.5134" lon="4.92663">
        <ele>201</ele>
        <time>2022-07-12T13:57:58Z</time>
      </trkpt>
      <trkpt lat="45.51311" lon="4.92689">
        <ele>201</ele>
        <time>2022-07-12T13:58:04Z</time>
      </trkpt>
      <trkpt lat="45.51282" lon="4.92703">
        <ele>201</ele>
        <time>2022-07-12T13:58:09Z</time>
      </trkpt>
      <trkpt lat="45.51188" lon="4.92735">
        <ele>201</ele>
        <time>2022-07-12T13:58:26Z</time>
      </trkpt>
      <trkpt lat="45.51195" lon="4.92727">
        <ele>202</ele>
        <time>2022-07-12T13:58:28Z</time>
      </trkpt>
      <trkpt lat="45.51188" lon="4.92735">
        <ele>201</ele>
        <time>2022-07-12T13:58:30Z</time>
      </trkpt>
      <trkpt lat="45.51167" lon="4.92733">
        <ele>202</ele>
        <time>2022-07-12T13:58:33Z</time>
      </trkpt>
      <trkpt lat="45.51121" lon="4.92723">
        <ele>204</ele>
        <time>2022-07-12T13:58:42Z</time>
      </trkpt>
      <trkpt lat="45.51102" lon="4.92722">
        <ele>204</ele>
        <time>2022-07-12T13:58:45Z</time>
      </trkpt>
      <trkpt lat="45.51073" lon="4.92731">
        <ele>203</ele>
        <time>2022-07-12T13:58:50Z</time>
      </trkpt>
      <trkpt lat="45.51051" lon="4.92743">
        <ele>203</ele>
        <time>2022-07-12T13:58:54Z</time>
      </trkpt>
      <trkpt lat="45.51037" lon="4.92753">
        <ele>203</ele>
        <time>2022-07-12T13:58:57Z</time>
      </trkpt>
      <trkpt lat="45.51017" lon="4.92773">
        <ele>204</ele>
        <time>2022-07-12T13:59:02Z</time>
      </trkpt>
      <trkpt lat="45.51002" lon="4.92795">
        <ele>204</ele>
        <time>2022-07-12T13:59:05Z</time>
      </trkpt>
      <trkpt lat="45.50983" lon="4.92837">
        <ele>204</ele>
        <time>2022-07-12T13:59:12Z</time>
      </trkpt>
      <trkpt lat="45.50923" lon="4.93013">
        <ele>199</ele>
        <time>2022-07-12T13:59:36Z</time>
      </trkpt>
      <trkpt lat="45.50881" lon="4.93147">
        <ele>200</ele>
        <time>2022-07-12T13:59:54Z</time>
      </trkpt>
      <trkpt lat="45.50811" lon="4.93354">
        <ele>203</ele>
        <time>2022-07-12T14:00:23Z</time>
      </trkpt>
      <trkpt lat="45.50735" lon="4.93587">
        <ele>204</ele>
        <time>2022-07-12T14:00:55Z</time>
      </trkpt>
      <trkpt lat="45.50619" lon="4.93915">
        <ele>207</ele>
        <time>2022-07-12T14:01:41Z</time>
      </trkpt>
      <trkpt lat="45.50611" lon="4.93934">
        <ele>207</ele>
        <time>2022-07-12T14:01:44Z</time>
      </trkpt>
      <trkpt lat="45.50605" lon="4.93946">
        <ele>207</ele>
        <time>2022-07-12T14:01:45Z</time>
      </trkpt>
      <trkpt lat="45.50559" lon="4.93993">
        <ele>208</ele>
        <time>2022-07-12T14:01:56Z</time>
      </trkpt>
      <trkpt lat="45.5054" lon="4.94019">
        <ele>208</ele>
        <time>2022-07-12T14:02:00Z</time>
      </trkpt>
      <trkpt lat="45.50503" lon="4.94074">
        <ele>206</ele>
        <time>2022-07-12T14:02:10Z</time>
      </trkpt>
      <trkpt lat="45.5049" lon="4.941">
        <ele>207</ele>
        <time>2022-07-12T14:02:14Z</time>
      </trkpt>
      <trkpt lat="45.50167" lon="4.94891">
        <ele>223</ele>
        <time>2022-07-12T14:04:08Z</time>
      </trkpt>
      <trkpt lat="45.50158" lon="4.94921">
        <ele>223</ele>
        <time>2022-07-12T14:04:12Z</time>
      </trkpt>
      <trkpt lat="45.50122" lon="4.95064">
        <ele>228</ele>
        <time>2022-07-12T14:04:31Z</time>
      </trkpt>
      <trkpt lat="45.50116" lon="4.95084">
        <ele>229</ele>
        <time>2022-07-12T14:04:34Z</time>
      </trkpt>
      <trkpt lat="45.50091" lon="4.95142">
        <ele>232</ele>
        <time>2022-07-12T14:04:42Z</time>
      </trkpt>
      <trkpt lat="45.50052" lon="4.95271">
        <ele>232</ele>
        <time>2022-07-12T14:05:00Z</time>
      </trkpt>
      <trkpt lat="45.5002" lon="4.95388">
        <ele>233</ele>
        <time>2022-07-12T14:05:15Z</time>
      </trkpt>
      <trkpt lat="45.50002" lon="4.95468">
        <ele>231</ele>
        <time>2022-07-12T14:05:26Z</time>
      </trkpt>
      <trkpt lat="45.49991" lon="4.95535">
        <ele>228</ele>
        <time>2022-07-12T14:05:34Z</time>
      </trkpt>
      <trkpt lat="45.49983" lon="4.95563">
        <ele>228</ele>
        <time>2022-07-12T14:05:38Z</time>
      </trkpt>
      <trkpt lat="45.4975" lon="4.96327">
        <ele>232</ele>
        <time>2022-07-12T14:07:22Z</time>
      </trkpt>
      <trkpt lat="45.49676" lon="4.96577">
        <ele>240</ele>
        <time>2022-07-12T14:07:56Z</time>
      </trkpt>
      <trkpt lat="45.4966" lon="4.96616">
        <ele>238</ele>
        <time>2022-07-12T14:08:01Z</time>
      </trkpt>
      <trkpt lat="45.49622" lon="4.96697">
        <ele>238</ele>
        <time>2022-07-12T14:08:14Z</time>
      </trkpt>
      <trkpt lat="45.49428" lon="4.97136">
        <ele>236</ele>
        <time>2022-07-12T14:09:18Z</time>
      </trkpt>
      <trkpt lat="45.49404" lon="4.97193">
        <ele>236</ele>
        <time>2022-07-12T14:09:27Z</time>
      </trkpt>
      <trkpt lat="45.49392" lon="4.97232">
        <ele>238</ele>
        <time>2022-07-12T14:09:32Z</time>
      </trkpt>
      <trkpt lat="45.49379" lon="4.97282">
        <ele>239</ele>
        <time>2022-07-12T14:09:39Z</time>
      </trkpt>
      <trkpt lat="45.49343" lon="4.97426">
        <ele>238</ele>
        <time>2022-07-12T14:09:58Z</time>
      </trkpt>
      <trkpt lat="45.4934" lon="4.97439">
        <ele>238</ele>
        <time>2022-07-12T14:09:59Z</time>
      </trkpt>
      <trkpt lat="45.49311" lon="4.97511">
        <ele>239</ele>
        <time>2022-07-12T14:10:10Z</time>
      </trkpt>
      <trkpt lat="45.49238" lon="4.97682">
        <ele>243</ele>
        <time>2022-07-12T14:10:35Z</time>
      </trkpt>
      <trkpt lat="45.49213" lon="4.97762">
        <ele>243</ele>
        <time>2022-07-12T14:10:46Z</time>
      </trkpt>
      <trkpt lat="45.49197" lon="4.97835">
        <ele>243</ele>
        <time>2022-07-12T14:10:55Z</time>
      </trkpt>
      <trkpt lat="45.49195" lon="4.97849">
        <ele>243</ele>
        <time>2022-07-12T14:10:57Z</time>
      </trkpt>
      <trkpt lat="45.49177" lon="4.97944">
        <ele>241</ele>
        <time>2022-07-12T14:11:09Z</time>
      </trkpt>
      <trkpt lat="45.49169" lon="4.97974">
        <ele>241</ele>
        <time>2022-07-12T14:11:13Z</time>
      </trkpt>
      <trkpt lat="45.49142" lon="4.98062">
        <ele>243</ele>
        <time>2022-07-12T14:11:25Z</time>
      </trkpt>
      <trkpt lat="45.49119" lon="4.98147">
        <ele>244</ele>
        <time>2022-07-12T14:11:37Z</time>
      </trkpt>
      <trkpt lat="45.4911" lon="4.98193">
        <ele>245</ele>
        <time>2022-07-12T14:11:43Z</time>
      </trkpt>
      <trkpt lat="45.4909" lon="4.98305">
        <ele>247</ele>
        <time>2022-07-12T14:11:57Z</time>
      </trkpt>
      <trkpt lat="45.49077" lon="4.98354">
        <ele>249</ele>
        <time>2022-07-12T14:12:04Z</time>
      </trkpt>
      <trkpt lat="45.49069" lon="4.98374">
        <ele>250</ele>
        <time>2022-07-12T14:12:06Z</time>
      </trkpt>
      <trkpt lat="45.49048" lon="4.98422">
        <ele>254</ele>
        <time>2022-07-12T14:12:13Z</time>
      </trkpt>
      <trkpt lat="45.4903" lon="4.98455">
        <ele>255</ele>
        <time>2022-07-12T14:12:19Z</time>
      </trkpt>
      <trkpt lat="45.48996" lon="4.98494">
        <ele>257</ele>
        <time>2022-07-12T14:12:26Z</time>
      </trkpt>
      <trkpt lat="45.4893" lon="4.98552">
        <ele>260</ele>
        <time>2022-07-12T14:12:40Z</time>
      </trkpt>
      <trkpt lat="45.48872" lon="4.98623">
        <ele>258</ele>
        <time>2022-07-12T14:12:54Z</time>
      </trkpt>
      <trkpt lat="45.48811" lon="4.98674">
        <ele>257</ele>
        <time>2022-07-12T14:13:06Z</time>
      </trkpt>
      <trkpt lat="45.48731" lon="4.98754">
        <ele>258</ele>
        <time>2022-07-12T14:13:24Z</time>
      </trkpt>
      <trkpt lat="45.48695" lon="4.98778">
        <ele>258</ele>
        <time>2022-07-12T14:13:31Z</time>
      </trkpt>
      <trkpt lat="45.48655" lon="4.98801">
        <ele>256</ele>
        <time>2022-07-12T14:13:39Z</time>
      </trkpt>
      <trkpt lat="45.48607" lon="4.98823">
        <ele>257</ele>
        <time>2022-07-12T14:13:47Z</time>
      </trkpt>
      <trkpt lat="45.48514" lon="4.98858">
        <ele>263</ele>
        <time>2022-07-12T14:14:05Z</time>
      </trkpt>
      <trkpt lat="45.48459" lon="4.98886">
        <ele>265</ele>
        <time>2022-07-12T14:14:15Z</time>
      </trkpt>
      <trkpt lat="45.48374" lon="4.98938">
        <ele>265</ele>
        <time>2022-07-12T14:14:31Z</time>
      </trkpt>
      <trkpt lat="45.48319" lon="4.98966">
        <ele>263</ele>
        <time>2022-07-12T14:14:42Z</time>
      </trkpt>
      <trkpt lat="45.48258" lon="4.98992">
        <ele>260</ele>
        <time>2022-07-12T14:14:53Z</time>
      </trkpt>
      <trkpt lat="45.48152" lon="4.99023">
        <ele>264</ele>
        <time>2022-07-12T14:15:12Z</time>
      </trkpt>
      <trkpt lat="45.48071" lon="4.99048">
        <ele>264</ele>
        <time>2022-07-12T14:15:27Z</time>
      </trkpt>
      <trkpt lat="45.47957" lon="4.99068">
        <ele>266</ele>
        <time>2022-07-12T14:15:48Z</time>
      </trkpt>
      <trkpt lat="45.47906" lon="4.99088">
        <ele>270</ele>
        <time>2022-07-12T14:15:57Z</time>
      </trkpt>
      <trkpt lat="45.47863" lon="4.99124">
        <ele>269</ele>
        <time>2022-07-12T14:16:06Z</time>
      </trkpt>
      <trkpt lat="45.47684" lon="4.99283">
        <ele>274</ele>
        <time>2022-07-12T14:16:43Z</time>
      </trkpt>
      <trkpt lat="45.47644" lon="4.99329">
        <ele>272</ele>
        <time>2022-07-12T14:16:53Z</time>
      </trkpt>
      <trkpt lat="45.47545" lon="4.99452">
        <ele>276</ele>
        <time>2022-07-12T14:17:16Z</time>
      </trkpt>
      <trkpt lat="45.47467" lon="4.99557">
        <ele>274</ele>
        <time>2022-07-12T14:17:35Z</time>
      </trkpt>
      <trkpt lat="45.47444" lon="4.99591">
        <ele>272</ele>
        <time>2022-07-12T14:17:41Z</time>
      </trkpt>
      <trkpt lat="45.4744" lon="4.99609">
        <ele>271</ele>
        <time>2022-07-12T14:17:43Z</time>
      </trkpt>
      <trkpt lat="45.47433" lon="4.99653">
        <ele>269</ele>
        <time>2022-07-12T14:17:49Z</time>
      </trkpt>
      <trkpt lat="45.47372" lon="4.99817">
        <ele>268</ele>
        <time>2022-07-12T14:18:12Z</time>
      </trkpt>
      <trkpt lat="45.47352" lon="4.99928">
        <ele>270</ele>
        <time>2022-07-12T14:18:26Z</time>
      </trkpt>
      <trkpt lat="45.47353" lon="4.99939">
        <ele>269</ele>
        <time>2022-07-12T14:18:28Z</time>
      </trkpt>
      <trkpt lat="45.47349" lon="4.99942">
        <ele>270</ele>
        <time>2022-07-12T14:18:29Z</time>
      </trkpt>
      <trkpt lat="45.47342" lon="4.99951">
        <ele>270</ele>
        <time>2022-07-12T14:18:30Z</time>
      </trkpt>
      <trkpt lat="45.47333" lon="4.99969">
        <ele>270</ele>
        <time>2022-07-12T14:18:33Z</time>
      </trkpt>
      <trkpt lat="45.4732" lon="5.00002">
        <ele>270</ele>
        <time>2022-07-12T14:18:38Z</time>
      </trkpt>
      <trkpt lat="45.47318" lon="5.0002">
        <ele>269</ele>
        <time>2022-07-12T14:18:40Z</time>
      </trkpt>
      <trkpt lat="45.47302" lon="5.00077">
        <ele>269</ele>
        <time>2022-07-12T14:18:48Z</time>
      </trkpt>
      <trkpt lat="45.47286" lon="5.00127">
        <ele>269</ele>
        <time>2022-07-12T14:18:54Z</time>
      </trkpt>
      <trkpt lat="45.47275" lon="5.00173">
        <ele>268</ele>
        <time>2022-07-12T14:19:01Z</time>
      </trkpt>
      <trkpt lat="45.4725" lon="5.00309">
        <ele>269</ele>
        <time>2022-07-12T14:19:18Z</time>
      </trkpt>
      <trkpt lat="45.47163" lon="5.00652">
        <ele>274</ele>
        <time>2022-07-12T14:20:04Z</time>
      </trkpt>
      <trkpt lat="45.47056" lon="5.01069">
        <ele>278</ele>
        <time>2022-07-12T14:20:59Z</time>
      </trkpt>
      <trkpt lat="45.46997" lon="5.01655">
        <ele>279</ele>
        <time>2022-07-12T14:22:13Z</time>
      </trkpt>
      <trkpt lat="45.4698" lon="5.01863">
        <ele>284</ele>
        <time>2022-07-12T14:22:39Z</time>
      </trkpt>
      <trkpt lat="45.46982" lon="5.019">
        <ele>285</ele>
        <time>2022-07-12T14:22:44Z</time>
      </trkpt>
      <trkpt lat="45.47025" lon="5.02055">
        <ele>282</ele>
        <time>2022-07-12T14:23:04Z</time>
      </trkpt>
      <trkpt lat="45.47046" lon="5.02188">
        <ele>280</ele>
        <time>2022-07-12T14:23:21Z</time>
      </trkpt>
      <trkpt lat="45.47056" lon="5.02324">
        <ele>280</ele>
        <time>2022-07-12T14:23:39Z</time>
      </trkpt>
      <trkpt lat="45.47041" lon="5.02499">
        <ele>282</ele>
        <time>2022-07-12T14:24:01Z</time>
      </trkpt>
      <trkpt lat="45.47044" lon="5.02658">
        <ele>283</ele>
        <time>2022-07-12T14:24:20Z</time>
      </trkpt>
      <trkpt lat="45.47065" lon="5.02796">
        <ele>286</ele>
        <time>2022-07-12T14:24:38Z</time>
      </trkpt>
      <trkpt lat="45.47065" lon="5.03056">
        <ele>291</ele>
        <time>2022-07-12T14:25:10Z</time>
      </trkpt>
      <trkpt lat="45.47096" lon="5.0334">
        <ele>296</ele>
        <time>2022-07-12T14:25:46Z</time>
      </trkpt>
      <trkpt lat="45.47179" lon="5.03878">
        <ele>298</ele>
        <time>2022-07-12T14:26:55Z</time>
      </trkpt>
      <trkpt lat="45.47232" lon="5.0424">
        <ele>299</ele>
        <time>2022-07-12T14:27:41Z</time>
      </trkpt>
      <trkpt lat="45.47233" lon="5.04292">
        <ele>300</ele>
        <time>2022-07-12T14:27:48Z</time>
      </trkpt>
      <trkpt lat="45.47227" lon="5.04336">
        <ele>300</ele>
        <time>2022-07-12T14:27:53Z</time>
      </trkpt>
      <trkpt lat="45.47182" lon="5.045">
        <ele>308</ele>
        <time>2022-07-12T14:28:15Z</time>
      </trkpt>
      <trkpt lat="45.47163" lon="5.04555">
        <ele>308</ele>
        <time>2022-07-12T14:28:23Z</time>
      </trkpt>
      <trkpt lat="45.47134" lon="5.04655">
        <ele>302</ele>
        <time>2022-07-12T14:28:36Z</time>
      </trkpt>
      <trkpt lat="45.47119" lon="5.04736">
        <ele>303</ele>
        <time>2022-07-12T14:28:47Z</time>
      </trkpt>
      <trkpt lat="45.47079" lon="5.04984">
        <ele>308</ele>
        <time>2022-07-12T14:29:19Z</time>
      </trkpt>
      <trkpt lat="45.47072" lon="5.05032">
        <ele>309</ele>
        <time>2022-07-12T14:29:25Z</time>
      </trkpt>
      <trkpt lat="45.47069" lon="5.05079">
        <ele>309</ele>
        <time>2022-07-12T14:29:31Z</time>
      </trkpt>
      <trkpt lat="45.47069" lon="5.05125">
        <ele>309</ele>
        <time>2022-07-12T14:29:36Z</time>
      </trkpt>
      <trkpt lat="45.47066" lon="5.05186">
        <ele>310</ele>
        <time>2022-07-12T14:29:44Z</time>
      </trkpt>
      <trkpt lat="45.47068" lon="5.05206">
        <ele>310</ele>
        <time>2022-07-12T14:29:46Z</time>
      </trkpt>
      <trkpt lat="45.47061" lon="5.05242">
        <ele>311</ele>
        <time>2022-07-12T14:29:51Z</time>
      </trkpt>
      <trkpt lat="45.47053" lon="5.05321">
        <ele>312</ele>
        <time>2022-07-12T14:30:01Z</time>
      </trkpt>
      <trkpt lat="45.47025" lon="5.05451">
        <ele>313</ele>
        <time>2022-07-12T14:30:18Z</time>
      </trkpt>
      <trkpt lat="45.47022" lon="5.05466">
        <ele>313</ele>
        <time>2022-07-12T14:30:20Z</time>
      </trkpt>
      <trkpt lat="45.4697" lon="5.057">
        <ele>315</ele>
        <time>2022-07-12T14:30:51Z</time>
      </trkpt>
      <trkpt lat="45.46965" lon="5.057">
        <ele>315</ele>
        <time>2022-07-12T14:30:52Z</time>
      </trkpt>
      <trkpt lat="45.46961" lon="5.05707">
        <ele>316</ele>
        <time>2022-07-12T14:30:53Z</time>
      </trkpt>
      <trkpt lat="45.46962" lon="5.05715">
        <ele>316</ele>
        <time>2022-07-12T14:30:54Z</time>
      </trkpt>
      <trkpt lat="45.46966" lon="5.05719">
        <ele>315</ele>
        <time>2022-07-12T14:30:55Z</time>
      </trkpt>
      <trkpt lat="45.46787" lon="5.0655">
        <ele>329</ele>
        <time>2022-07-12T14:32:43Z</time>
      </trkpt>
      <trkpt lat="45.46753" lon="5.06723">
        <ele>330</ele>
        <time>2022-07-12T14:33:05Z</time>
      </trkpt>
      <trkpt lat="45.46705" lon="5.0721">
        <ele>337</ele>
        <time>2022-07-12T14:34:07Z</time>
      </trkpt>
      <trkpt lat="45.46705" lon="5.07254">
        <ele>337</ele>
        <time>2022-07-12T14:34:12Z</time>
      </trkpt>
      <trkpt lat="45.46691" lon="5.07919">
        <ele>349</ele>
        <time>2022-07-12T14:35:35Z</time>
      </trkpt>
      <trkpt lat="45.46695" lon="5.07995">
        <ele>348</ele>
        <time>2022-07-12T14:35:45Z</time>
      </trkpt>
      <trkpt lat="45.46712" lon="5.0822">
        <ele>350</ele>
        <time>2022-07-12T14:36:13Z</time>
      </trkpt>
      <trkpt lat="45.46702" lon="5.08449">
        <ele>353</ele>
        <time>2022-07-12T14:36:42Z</time>
      </trkpt>
      <trkpt lat="45.46701" lon="5.08468">
        <ele>353</ele>
        <time>2022-07-12T14:36:44Z</time>
      </trkpt>
      <trkpt lat="45.46686" lon="5.08692">
        <ele>357</ele>
        <time>2022-07-12T14:37:12Z</time>
      </trkpt>
      <trkpt lat="45.46686" lon="5.08756">
        <ele>357</ele>
        <time>2022-07-12T14:37:20Z</time>
      </trkpt>
      <trkpt lat="45.46693" lon="5.08823">
        <ele>356</ele>
        <time>2022-07-12T14:37:29Z</time>
      </trkpt>
      <trkpt lat="45.4676" lon="5.09241">
        <ele>358</ele>
        <time>2022-07-12T14:38:22Z</time>
      </trkpt>
      <trkpt lat="45.46779" lon="5.09366">
        <ele>360</ele>
        <time>2022-07-12T14:38:38Z</time>
      </trkpt>
      <trkpt lat="45.46783" lon="5.09416">
        <ele>360</ele>
        <time>2022-07-12T14:38:44Z</time>
      </trkpt>
      <trkpt lat="45.4678" lon="5.09483">
        <ele>362</ele>
        <time>2022-07-12T14:38:53Z</time>
      </trkpt>
      <trkpt lat="45.4675" lon="5.09696">
        <ele>369</ele>
        <time>2022-07-12T14:39:20Z</time>
      </trkpt>
      <trkpt lat="45.46739" lon="5.09784">
        <ele>370</ele>
        <time>2022-07-12T14:39:31Z</time>
      </trkpt>
      <trkpt lat="45.46704" lon="5.09902">
        <ele>377</ele>
        <time>2022-07-12T14:39:47Z</time>
      </trkpt>
      <trkpt lat="45.46679" lon="5.09976">
        <ele>380</ele>
        <time>2022-07-12T14:39:57Z</time>
      </trkpt>
      <trkpt lat="45.46671" lon="5.10081">
        <ele>376</ele>
        <time>2022-07-12T14:40:10Z</time>
      </trkpt>
      <trkpt lat="45.46691" lon="5.10338">
        <ele>367</ele>
        <time>2022-07-12T14:40:43Z</time>
      </trkpt>
      <trkpt lat="45.46716" lon="5.10728">
        <ele>371</ele>
        <time>2022-07-12T14:41:32Z</time>
      </trkpt>
      <trkpt lat="45.46741" lon="5.10775">
        <ele>371</ele>
        <time>2022-07-12T14:41:39Z</time>
      </trkpt>
      <trkpt lat="45.46754" lon="5.10798">
        <ele>372</ele>
        <time>2022-07-12T14:41:43Z</time>
      </trkpt>
      <trkpt lat="45.46808" lon="5.109">
        <ele>382</ele>
        <time>2022-07-12T14:41:59Z</time>
      </trkpt>
      <trkpt lat="45.4681" lon="5.11004">
        <ele>385</ele>
        <time>2022-07-12T14:42:11Z</time>
      </trkpt>
      <trkpt lat="45.46859" lon="5.11318">
        <ele>393</ele>
        <time>2022-07-12T14:42:52Z</time>
      </trkpt>
      <trkpt lat="45.46847" lon="5.1141">
        <ele>393</ele>
        <time>2022-07-12T14:43:03Z</time>
      </trkpt>
      <trkpt lat="45.46826" lon="5.11518">
        <ele>398</ele>
        <time>2022-07-12T14:43:17Z</time>
      </trkpt>
      <trkpt lat="45.4682" lon="5.11573">
        <ele>400</ele>
        <time>2022-07-12T14:43:24Z</time>
      </trkpt>
      <trkpt lat="45.46831" lon="5.11608">
        <ele>403</ele>
        <time>2022-07-12T14:43:29Z</time>
      </trkpt>
      <trkpt lat="45.46861" lon="5.11668">
        <ele>406</ele>
        <time>2022-07-12T14:43:38Z</time>
      </trkpt>
      <trkpt lat="45.46909" lon="5.11863">
        <ele>414</ele>
        <time>2022-07-12T14:44:04Z</time>
      </trkpt>
      <trkpt lat="45.46897" lon="5.11881">
        <ele>415</ele>
        <time>2022-07-12T14:44:07Z</time>
      </trkpt>
      <trkpt lat="45.46883" lon="5.11895">
        <ele>416</ele>
        <time>2022-07-12T14:44:10Z</time>
      </trkpt>
      <trkpt lat="45.46812" lon="5.11888">
        <ele>415</ele>
        <time>2022-07-12T14:44:23Z</time>
      </trkpt>
      <trkpt lat="45.46782" lon="5.119">
        <ele>414</ele>
        <time>2022-07-12T14:44:28Z</time>
      </trkpt>
      <trkpt lat="45.46762" lon="5.11924">
        <ele>415</ele>
        <time>2022-07-12T14:44:33Z</time>
      </trkpt>
      <trkpt lat="45.46683" lon="5.1203">
        <ele>417</ele>
        <time>2022-07-12T14:44:52Z</time>
      </trkpt>
      <trkpt lat="45.46615" lon="5.12145">
        <ele>420</ele>
        <time>2022-07-12T14:45:11Z</time>
      </trkpt>
      <trkpt lat="45.46345" lon="5.12724">
        <ele>424</ele>
        <time>2022-07-12T14:46:38Z</time>
      </trkpt>
      <trkpt lat="45.4633" lon="5.12778">
        <ele>425</ele>
        <time>2022-07-12T14:46:45Z</time>
      </trkpt>
      <trkpt lat="45.46329" lon="5.12836">
        <ele>428</ele>
        <time>2022-07-12T14:46:52Z</time>
      </trkpt>
      <trkpt lat="45.4633" lon="5.12907">
        <ele>427</ele>
        <time>2022-07-12T14:47:01Z</time>
      </trkpt>
      <trkpt lat="45.46294" lon="5.1298">
        <ele>424</ele>
        <time>2022-07-12T14:47:12Z</time>
      </trkpt>
      <trkpt lat="45.46284" lon="5.13109">
        <ele>430</ele>
        <time>2022-07-12T14:47:29Z</time>
      </trkpt>
      <trkpt lat="45.46251" lon="5.13248">
        <ele>431</ele>
        <time>2022-07-12T14:47:47Z</time>
      </trkpt>
      <trkpt lat="45.46028" lon="5.13694">
        <ele>425</ele>
        <time>2022-07-12T14:48:55Z</time>
      </trkpt>
      <trkpt lat="45.4582" lon="5.14135">
        <ele>424</ele>
        <time>2022-07-12T14:50:02Z</time>
      </trkpt>
      <trkpt lat="45.45794" lon="5.14164">
        <ele>424</ele>
        <time>2022-07-12T14:50:07Z</time>
      </trkpt>
      <trkpt lat="45.4578" lon="5.14169">
        <ele>424</ele>
        <time>2022-07-12T14:50:10Z</time>
      </trkpt>
      <trkpt lat="45.45763" lon="5.1417">
        <ele>423</ele>
        <time>2022-07-12T14:50:13Z</time>
      </trkpt>
      <trkpt lat="45.45744" lon="5.1417">
        <ele>423</ele>
        <time>2022-07-12T14:50:16Z</time>
      </trkpt>
      <trkpt lat="45.45731" lon="5.1417">
        <ele>425</ele>
        <time>2022-07-12T14:50:19Z</time>
      </trkpt>
      <trkpt lat="45.45701" lon="5.14182">
        <ele>430</ele>
        <time>2022-07-12T14:50:24Z</time>
      </trkpt>
      <trkpt lat="45.45679" lon="5.14214">
        <ele>430</ele>
        <time>2022-07-12T14:50:30Z</time>
      </trkpt>
      <trkpt lat="45.45652" lon="5.14262">
        <ele>430</ele>
        <time>2022-07-12T14:50:37Z</time>
      </trkpt>
      <trkpt lat="45.45539" lon="5.14484">
        <ele>446</ele>
        <time>2022-07-12T14:51:12Z</time>
      </trkpt>
      <trkpt lat="45.45399" lon="5.14749">
        <ele>445</ele>
        <time>2022-07-12T14:51:53Z</time>
      </trkpt>
      <trkpt lat="45.45351" lon="5.14954">
        <ele>453</ele>
        <time>2022-07-12T14:52:20Z</time>
      </trkpt>
      <trkpt lat="45.45348" lon="5.15005">
        <ele>456</ele>
        <time>2022-07-12T14:52:26Z</time>
      </trkpt>
      <trkpt lat="45.45351" lon="5.15042">
        <ele>456</ele>
        <time>2022-07-12T14:52:31Z</time>
      </trkpt>
      <trkpt lat="45.45352" lon="5.1508">
        <ele>457</ele>
        <time>2022-07-12T14:52:36Z</time>
      </trkpt>
      <trkpt lat="45.45344" lon="5.15104">
        <ele>458</ele>
        <time>2022-07-12T14:52:39Z</time>
      </trkpt>
      <trkpt lat="45.45327" lon="5.15121">
        <ele>459</ele>
        <time>2022-07-12T14:52:43Z</time>
      </trkpt>
      <trkpt lat="45.45301" lon="5.15138">
        <ele>463</ele>
        <time>2022-07-12T14:52:48Z</time>
      </trkpt>
      <trkpt lat="45.45283" lon="5.15177">
        <ele>466</ele>
        <time>2022-07-12T14:52:54Z</time>
      </trkpt>
      <trkpt lat="45.45255" lon="5.15282">
        <ele>476</ele>
        <time>2022-07-12T14:53:08Z</time>
      </trkpt>
      <trkpt lat="45.45229" lon="5.15402">
        <ele>482</ele>
        <time>2022-07-12T14:53:24Z</time>
      </trkpt>
      <trkpt lat="45.45193" lon="5.1551">
        <ele>486</ele>
        <time>2022-07-12T14:53:38Z</time>
      </trkpt>
      <trkpt lat="45.45134" lon="5.15574">
        <ele>488</ele>
        <time>2022-07-12T14:53:52Z</time>
      </trkpt>
      <trkpt lat="45.45054" lon="5.15643">
        <ele>490</ele>
        <time>2022-07-12T14:54:08Z</time>
      </trkpt>
      <trkpt lat="45.4496" lon="5.15834">
        <ele>494</ele>
        <time>2022-07-12T14:54:37Z</time>
      </trkpt>
      <trkpt lat="45.44916" lon="5.15928">
        <ele>496</ele>
        <time>2022-07-12T14:54:51Z</time>
      </trkpt>
      <trkpt lat="45.44908" lon="5.16065">
        <ele>493</ele>
        <time>2022-07-12T14:55:09Z</time>
      </trkpt>
      <trkpt lat="45.44906" lon="5.16073">
        <ele>493</ele>
        <time>2022-07-12T14:55:10Z</time>
      </trkpt>
      <trkpt lat="45.449" lon="5.16097">
        <ele>493</ele>
        <time>2022-07-12T14:55:13Z</time>
      </trkpt>
      <trkpt lat="45.44877" lon="5.16147">
        <ele>496</ele>
        <time>2022-07-12T14:55:20Z</time>
      </trkpt>
      <trkpt lat="45.44845" lon="5.16208">
        <ele>500</ele>
        <time>2022-07-12T14:55:30Z</time>
      </trkpt>
      <trkpt lat="45.44822" lon="5.16269">
        <ele>501</ele>
        <time>2022-07-12T14:55:39Z</time>
      </trkpt>
      <trkpt lat="45.44788" lon="5.16335">
        <ele>503</ele>
        <time>2022-07-12T14:55:49Z</time>
      </trkpt>
      <trkpt lat="45.44758" lon="5.16368">
        <ele>505</ele>
        <time>2022-07-12T14:55:55Z</time>
      </trkpt>
      <trkpt lat="45.44738" lon="5.16408">
        <ele>505</ele>
        <time>2022-07-12T14:56:02Z</time>
      </trkpt>
      <trkpt lat="45.4473" lon="5.16485">
        <ele>503</ele>
        <time>2022-07-12T14:56:11Z</time>
      </trkpt>
      <trkpt lat="45.44717" lon="5.16556">
        <ele>499</ele>
        <time>2022-07-12T14:56:20Z</time>
      </trkpt>
      <trkpt lat="45.44714" lon="5.16679">
        <ele>496</ele>
        <time>2022-07-12T14:56:36Z</time>
      </trkpt>
      <trkpt lat="45.44709" lon="5.16734">
        <ele>498</ele>
        <time>2022-07-12T14:56:43Z</time>
      </trkpt>
      <trkpt lat="45.44705" lon="5.16786">
        <ele>496</ele>
        <time>2022-07-12T14:56:49Z</time>
      </trkpt>
      <trkpt lat="45.44683" lon="5.16913">
        <ele>501</ele>
        <time>2022-07-12T14:57:06Z</time>
      </trkpt>
      <trkpt lat="45.44682" lon="5.17023">
        <ele>503</ele>
        <time>2022-07-12T14:57:19Z</time>
      </trkpt>
      <trkpt lat="45.4467" lon="5.17091">
        <ele>501</ele>
        <time>2022-07-12T14:57:28Z</time>
      </trkpt>
      <trkpt lat="45.44665" lon="5.17131">
        <ele>501</ele>
        <time>2022-07-12T14:57:33Z</time>
      </trkpt>
      <trkpt lat="45.44671" lon="5.17221">
        <ele>496</ele>
        <time>2022-07-12T14:57:44Z</time>
      </trkpt>
      <trkpt lat="45.44677" lon="5.17294">
        <ele>494</ele>
        <time>2022-07-12T14:57:54Z</time>
      </trkpt>
      <trkpt lat="45.44682" lon="5.17326">
        <ele>494</ele>
        <time>2022-07-12T14:57:58Z</time>
      </trkpt>
      <trkpt lat="45.44699" lon="5.17368">
        <ele>494</ele>
        <time>2022-07-12T14:58:04Z</time>
      </trkpt>
      <trkpt lat="45.4471" lon="5.17394">
        <ele>493</ele>
        <time>2022-07-12T14:58:08Z</time>
      </trkpt>
      <trkpt lat="45.44716" lon="5.17416">
        <ele>493</ele>
        <time>2022-07-12T14:58:11Z</time>
      </trkpt>
      <trkpt lat="45.4472" lon="5.17446">
        <ele>494</ele>
        <time>2022-07-12T14:58:14Z</time>
      </trkpt>
      <trkpt lat="45.44719" lon="5.17478">
        <ele>494</ele>
        <time>2022-07-12T14:58:18Z</time>
      </trkpt>
      <trkpt lat="45.44715" lon="5.17509">
        <ele>496</ele>
        <time>2022-07-12T14:58:22Z</time>
      </trkpt>
      <trkpt lat="45.44707" lon="5.1754">
        <ele>497</ele>
        <time>2022-07-12T14:58:26Z</time>
      </trkpt>
      <trkpt lat="45.44697" lon="5.17565">
        <ele>498</ele>
        <time>2022-07-12T14:58:30Z</time>
      </trkpt>
      <trkpt lat="45.44684" lon="5.17588">
        <ele>501</ele>
        <time>2022-07-12T14:58:34Z</time>
      </trkpt>
      <trkpt lat="45.44669" lon="5.17604">
        <ele>503</ele>
        <time>2022-07-12T14:58:37Z</time>
      </trkpt>
      <trkpt lat="45.44646" lon="5.1761">
        <ele>505</ele>
        <time>2022-07-12T14:58:41Z</time>
      </trkpt>
      <trkpt lat="45.44598" lon="5.17606">
        <ele>508</ele>
        <time>2022-07-12T14:58:50Z</time>
      </trkpt>
      <trkpt lat="45.44582" lon="5.17611">
        <ele>509</ele>
        <time>2022-07-12T14:58:53Z</time>
      </trkpt>
      <trkpt lat="45.44545" lon="5.17644">
        <ele>511</ele>
        <time>2022-07-12T14:59:00Z</time>
      </trkpt>
      <trkpt lat="45.4451" lon="5.17689">
        <ele>512</ele>
        <time>2022-07-12T14:59:09Z</time>
      </trkpt>
      <trkpt lat="45.44497" lon="5.17699">
        <ele>513</ele>
        <time>2022-07-12T14:59:11Z</time>
      </trkpt>
      <trkpt lat="45.4448" lon="5.17702">
        <ele>514</ele>
        <time>2022-07-12T14:59:14Z</time>
      </trkpt>
      <trkpt lat="45.44453" lon="5.17691">
        <ele>516</ele>
        <time>2022-07-12T14:59:19Z</time>
      </trkpt>
      <trkpt lat="45.44435" lon="5.17692">
        <ele>518</ele>
        <time>2022-07-12T14:59:23Z</time>
      </trkpt>
      <trkpt lat="45.44419" lon="5.177">
        <ele>519</ele>
        <time>2022-07-12T14:59:26Z</time>
      </trkpt>
      <trkpt lat="45.4435" lon="5.17758">
        <ele>527</ele>
        <time>2022-07-12T14:59:40Z</time>
      </trkpt>
      <trkpt lat="45.44314" lon="5.17781">
        <ele>532</ele>
        <time>2022-07-12T14:59:47Z</time>
      </trkpt>
      <trkpt lat="45.44283" lon="5.17808">
        <ele>536</ele>
        <time>2022-07-12T14:59:53Z</time>
      </trkpt>
      <trkpt lat="45.44233" lon="5.17822">
        <ele>539</ele>
        <time>2022-07-12T15:00:02Z</time>
      </trkpt>
      <trkpt lat="45.44192" lon="5.17849">
        <ele>542</ele>
        <time>2022-07-12T15:00:11Z</time>
      </trkpt>
      <trkpt lat="45.44159" lon="5.17877">
        <ele>544</ele>
        <time>2022-07-12T15:00:17Z</time>
      </trkpt>
      <trkpt lat="45.44102" lon="5.17904">
        <ele>543</ele>
        <time>2022-07-12T15:00:28Z</time>
      </trkpt>
      <trkpt lat="45.44086" lon="5.17933">
        <ele>543</ele>
        <time>2022-07-12T15:00:33Z</time>
      </trkpt>
      <trkpt lat="45.44081" lon="5.17952">
        <ele>543</ele>
        <time>2022-07-12T15:00:35Z</time>
      </trkpt>
      <trkpt lat="45.44084" lon="5.18021">
        <ele>547</ele>
        <time>2022-07-12T15:00:44Z</time>
      </trkpt>
      <trkpt lat="45.4408" lon="5.18054">
        <ele>549</ele>
        <time>2022-07-12T15:00:48Z</time>
      </trkpt>
      <trkpt lat="45.4402" lon="5.18156">
        <ele>551</ele>
        <time>2022-07-12T15:01:05Z</time>
      </trkpt>
      <trkpt lat="45.4388" lon="5.18356">
        <ele>547</ele>
        <time>2022-07-12T15:01:40Z</time>
      </trkpt>
      <trkpt lat="45.43859" lon="5.18393">
        <ele>545</ele>
        <time>2022-07-12T15:01:46Z</time>
      </trkpt>
      <trkpt lat="45.43823" lon="5.18415">
        <ele>541</ele>
        <time>2022-07-12T15:01:53Z</time>
      </trkpt>
      <trkpt lat="45.43811" lon="5.18418">
        <ele>540</ele>
        <time>2022-07-12T15:01:55Z</time>
      </trkpt>
      <trkpt lat="45.43774" lon="5.18397">
        <ele>537</ele>
        <time>2022-07-12T15:02:02Z</time>
      </trkpt>
      <trkpt lat="45.43745" lon="5.18384">
        <ele>535</ele>
        <time>2022-07-12T15:02:07Z</time>
      </trkpt>
      <trkpt lat="45.43729" lon="5.18382">
        <ele>535</ele>
        <time>2022-07-12T15:02:10Z</time>
      </trkpt>
      <trkpt lat="45.43608" lon="5.18468">
        <ele>526</ele>
        <time>2022-07-12T15:02:34Z</time>
      </trkpt>
      <trkpt lat="45.43568" lon="5.18482">
        <ele>523</ele>
        <time>2022-07-12T15:02:42Z</time>
      </trkpt>
      <trkpt lat="45.43528" lon="5.1852">
        <ele>517</ele>
        <time>2022-07-12T15:02:50Z</time>
      </trkpt>
      <trkpt lat="45.43488" lon="5.18539">
        <ele>513</ele>
        <time>2022-07-12T15:02:58Z</time>
      </trkpt>
      <trkpt lat="45.43432" lon="5.18548">
        <ele>507</ele>
        <time>2022-07-12T15:03:08Z</time>
      </trkpt>
      <trkpt lat="45.43406" lon="5.18542">
        <ele>504</ele>
        <time>2022-07-12T15:03:12Z</time>
      </trkpt>
      <trkpt lat="45.43343" lon="5.18515">
        <ele>492</ele>
        <time>2022-07-12T15:03:24Z</time>
      </trkpt>
      <trkpt lat="45.43339" lon="5.18501">
        <ele>493</ele>
        <time>2022-07-12T15:03:26Z</time>
      </trkpt>
      <trkpt lat="45.43338" lon="5.1846">
        <ele>493</ele>
        <time>2022-07-12T15:03:31Z</time>
      </trkpt>
      <trkpt lat="45.43345" lon="5.18416">
        <ele>496</ele>
        <time>2022-07-12T15:03:37Z</time>
      </trkpt>
      <trkpt lat="45.43359" lon="5.18369">
        <ele>505</ele>
        <time>2022-07-12T15:03:43Z</time>
      </trkpt>
      <trkpt lat="45.4336" lon="5.18355">
        <ele>506</ele>
        <time>2022-07-12T15:03:45Z</time>
      </trkpt>
      <trkpt lat="45.43356" lon="5.18348">
        <ele>506</ele>
        <time>2022-07-12T15:03:46Z</time>
      </trkpt>
      <trkpt lat="45.43338" lon="5.18356">
        <ele>502</ele>
        <time>2022-07-12T15:03:49Z</time>
      </trkpt>
      <trkpt lat="45.43323" lon="5.18365">
        <ele>499</ele>
        <time>2022-07-12T15:03:52Z</time>
      </trkpt>
      <trkpt lat="45.43223" lon="5.18481">
        <ele>479</ele>
        <time>2022-07-12T15:04:15Z</time>
      </trkpt>
      <trkpt lat="45.43207" lon="5.18489">
        <ele>479</ele>
        <time>2022-07-12T15:04:18Z</time>
      </trkpt>
      <trkpt lat="45.43191" lon="5.18491">
        <ele>479</ele>
        <time>2022-07-12T15:04:21Z</time>
      </trkpt>
      <trkpt lat="45.43168" lon="5.18504">
        <ele>477</ele>
        <time>2022-07-12T15:04:26Z</time>
      </trkpt>
      <trkpt lat="45.43106" lon="5.18523">
        <ele>472</ele>
        <time>2022-07-12T15:04:37Z</time>
      </trkpt>
      <trkpt lat="45.43048" lon="5.18519">
        <ele>468</ele>
        <time>2022-07-12T15:04:47Z</time>
      </trkpt>
      <trkpt lat="45.43014" lon="5.18499">
        <ele>467</ele>
        <time>2022-07-12T15:04:54Z</time>
      </trkpt>
      <trkpt lat="45.43" lon="5.18486">
        <ele>468</ele>
        <time>2022-07-12T15:04:57Z</time>
      </trkpt>
      <trkpt lat="45.42917" lon="5.18423">
        <ele>456</ele>
        <time>2022-07-12T15:05:13Z</time>
      </trkpt>
      <trkpt lat="45.42848" lon="5.1838">
        <ele>446</ele>
        <time>2022-07-12T15:05:27Z</time>
      </trkpt>
      <trkpt lat="45.42788" lon="5.18287">
        <ele>439</ele>
        <time>2022-07-12T15:05:43Z</time>
      </trkpt>
      <trkpt lat="45.42737" lon="5.18219">
        <ele>429</ele>
        <time>2022-07-12T15:05:55Z</time>
      </trkpt>
      <trkpt lat="45.42695" lon="5.18187">
        <ele>426</ele>
        <time>2022-07-12T15:06:03Z</time>
      </trkpt>
      <trkpt lat="45.42676" lon="5.18166">
        <ele>424</ele>
        <time>2022-07-12T15:06:08Z</time>
      </trkpt>
      <trkpt lat="45.42662" lon="5.18139">
        <ele>424</ele>
        <time>2022-07-12T15:06:12Z</time>
      </trkpt>
      <trkpt lat="45.42644" lon="5.18091">
        <ele>423</ele>
        <time>2022-07-12T15:06:19Z</time>
      </trkpt>
      <trkpt lat="45.42638" lon="5.18089">
        <ele>423</ele>
        <time>2022-07-12T15:06:20Z</time>
      </trkpt>
      <trkpt lat="45.42632" lon="5.18092">
        <ele>422</ele>
        <time>2022-07-12T15:06:21Z</time>
      </trkpt>
      <trkpt lat="45.42671" lon="5.18225">
        <ele>419</ele>
        <time>2022-07-12T15:06:39Z</time>
      </trkpt>
      <trkpt lat="45.42698" lon="5.18308">
        <ele>418</ele>
        <time>2022-07-12T15:06:50Z</time>
      </trkpt>
      <trkpt lat="45.42709" lon="5.18343">
        <ele>418</ele>
        <time>2022-07-12T15:06:55Z</time>
      </trkpt>
      <trkpt lat="45.42763" lon="5.18484">
        <ele>420</ele>
        <time>2022-07-12T15:07:15Z</time>
      </trkpt>
      <trkpt lat="45.42793" lon="5.18627">
        <ele>421</ele>
        <time>2022-07-12T15:07:34Z</time>
      </trkpt>
      <trkpt lat="45.42819" lon="5.18748">
        <ele>423</ele>
        <time>2022-07-12T15:07:50Z</time>
      </trkpt>
      <trkpt lat="45.42858" lon="5.18878">
        <ele>424</ele>
        <time>2022-07-12T15:08:07Z</time>
      </trkpt>
      <trkpt lat="45.42901" lon="5.18993">
        <ele>423</ele>
        <time>2022-07-12T15:08:24Z</time>
      </trkpt>
      <trkpt lat="45.42959" lon="5.19084">
        <ele>423</ele>
        <time>2022-07-12T15:08:39Z</time>
      </trkpt>
      <trkpt lat="45.42966" lon="5.19101">
        <ele>423</ele>
        <time>2022-07-12T15:08:41Z</time>
      </trkpt>
      <trkpt lat="45.43133" lon="5.1959">
        <ele>433</ele>
        <time>2022-07-12T15:09:49Z</time>
      </trkpt>
      <trkpt lat="45.43164" lon="5.19634">
        <ele>435</ele>
        <time>2022-07-12T15:09:57Z</time>
      </trkpt>
      <trkpt lat="45.43169" lon="5.1966">
        <ele>435</ele>
        <time>2022-07-12T15:10:00Z</time>
      </trkpt>
      <trkpt lat="45.43178" lon="5.19723">
        <ele>436</ele>
        <time>2022-07-12T15:10:09Z</time>
      </trkpt>
      <trkpt lat="45.43199" lon="5.1978">
        <ele>439</ele>
        <time>2022-07-12T15:10:17Z</time>
      </trkpt>
      <trkpt lat="45.43208" lon="5.1983">
        <ele>440</ele>
        <time>2022-07-12T15:10:23Z</time>
      </trkpt>
      <trkpt lat="45.43208" lon="5.19886">
        <ele>443</ele>
        <time>2022-07-12T15:10:30Z</time>
      </trkpt>
      <trkpt lat="45.43198" lon="5.19928">
        <ele>445</ele>
        <time>2022-07-12T15:10:36Z</time>
      </trkpt>
      <trkpt lat="45.43169" lon="5.20037">
        <ele>449</ele>
        <time>2022-07-12T15:10:50Z</time>
      </trkpt>
      <trkpt lat="45.43151" lon="5.20118">
        <ele>448</ele>
        <time>2022-07-12T15:11:01Z</time>
      </trkpt>
      <trkpt lat="45.43137" lon="5.202">
        <ele>450</ele>
        <time>2022-07-12T15:11:11Z</time>
      </trkpt>
      <trkpt lat="45.43134" lon="5.2023">
        <ele>450</ele>
        <time>2022-07-12T15:11:15Z</time>
      </trkpt>
      <trkpt lat="45.43134" lon="5.2029">
        <ele>451</ele>
        <time>2022-07-12T15:11:23Z</time>
      </trkpt>
      <trkpt lat="45.43138" lon="5.20354">
        <ele>450</ele>
        <time>2022-07-12T15:11:31Z</time>
      </trkpt>
      <trkpt lat="45.4314" lon="5.20365">
        <ele>450</ele>
        <time>2022-07-12T15:11:32Z</time>
      </trkpt>
      <trkpt lat="45.43146" lon="5.2037">
        <ele>451</ele>
        <time>2022-07-12T15:11:33Z</time>
      </trkpt>
      <trkpt lat="45.4315" lon="5.20371">
        <ele>452</ele>
        <time>2022-07-12T15:11:34Z</time>
      </trkpt>
      <trkpt lat="45.43149" lon="5.2043">
        <ele>450</ele>
        <time>2022-07-12T15:11:41Z</time>
      </trkpt>
      <trkpt lat="45.43159" lon="5.20751">
        <ele>446</ele>
        <time>2022-07-12T15:12:21Z</time>
      </trkpt>
      <trkpt lat="45.43162" lon="5.20923">
        <ele>440</ele>
        <time>2022-07-12T15:12:43Z</time>
      </trkpt>
      <trkpt lat="45.43157" lon="5.20968">
        <ele>439</ele>
        <time>2022-07-12T15:12:49Z</time>
      </trkpt>
      <trkpt lat="45.43156" lon="5.20991">
        <ele>439</ele>
        <time>2022-07-12T15:12:51Z</time>
      </trkpt>
      <trkpt lat="45.43154" lon="5.21001">
        <ele>438</ele>
        <time>2022-07-12T15:12:53Z</time>
      </trkpt>
      <trkpt lat="45.43148" lon="5.21011">
        <ele>438</ele>
        <time>2022-07-12T15:12:54Z</time>
      </trkpt>
      <trkpt lat="45.43141" lon="5.21015">
        <ele>437</ele>
        <time>2022-07-12T15:12:56Z</time>
      </trkpt>
      <trkpt lat="45.43135" lon="5.21023">
        <ele>436</ele>
        <time>2022-07-12T15:12:57Z</time>
      </trkpt>
      <trkpt lat="45.43133" lon="5.21034">
        <ele>436</ele>
        <time>2022-07-12T15:12:59Z</time>
      </trkpt>
      <trkpt lat="45.43134" lon="5.21045">
        <ele>436</ele>
        <time>2022-07-12T15:13:00Z</time>
      </trkpt>
      <trkpt lat="45.43138" lon="5.21053">
        <ele>437</ele>
        <time>2022-07-12T15:13:01Z</time>
      </trkpt>
      <trkpt lat="45.43144" lon="5.21058">
        <ele>438</ele>
        <time>2022-07-12T15:13:02Z</time>
      </trkpt>
      <trkpt lat="45.43151" lon="5.21059">
        <ele>439</ele>
        <time>2022-07-12T15:13:04Z</time>
      </trkpt>
      <trkpt lat="45.43157" lon="5.21057">
        <ele>440</ele>
        <time>2022-07-12T15:13:05Z</time>
      </trkpt>
      <trkpt lat="45.43165" lon="5.21068">
        <ele>441</ele>
        <time>2022-07-12T15:13:07Z</time>
      </trkpt>
      <trkpt lat="45.43174" lon="5.21088">
        <ele>442</ele>
        <time>2022-07-12T15:13:10Z</time>
      </trkpt>
      <trkpt lat="45.43174" lon="5.21113">
        <ele>442</ele>
        <time>2022-07-12T15:13:13Z</time>
      </trkpt>
      <trkpt lat="45.43172" lon="5.21145">
        <ele>442</ele>
        <time>2022-07-12T15:13:17Z</time>
      </trkpt>
      <trkpt lat="45.43164" lon="5.21233">
        <ele>442</ele>
        <time>2022-07-12T15:13:28Z</time>
      </trkpt>
      <trkpt lat="45.43153" lon="5.2132">
        <ele>443</ele>
        <time>2022-07-12T15:13:39Z</time>
      </trkpt>
      <trkpt lat="45.43132" lon="5.2145">
        <ele>441</ele>
        <time>2022-07-12T15:13:56Z</time>
      </trkpt>
      <trkpt lat="45.43123" lon="5.21479">
        <ele>440</ele>
        <time>2022-07-12T15:14:00Z</time>
      </trkpt>
      <trkpt lat="45.4306" lon="5.21657">
        <ele>436</ele>
        <time>2022-07-12T15:14:25Z</time>
      </trkpt>
      <trkpt lat="45.42879" lon="5.22198">
        <ele>442</ele>
        <time>2022-07-12T15:15:39Z</time>
      </trkpt>
      <trkpt lat="45.42875" lon="5.22215">
        <ele>442</ele>
        <time>2022-07-12T15:15:42Z</time>
      </trkpt>
      <trkpt lat="45.42847" lon="5.22336">
        <ele>443</ele>
        <time>2022-07-12T15:15:58Z</time>
      </trkpt>
      <trkpt lat="45.42844" lon="5.22368">
        <ele>444</ele>
        <time>2022-07-12T15:16:02Z</time>
      </trkpt>
      <trkpt lat="45.42835" lon="5.22483">
        <ele>445</ele>
        <time>2022-07-12T15:16:16Z</time>
      </trkpt>
      <trkpt lat="45.4284" lon="5.22557">
        <ele>444</ele>
        <time>2022-07-12T15:16:25Z</time>
      </trkpt>
      <trkpt lat="45.42836" lon="5.22561">
        <ele>444</ele>
        <time>2022-07-12T15:16:26Z</time>
      </trkpt>
      <trkpt lat="45.42822" lon="5.22565">
        <ele>444</ele>
        <time>2022-07-12T15:16:29Z</time>
      </trkpt>
      <trkpt lat="45.42836" lon="5.22561">
        <ele>444</ele>
        <time>2022-07-12T15:16:31Z</time>
      </trkpt>
      <trkpt lat="45.4284" lon="5.22557">
        <ele>444</ele>
        <time>2022-07-12T15:16:32Z</time>
      </trkpt>
      <trkpt lat="45.42848" lon="5.22656">
        <ele>443</ele>
        <time>2022-07-12T15:16:45Z</time>
      </trkpt>
      <trkpt lat="45.4286" lon="5.2294">
        <ele>437</ele>
        <time>2022-07-12T15:17:20Z</time>
      </trkpt>
      <trkpt lat="45.42878" lon="5.23124">
        <ele>437</ele>
        <time>2022-07-12T15:17:43Z</time>
      </trkpt>
      <trkpt lat="45.42968" lon="5.24148">
        <ele>440</ele>
        <time>2022-07-12T15:19:52Z</time>
      </trkpt>
      <trkpt lat="45.42991" lon="5.24438">
        <ele>445</ele>
        <time>2022-07-12T15:20:29Z</time>
      </trkpt>
      <trkpt lat="45.43047" lon="5.25044">
        <ele>439</ele>
        <time>2022-07-12T15:21:45Z</time>
      </trkpt>
      <trkpt lat="45.43064" lon="5.25129">
        <ele>439</ele>
        <time>2022-07-12T15:21:56Z</time>
      </trkpt>
      <trkpt lat="45.432" lon="5.25784">
        <ele>441</ele>
        <time>2022-07-12T15:23:21Z</time>
      </trkpt>
      <trkpt lat="45.43269" lon="5.26107">
        <ele>445</ele>
        <time>2022-07-12T15:24:03Z</time>
      </trkpt>
      <trkpt lat="45.43381" lon="5.26665">
        <ele>456</ele>
        <time>2022-07-12T15:25:16Z</time>
      </trkpt>
      <trkpt lat="45.43461" lon="5.27043">
        <ele>463</ele>
        <time>2022-07-12T15:26:05Z</time>
      </trkpt>
      <trkpt lat="45.43468" lon="5.27072">
        <ele>463</ele>
        <time>2022-07-12T15:26:09Z</time>
      </trkpt>
      <trkpt lat="45.43477" lon="5.27138">
        <ele>461</ele>
        <time>2022-07-12T15:26:17Z</time>
      </trkpt>
      <trkpt lat="45.43484" lon="5.27265">
        <ele>460</ele>
        <time>2022-07-12T15:26:33Z</time>
      </trkpt>
      <trkpt lat="45.43488" lon="5.27303">
        <ele>459</ele>
        <time>2022-07-12T15:26:38Z</time>
      </trkpt>
      <trkpt lat="45.43498" lon="5.27359">
        <ele>459</ele>
        <time>2022-07-12T15:26:45Z</time>
      </trkpt>
      <trkpt lat="45.43516" lon="5.27447">
        <ele>460</ele>
        <time>2022-07-12T15:26:57Z</time>
      </trkpt>
      <trkpt lat="45.43562" lon="5.27638">
        <ele>464</ele>
        <time>2022-07-12T15:27:22Z</time>
      </trkpt>
      <trkpt lat="45.43628" lon="5.2795">
        <ele>467</ele>
        <time>2022-07-12T15:28:03Z</time>
      </trkpt>
      <trkpt lat="45.43711" lon="5.28321">
        <ele>467</ele>
        <time>2022-07-12T15:28:51Z</time>
      </trkpt>
      <trkpt lat="45.43733" lon="5.28444">
        <ele>472</ele>
        <time>2022-07-12T15:29:07Z</time>
      </trkpt>
      <trkpt lat="45.43736" lon="5.28481">
        <ele>474</ele>
        <time>2022-07-12T15:29:12Z</time>
      </trkpt>
      <trkpt lat="45.43758" lon="5.2857">
        <ele>478</ele>
        <time>2022-07-12T15:29:24Z</time>
      </trkpt>
      <trkpt lat="45.43759" lon="5.28583">
        <ele>478</ele>
        <time>2022-07-12T15:29:25Z</time>
      </trkpt>
      <trkpt lat="45.43756" lon="5.28596">
        <ele>478</ele>
        <time>2022-07-12T15:29:27Z</time>
      </trkpt>
      <trkpt lat="45.4375" lon="5.286">
        <ele>477</ele>
        <time>2022-07-12T15:29:28Z</time>
      </trkpt>
      <trkpt lat="45.43745" lon="5.28605">
        <ele>476</ele>
        <time>2022-07-12T15:29:29Z</time>
      </trkpt>
      <trkpt lat="45.4374" lon="5.28616">
        <ele>476</ele>
        <time>2022-07-12T15:29:31Z</time>
      </trkpt>
      <trkpt lat="45.43739" lon="5.28629">
        <ele>475</ele>
        <time>2022-07-12T15:29:32Z</time>
      </trkpt>
      <trkpt lat="45.43741" lon="5.28639">
        <ele>475</ele>
        <time>2022-07-12T15:29:34Z</time>
      </trkpt>
      <trkpt lat="45.43745" lon="5.28648">
        <ele>475</ele>
        <time>2022-07-12T15:29:35Z</time>
      </trkpt>
      <trkpt lat="45.43746" lon="5.28667">
        <ele>475</ele>
        <time>2022-07-12T15:29:37Z</time>
      </trkpt>
      <trkpt lat="45.43743" lon="5.28715">
        <ele>475</ele>
        <time>2022-07-12T15:29:43Z</time>
      </trkpt>
      <trkpt lat="45.43743" lon="5.28752">
        <ele>475</ele>
        <time>2022-07-12T15:29:48Z</time>
      </trkpt>
      <trkpt lat="45.43748" lon="5.28842">
        <ele>475</ele>
        <time>2022-07-12T15:29:59Z</time>
      </trkpt>
      <trkpt lat="45.43668" lon="5.2972">
        <ele>473</ele>
        <time>2022-07-12T15:31:50Z</time>
      </trkpt>
      <trkpt lat="45.43663" lon="5.29762">
        <ele>474</ele>
        <time>2022-07-12T15:31:55Z</time>
      </trkpt>
      <trkpt lat="45.43653" lon="5.29794">
        <ele>475</ele>
        <time>2022-07-12T15:32:00Z</time>
      </trkpt>
      <trkpt lat="45.43629" lon="5.29838">
        <ele>475</ele>
        <time>2022-07-12T15:32:06Z</time>
      </trkpt>
      <trkpt lat="45.43627" lon="5.29858">
        <ele>475</ele>
        <time>2022-07-12T15:32:09Z</time>
      </trkpt>
      <trkpt lat="45.4363" lon="5.29872">
        <ele>476</ele>
        <time>2022-07-12T15:32:11Z</time>
      </trkpt>
      <trkpt lat="45.43642" lon="5.29903">
        <ele>477</ele>
        <time>2022-07-12T15:32:15Z</time>
      </trkpt>
      <trkpt lat="45.43646" lon="5.29926">
        <ele>477</ele>
        <time>2022-07-12T15:32:18Z</time>
      </trkpt>
      <trkpt lat="45.43644" lon="5.2995">
        <ele>477</ele>
        <time>2022-07-12T15:32:21Z</time>
      </trkpt>
      <trkpt lat="45.43645" lon="5.29966">
        <ele>478</ele>
        <time>2022-07-12T15:32:23Z</time>
      </trkpt>
      <trkpt lat="45.43595" lon="5.30505">
        <ele>479</ele>
        <time>2022-07-12T15:33:31Z</time>
      </trkpt>
      <trkpt lat="45.43557" lon="5.30929">
        <ele>486</ele>
        <time>2022-07-12T15:34:24Z</time>
      </trkpt>
      <trkpt lat="45.43551" lon="5.30961">
        <ele>487</ele>
        <time>2022-07-12T15:34:29Z</time>
      </trkpt>
      <trkpt lat="45.43549" lon="5.31">
        <ele>489</ele>
        <time>2022-07-12T15:34:34Z</time>
      </trkpt>
      <trkpt lat="45.4354" lon="5.31089">
        <ele>489</ele>
        <time>2022-07-12T15:34:45Z</time>
      </trkpt>
      <trkpt lat="45.4354" lon="5.31152">
        <ele>489</ele>
        <time>2022-07-12T15:34:53Z</time>
      </trkpt>
      <trkpt lat="45.43556" lon="5.3123">
        <ele>491</ele>
        <time>2022-07-12T15:35:03Z</time>
      </trkpt>
      <trkpt lat="45.4359" lon="5.31364">
        <ele>494</ele>
        <time>2022-07-12T15:35:21Z</time>
      </trkpt>
      <trkpt lat="45.43667" lon="5.31689">
        <ele>497</ele>
        <time>2022-07-12T15:36:03Z</time>
      </trkpt>
      <trkpt lat="45.43686" lon="5.31757">
        <ele>498</ele>
        <time>2022-07-12T15:36:13Z</time>
      </trkpt>
      <trkpt lat="45.43793" lon="5.32206">
        <ele>507</ele>
        <time>2022-07-12T15:37:12Z</time>
      </trkpt>
      <trkpt lat="45.43807" lon="5.32254">
        <ele>507</ele>
        <time>2022-07-12T15:37:18Z</time>
      </trkpt>
      <trkpt lat="45.43894" lon="5.32445">
        <ele>507</ele>
        <time>2022-07-12T15:37:47Z</time>
      </trkpt>
      <trkpt lat="45.43954" lon="5.32606">
        <ele>508</ele>
        <time>2022-07-12T15:38:09Z</time>
      </trkpt>
      <trkpt lat="45.44002" lon="5.32704">
        <ele>509</ele>
        <time>2022-07-12T15:38:24Z</time>
      </trkpt>
      <trkpt lat="45.4414" lon="5.32985">
        <ele>512</ele>
        <time>2022-07-12T15:39:07Z</time>
      </trkpt>
      <trkpt lat="45.44211" lon="5.33075">
        <ele>512</ele>
        <time>2022-07-12T15:39:24Z</time>
      </trkpt>
      <trkpt lat="45.44174" lon="5.33114">
        <ele>511</ele>
        <time>2022-07-12T15:39:32Z</time>
      </trkpt>
      <trkpt lat="45.44142" lon="5.33153">
        <ele>508</ele>
        <time>2022-07-12T15:39:40Z</time>
      </trkpt>
      <trkpt lat="45.4411" lon="5.3316">
        <ele>507</ele>
        <time>2022-07-12T15:39:45Z</time>
      </trkpt>
      <trkpt lat="45.44132" lon="5.33196">
        <ele>507</ele>
        <time>2022-07-12T15:39:51Z</time>
      </trkpt>
      <trkpt lat="45.4416" lon="5.33228">
        <ele>507</ele>
        <time>2022-07-12T15:39:58Z</time>
      </trkpt>
      <trkpt lat="45.44171" lon="5.33253">
        <ele>507</ele>
        <time>2022-07-12T15:40:02Z</time>
      </trkpt>
      <trkpt lat="45.44175" lon="5.33289">
        <ele>506</ele>
        <time>2022-07-12T15:40:06Z</time>
      </trkpt>
      <trkpt lat="45.44173" lon="5.33303">
        <ele>506</ele>
        <time>2022-07-12T15:40:08Z</time>
      </trkpt>
      <trkpt lat="45.44143" lon="5.33418">
        <ele>506</ele>
        <time>2022-07-12T15:40:23Z</time>
      </trkpt>
      <trkpt lat="45.44101" lon="5.33552">
        <ele>515</ele>
        <time>2022-07-12T15:40:41Z</time>
      </trkpt>
      <trkpt lat="45.44073" lon="5.33627">
        <ele>517</ele>
        <time>2022-07-12T15:40:52Z</time>
      </trkpt>
      <trkpt lat="45.44059" lon="5.33672">
        <ele>517</ele>
        <time>2022-07-12T15:40:58Z</time>
      </trkpt>
      <trkpt lat="45.44148" lon="5.33793">
        <ele>519</ele>
        <time>2022-07-12T15:41:20Z</time>
      </trkpt>
      <trkpt lat="45.44186" lon="5.3385">
        <ele>519</ele>
        <time>2022-07-12T15:41:30Z</time>
      </trkpt>
      <trkpt lat="45.4429" lon="5.34027">
        <ele>522</ele>
        <time>2022-07-12T15:41:59Z</time>
      </trkpt>
      <trkpt lat="45.44372" lon="5.34153">
        <ele>525</ele>
        <time>2022-07-12T15:42:20Z</time>
      </trkpt>
      <trkpt lat="45.44323" lon="5.34431">
        <ele>529</ele>
        <time>2022-07-12T15:42:56Z</time>
      </trkpt>
      <trkpt lat="45.44336" lon="5.34554">
        <ele>533</ele>
        <time>2022-07-12T15:43:12Z</time>
      </trkpt>
      <trkpt lat="45.44343" lon="5.34598">
        <ele>534</ele>
        <time>2022-07-12T15:43:17Z</time>
      </trkpt>
      <trkpt lat="45.44356" lon="5.34607">
        <ele>535</ele>
        <time>2022-07-12T15:43:20Z</time>
      </trkpt>
      <trkpt lat="45.44456" lon="5.34678">
        <ele>539</ele>
        <time>2022-07-12T15:43:40Z</time>
      </trkpt>
      <trkpt lat="45.44724" lon="5.35238">
        <ele>556</ele>
        <time>2022-07-12T15:45:04Z</time>
      </trkpt>
      <trkpt lat="45.44888" lon="5.35561">
        <ele>558</ele>
        <time>2022-07-12T15:45:54Z</time>
      </trkpt>
      <trkpt lat="45.45181" lon="5.36163">
        <ele>565</ele>
        <time>2022-07-12T15:47:25Z</time>
      </trkpt>
      <trkpt lat="45.45177" lon="5.36267">
        <ele>565</ele>
        <time>2022-07-12T15:47:38Z</time>
      </trkpt>
      <trkpt lat="45.45178" lon="5.36282">
        <ele>566</ele>
        <time>2022-07-12T15:47:40Z</time>
      </trkpt>
      <trkpt lat="45.45201" lon="5.36323">
        <ele>568</ele>
        <time>2022-07-12T15:47:47Z</time>
      </trkpt>
      <trkpt lat="45.45212" lon="5.36347">
        <ele>569</ele>
        <time>2022-07-12T15:47:50Z</time>
      </trkpt>
      <trkpt lat="45.45227" lon="5.36408">
        <ele>569</ele>
        <time>2022-07-12T15:47:59Z</time>
      </trkpt>
      <trkpt lat="45.45232" lon="5.36455">
        <ele>569</ele>
        <time>2022-07-12T15:48:04Z</time>
      </trkpt>
      <trkpt lat="45.45263" lon="5.36473">
        <ele>569</ele>
        <time>2022-07-12T15:48:10Z</time>
      </trkpt>
      <trkpt lat="45.4531" lon="5.36507">
        <ele>572</ele>
        <time>2022-07-12T15:48:20Z</time>
      </trkpt>
      <trkpt lat="45.45341" lon="5.36538">
        <ele>574</ele>
        <time>2022-07-12T15:48:27Z</time>
      </trkpt>
      <trkpt lat="45.45356" lon="5.36559">
        <ele>574</ele>
        <time>2022-07-12T15:48:30Z</time>
      </trkpt>
      <trkpt lat="45.45369" lon="5.36585">
        <ele>574</ele>
        <time>2022-07-12T15:48:34Z</time>
      </trkpt>
      <trkpt lat="45.45378" lon="5.36657">
        <ele>571</ele>
        <time>2022-07-12T15:48:43Z</time>
      </trkpt>
      <trkpt lat="45.45387" lon="5.36766">
        <ele>568</ele>
        <time>2022-07-12T15:48:57Z</time>
      </trkpt>
      <trkpt lat="45.45391" lon="5.3679">
        <ele>568</ele>
        <time>2022-07-12T15:49:00Z</time>
      </trkpt>
      <trkpt lat="45.45413" lon="5.36846">
        <ele>566</ele>
        <time>2022-07-12T15:49:08Z</time>
      </trkpt>
      <trkpt lat="45.45426" lon="5.36876">
        <ele>566</ele>
        <time>2022-07-12T15:49:13Z</time>
      </trkpt>
      <trkpt lat="45.45454" lon="5.36987">
        <ele>564</ele>
        <time>2022-07-12T15:49:27Z</time>
      </trkpt>
      <trkpt lat="45.45455" lon="5.37017">
        <ele>564</ele>
        <time>2022-07-12T15:49:31Z</time>
      </trkpt>
      <trkpt lat="45.45443" lon="5.37094">
        <ele>566</ele>
        <time>2022-07-12T15:49:41Z</time>
      </trkpt>
      <trkpt lat="45.45443" lon="5.37103">
        <ele>566</ele>
        <time>2022-07-12T15:49:42Z</time>
      </trkpt>
      <trkpt lat="45.45446" lon="5.37107">
        <ele>566</ele>
        <time>2022-07-12T15:49:43Z</time>
      </trkpt>
      <trkpt lat="45.45487" lon="5.37149">
        <ele>566</ele>
        <time>2022-07-12T15:49:52Z</time>
      </trkpt>
      <trkpt lat="45.45505" lon="5.37333">
        <ele>569</ele>
        <time>2022-07-12T15:50:15Z</time>
      </trkpt>
      <trkpt lat="45.455" lon="5.37393">
        <ele>570</ele>
        <time>2022-07-12T15:50:22Z</time>
      </trkpt>
      <trkpt lat="45.45492" lon="5.37451">
        <ele>569</ele>
        <time>2022-07-12T15:50:30Z</time>
      </trkpt>
      <trkpt lat="45.45491" lon="5.3749">
        <ele>568</ele>
        <time>2022-07-12T15:50:35Z</time>
      </trkpt>
      <trkpt lat="45.45491" lon="5.37566">
        <ele>568</ele>
        <time>2022-07-12T15:50:44Z</time>
      </trkpt>
      <trkpt lat="45.45489" lon="5.3764">
        <ele>569</ele>
        <time>2022-07-12T15:50:53Z</time>
      </trkpt>
      <trkpt lat="45.45452" lon="5.37626">
        <ele>570</ele>
        <time>2022-07-12T15:51:00Z</time>
      </trkpt>
      <trkpt lat="45.45453" lon="5.37611">
        <ele>569</ele>
        <time>2022-07-12T15:51:02Z</time>
      </trkpt>
      <trkpt lat="45.45455" lon="5.3762">
        <ele>569</ele>
        <time>2022-07-12T15:51:03Z</time>
      </trkpt>
      <trkpt lat="45.45475" lon="5.37622">
        <ele>569</ele>
        <time>2022-07-12T15:51:07Z</time>
      </trkpt>
      <trkpt lat="45.45475" lon="5.37618">
        <ele>569</ele>
        <time>2022-07-12T15:51:07Z</time>
      </trkpt>
      <trkpt lat="45.45475" lon="5.37622">
        <ele>569</ele>
        <time>2022-07-12T15:51:08Z</time>
      </trkpt>
      <trkpt lat="45.45455" lon="5.3762">
        <ele>569</ele>
        <time>2022-07-12T15:51:11Z</time>
      </trkpt>
      <trkpt lat="45.45453" lon="5.37611">
        <ele>569</ele>
        <time>2022-07-12T15:51:13Z</time>
      </trkpt>
      <trkpt lat="45.45452" lon="5.37626">
        <ele>570</ele>
        <time>2022-07-12T15:51:14Z</time>
      </trkpt>
      <trkpt lat="45.45489" lon="5.3764">
        <ele>569</ele>
        <time>2022-07-12T15:51:21Z</time>
      </trkpt>
      <trkpt lat="45.4549" lon="5.37652">
        <ele>570</ele>
        <time>2022-07-12T15:51:23Z</time>
      </trkpt>
      <trkpt lat="45.455" lon="5.37684">
        <ele>570</ele>
        <time>2022-07-12T15:51:27Z</time>
      </trkpt>
      <trkpt lat="45.45513" lon="5.37747">
        <ele>570</ele>
        <time>2022-07-12T15:51:35Z</time>
      </trkpt>
      <trkpt lat="45.45522" lon="5.37784">
        <ele>569</ele>
        <time>2022-07-12T15:51:40Z</time>
      </trkpt>
      <trkpt lat="45.4554" lon="5.37832">
        <ele>568</ele>
        <time>2022-07-12T15:51:47Z</time>
      </trkpt>
      <trkpt lat="45.4555" lon="5.37852">
        <ele>568</ele>
        <time>2022-07-12T15:51:50Z</time>
      </trkpt>
      <trkpt lat="45.4554" lon="5.3787">
        <ele>569</ele>
        <time>2022-07-12T15:51:53Z</time>
      </trkpt>
      <trkpt lat="45.45483" lon="5.37957">
        <ele>572</ele>
        <time>2022-07-12T15:52:08Z</time>
      </trkpt>
      <trkpt lat="45.45451" lon="5.38">
        <ele>575</ele>
        <time>2022-07-12T15:52:16Z</time>
      </trkpt>
      <trkpt lat="45.45423" lon="5.38033">
        <ele>579</ele>
        <time>2022-07-12T15:52:22Z</time>
      </trkpt>
      <trkpt lat="45.45379" lon="5.38079">
        <ele>585</ele>
        <time>2022-07-12T15:52:32Z</time>
      </trkpt>
      <trkpt lat="45.45355" lon="5.3811">
        <ele>587</ele>
        <time>2022-07-12T15:52:38Z</time>
      </trkpt>
      <trkpt lat="45.45343" lon="5.38129">
        <ele>587</ele>
        <time>2022-07-12T15:52:41Z</time>
      </trkpt>
      <trkpt lat="45.45291" lon="5.38239">
        <ele>586</ele>
        <time>2022-07-12T15:52:57Z</time>
      </trkpt>
      <trkpt lat="45.4521" lon="5.38386">
        <ele>585</ele>
        <time>2022-07-12T15:53:21Z</time>
      </trkpt>
      <trkpt lat="45.45178" lon="5.38452">
        <ele>583</ele>
        <time>2022-07-12T15:53:31Z</time>
      </trkpt>
      <trkpt lat="45.45162" lon="5.38474">
        <ele>582</ele>
        <time>2022-07-12T15:53:35Z</time>
      </trkpt>
      <trkpt lat="45.4514" lon="5.38495">
        <ele>582</ele>
        <time>2022-07-12T15:53:39Z</time>
      </trkpt>
      <trkpt lat="45.45111" lon="5.38503">
        <ele>583</ele>
        <time>2022-07-12T15:53:45Z</time>
      </trkpt>
      <trkpt lat="45.45093" lon="5.38489">
        <ele>582</ele>
        <time>2022-07-12T15:53:48Z</time>
      </trkpt>
      <trkpt lat="45.45027" lon="5.38463">
        <ele>582</ele>
        <time>2022-07-12T15:54:00Z</time>
      </trkpt>
      <trkpt lat="45.45013" lon="5.38463">
        <ele>582</ele>
        <time>2022-07-12T15:54:03Z</time>
      </trkpt>
      <trkpt lat="45.44978" lon="5.38465">
        <ele>582</ele>
        <time>2022-07-12T15:54:09Z</time>
      </trkpt>
      <trkpt lat="45.44972" lon="5.38469">
        <ele>582</ele>
        <time>2022-07-12T15:54:10Z</time>
      </trkpt>
      <trkpt lat="45.44915" lon="5.38486">
        <ele>582</ele>
        <time>2022-07-12T15:54:21Z</time>
      </trkpt>
      <trkpt lat="45.44834" lon="5.38495">
        <ele>583</ele>
        <time>2022-07-12T15:54:35Z</time>
      </trkpt>
      <trkpt lat="45.44732" lon="5.3849">
        <ele>583</ele>
        <time>2022-07-12T15:54:53Z</time>
      </trkpt>
      <trkpt lat="45.447" lon="5.38482">
        <ele>583</ele>
        <time>2022-07-12T15:54:59Z</time>
      </trkpt>
      <trkpt lat="45.44673" lon="5.38468">
        <ele>582</ele>
        <time>2022-07-12T15:55:04Z</time>
      </trkpt>
      <trkpt lat="45.44664" lon="5.38459">
        <ele>581</ele>
        <time>2022-07-12T15:55:06Z</time>
      </trkpt>
      <trkpt lat="45.44617" lon="5.38392">
        <ele>576</ele>
        <time>2022-07-12T15:55:18Z</time>
      </trkpt>
      <trkpt lat="45.44591" lon="5.38376">
        <ele>576</ele>
        <time>2022-07-12T15:55:23Z</time>
      </trkpt>
      <trkpt lat="45.44505" lon="5.38355">
        <ele>573</ele>
        <time>2022-07-12T15:55:39Z</time>
      </trkpt>
      <trkpt lat="45.44474" lon="5.38351">
        <ele>571</ele>
        <time>2022-07-12T15:55:44Z</time>
      </trkpt>
      <trkpt lat="45.44442" lon="5.3837">
        <ele>570</ele>
        <time>2022-07-12T15:55:50Z</time>
      </trkpt>
      <trkpt lat="45.44403" lon="5.38413">
        <ele>568</ele>
        <time>2022-07-12T15:55:59Z</time>
      </trkpt>
      <trkpt lat="45.44328" lon="5.38517">
        <ele>563</ele>
        <time>2022-07-12T15:56:18Z</time>
      </trkpt>
      <trkpt lat="45.44329" lon="5.38559">
        <ele>565</ele>
        <time>2022-07-12T15:56:23Z</time>
      </trkpt>
      <trkpt lat="45.44337" lon="5.38599">
        <ele>566</ele>
        <time>2022-07-12T15:56:28Z</time>
      </trkpt>
      <trkpt lat="45.44384" lon="5.38763">
        <ele>567</ele>
        <time>2022-07-12T15:56:50Z</time>
      </trkpt>
      <trkpt lat="45.4441" lon="5.38818">
        <ele>567</ele>
        <time>2022-07-12T15:56:59Z</time>
      </trkpt>
      <trkpt lat="45.44442" lon="5.38907">
        <ele>569</ele>
        <time>2022-07-12T15:57:11Z</time>
      </trkpt>
      <trkpt lat="45.44475" lon="5.39011">
        <ele>572</ele>
        <time>2022-07-12T15:57:25Z</time>
      </trkpt>
      <trkpt lat="45.44534" lon="5.39245">
        <ele>574</ele>
        <time>2022-07-12T15:57:56Z</time>
      </trkpt>
      <trkpt lat="45.44543" lon="5.39293">
        <ele>574</ele>
        <time>2022-07-12T15:58:02Z</time>
      </trkpt>
      <trkpt lat="45.44554" lon="5.39493">
        <ele>573</ele>
        <time>2022-07-12T15:58:28Z</time>
      </trkpt>
      <trkpt lat="45.4456" lon="5.3955">
        <ele>574</ele>
        <time>2022-07-12T15:58:35Z</time>
      </trkpt>
      <trkpt lat="45.44573" lon="5.39602">
        <ele>576</ele>
        <time>2022-07-12T15:58:42Z</time>
      </trkpt>
      <trkpt lat="45.44588" lon="5.39651">
        <ele>577</ele>
        <time>2022-07-12T15:58:48Z</time>
      </trkpt>
      <trkpt lat="45.4459" lon="5.39665">
        <ele>578</ele>
        <time>2022-07-12T15:58:50Z</time>
      </trkpt>
      <trkpt lat="45.4461" lon="5.39711">
        <ele>579</ele>
        <time>2022-07-12T15:58:57Z</time>
      </trkpt>
      <trkpt lat="45.4468" lon="5.39827">
        <ele>582</ele>
        <time>2022-07-12T15:59:16Z</time>
      </trkpt>
      <trkpt lat="45.44686" lon="5.39846">
        <ele>580</ele>
        <time>2022-07-12T15:59:19Z</time>
      </trkpt>
      <trkpt lat="45.44686" lon="5.3986">
        <ele>579</ele>
        <time>2022-07-12T15:59:20Z</time>
      </trkpt>
      <trkpt lat="45.44681" lon="5.39876">
        <ele>577</ele>
        <time>2022-07-12T15:59:22Z</time>
      </trkpt>
      <trkpt lat="45.44672" lon="5.39885">
        <ele>578</ele>
        <time>2022-07-12T15:59:24Z</time>
      </trkpt>
      <trkpt lat="45.44649" lon="5.3989">
        <ele>579</ele>
        <time>2022-07-12T15:59:29Z</time>
      </trkpt>
      <trkpt lat="45.44637" lon="5.39904">
        <ele>579</ele>
        <time>2022-07-12T15:59:31Z</time>
      </trkpt>
      <trkpt lat="45.44602" lon="5.39963">
        <ele>576</ele>
        <time>2022-07-12T15:59:41Z</time>
      </trkpt>
      <trkpt lat="45.44579" lon="5.40009">
        <ele>572</ele>
        <time>2022-07-12T15:59:48Z</time>
      </trkpt>
      <trkpt lat="45.44559" lon="5.40039">
        <ele>568</ele>
        <time>2022-07-12T15:59:53Z</time>
      </trkpt>
      <trkpt lat="45.44545" lon="5.40055">
        <ele>567</ele>
        <time>2022-07-12T15:59:56Z</time>
      </trkpt>
      <trkpt lat="45.44493" lon="5.40095">
        <ele>568</ele>
        <time>2022-07-12T16:00:07Z</time>
      </trkpt>
      <trkpt lat="45.44468" lon="5.40119">
        <ele>566</ele>
        <time>2022-07-12T16:00:12Z</time>
      </trkpt>
      <trkpt lat="45.44446" lon="5.40151">
        <ele>564</ele>
        <time>2022-07-12T16:00:18Z</time>
      </trkpt>
      <trkpt lat="45.44437" lon="5.40168">
        <ele>563</ele>
        <time>2022-07-12T16:00:21Z</time>
      </trkpt>
      <trkpt lat="45.44432" lon="5.40184">
        <ele>561</ele>
        <time>2022-07-12T16:00:23Z</time>
      </trkpt>
      <trkpt lat="45.44431" lon="5.40203">
        <ele>558</ele>
        <time>2022-07-12T16:00:25Z</time>
      </trkpt>
      <trkpt lat="45.44434" lon="5.40214">
        <ele>556</ele>
        <time>2022-07-12T16:00:27Z</time>
      </trkpt>
      <trkpt lat="45.44443" lon="5.40226">
        <ele>553</ele>
        <time>2022-07-12T16:00:29Z</time>
      </trkpt>
      <trkpt lat="45.4448" lon="5.4027">
        <ele>544</ele>
        <time>2022-07-12T16:00:37Z</time>
      </trkpt>
      <trkpt lat="45.44521" lon="5.40318">
        <ele>542</ele>
        <time>2022-07-12T16:00:47Z</time>
      </trkpt>
      <trkpt lat="45.44538" lon="5.40329">
        <ele>542</ele>
        <time>2022-07-12T16:00:50Z</time>
      </trkpt>
      <trkpt lat="45.44585" lon="5.4035">
        <ele>544</ele>
        <time>2022-07-12T16:00:59Z</time>
      </trkpt>
      <trkpt lat="45.44594" lon="5.40358">
        <ele>544</ele>
        <time>2022-07-12T16:01:01Z</time>
      </trkpt>
      <trkpt lat="45.44588" lon="5.40398">
        <ele>544</ele>
        <time>2022-07-12T16:01:06Z</time>
      </trkpt>
      <trkpt lat="45.44579" lon="5.40518">
        <ele>542</ele>
        <time>2022-07-12T16:01:21Z</time>
      </trkpt>
      <trkpt lat="45.44584" lon="5.40525">
        <ele>542</ele>
        <time>2022-07-12T16:01:22Z</time>
      </trkpt>
      <trkpt lat="45.44616" lon="5.40586">
        <ele>543</ele>
        <time>2022-07-12T16:01:32Z</time>
      </trkpt>
      <trkpt lat="45.44634" lon="5.40659">
        <ele>543</ele>
        <time>2022-07-12T16:01:41Z</time>
      </trkpt>
      <trkpt lat="45.44644" lon="5.40674">
        <ele>543</ele>
        <time>2022-07-12T16:01:44Z</time>
      </trkpt>
      <trkpt lat="45.44644" lon="5.40678">
        <ele>543</ele>
        <time>2022-07-12T16:01:44Z</time>
      </trkpt>
      <trkpt lat="45.44656" lon="5.40753">
        <ele>544</ele>
        <time>2022-07-12T16:01:54Z</time>
      </trkpt>
      <trkpt lat="45.44653" lon="5.40787">
        <ele>543</ele>
        <time>2022-07-12T16:01:58Z</time>
      </trkpt>
      <trkpt lat="45.44647" lon="5.40817">
        <ele>543</ele>
        <time>2022-07-12T16:02:02Z</time>
      </trkpt>
      <trkpt lat="45.44633" lon="5.40863">
        <ele>543</ele>
        <time>2022-07-12T16:02:08Z</time>
      </trkpt>
      <trkpt lat="45.44627" lon="5.40868">
        <ele>543</ele>
        <time>2022-07-12T16:02:10Z</time>
      </trkpt>
      <trkpt lat="45.44619" lon="5.4087">
        <ele>543</ele>
        <time>2022-07-12T16:02:11Z</time>
      </trkpt>
      <trkpt lat="45.44597" lon="5.40866">
        <ele>543</ele>
        <time>2022-07-12T16:02:15Z</time>
      </trkpt>
      <trkpt lat="45.44582" lon="5.40856">
        <ele>543</ele>
        <time>2022-07-12T16:02:18Z</time>
      </trkpt>
      <trkpt lat="45.44555" lon="5.40827">
        <ele>542</ele>
        <time>2022-07-12T16:02:24Z</time>
      </trkpt>
      <trkpt lat="45.44536" lon="5.41055">
        <ele>530</ele>
        <time>2022-07-12T16:02:53Z</time>
      </trkpt>
      <trkpt lat="45.44529" lon="5.41167">
        <ele>526</ele>
        <time>2022-07-12T16:03:07Z</time>
      </trkpt>
      <trkpt lat="45.44527" lon="5.41174">
        <ele>526</ele>
        <time>2022-07-12T16:03:08Z</time>
      </trkpt>
      <trkpt lat="45.44509" lon="5.41407">
        <ele>526</ele>
        <time>2022-07-12T16:03:37Z</time>
      </trkpt>
      <trkpt lat="45.4438" lon="5.42054">
        <ele>510</ele>
        <time>2022-07-12T16:05:01Z</time>
      </trkpt>
      <trkpt lat="45.44369" lon="5.42107">
        <ele>509</ele>
        <time>2022-07-12T16:05:08Z</time>
      </trkpt>
      <trkpt lat="45.44282" lon="5.42527">
        <ele>511</ele>
        <time>2022-07-12T16:06:02Z</time>
      </trkpt>
      <trkpt lat="45.44267" lon="5.4257">
        <ele>512</ele>
        <time>2022-07-12T16:06:08Z</time>
      </trkpt>
      <trkpt lat="45.44243" lon="5.42612">
        <ele>513</ele>
        <time>2022-07-12T16:06:15Z</time>
      </trkpt>
      <trkpt lat="45.44107" lon="5.42809">
        <ele>515</ele>
        <time>2022-07-12T16:06:50Z</time>
      </trkpt>
      <trkpt lat="45.44095" lon="5.42824">
        <ele>515</ele>
        <time>2022-07-12T16:06:53Z</time>
      </trkpt>
      <trkpt lat="45.44075" lon="5.42839">
        <ele>515</ele>
        <time>2022-07-12T16:06:57Z</time>
      </trkpt>
      <trkpt lat="45.44057" lon="5.42845">
        <ele>515</ele>
        <time>2022-07-12T16:07:00Z</time>
      </trkpt>
      <trkpt lat="45.44053" lon="5.42835">
        <ele>515</ele>
        <time>2022-07-12T16:07:01Z</time>
      </trkpt>
      <trkpt lat="45.44048" lon="5.4283">
        <ele>515</ele>
        <time>2022-07-12T16:07:02Z</time>
      </trkpt>
      <trkpt lat="45.44053" lon="5.42835">
        <ele>515</ele>
        <time>2022-07-12T16:07:03Z</time>
      </trkpt>
      <trkpt lat="45.44057" lon="5.42845">
        <ele>515</ele>
        <time>2022-07-12T16:07:05Z</time>
      </trkpt>
      <trkpt lat="45.44041" lon="5.42851">
        <ele>514</ele>
        <time>2022-07-12T16:07:08Z</time>
      </trkpt>
      <trkpt lat="45.43966" lon="5.42863">
        <ele>513</ele>
        <time>2022-07-12T16:07:21Z</time>
      </trkpt>
      <trkpt lat="45.43869" lon="5.42883">
        <ele>510</ele>
        <time>2022-07-12T16:07:39Z</time>
      </trkpt>
      <trkpt lat="45.4384" lon="5.42885">
        <ele>510</ele>
        <time>2022-07-12T16:07:44Z</time>
      </trkpt>
      <trkpt lat="45.43807" lon="5.42894">
        <ele>510</ele>
        <time>2022-07-12T16:07:50Z</time>
      </trkpt>
      <trkpt lat="45.43748" lon="5.42905">
        <ele>508</ele>
        <time>2022-07-12T16:08:00Z</time>
      </trkpt>
      <trkpt lat="45.43247" lon="5.42995">
        <ele>506</ele>
        <time>2022-07-12T16:09:30Z</time>
      </trkpt>
      <trkpt lat="45.43204" lon="5.43023">
        <ele>507</ele>
        <time>2022-07-12T16:09:39Z</time>
      </trkpt>
      <trkpt lat="45.43113" lon="5.43103">
        <ele>510</ele>
        <time>2022-07-12T16:09:58Z</time>
      </trkpt>
      <trkpt lat="45.43065" lon="5.4315">
        <ele>513</ele>
        <time>2022-07-12T16:10:08Z</time>
      </trkpt>
      <trkpt lat="45.4292" lon="5.43285">
        <ele>522</ele>
        <time>2022-07-12T16:10:39Z</time>
      </trkpt>
      <trkpt lat="45.42888" lon="5.43311">
        <ele>524</ele>
        <time>2022-07-12T16:10:45Z</time>
      </trkpt>
      <trkpt lat="45.42877" lon="5.43316">
        <ele>524</ele>
        <time>2022-07-12T16:10:48Z</time>
      </trkpt>
      <trkpt lat="45.42876" lon="5.4331">
        <ele>524</ele>
        <time>2022-07-12T16:10:48Z</time>
      </trkpt>
      <trkpt lat="45.42873" lon="5.43304">
        <ele>524</ele>
        <time>2022-07-12T16:10:49Z</time>
      </trkpt>
      <trkpt lat="45.42868" lon="5.43301">
        <ele>524</ele>
        <time>2022-07-12T16:10:50Z</time>
      </trkpt>
      <trkpt lat="45.42863" lon="5.43301">
        <ele>524</ele>
        <time>2022-07-12T16:10:51Z</time>
      </trkpt>
      <trkpt lat="45.42858" lon="5.43303">
        <ele>524</ele>
        <time>2022-07-12T16:10:52Z</time>
      </trkpt>
      <trkpt lat="45.42854" lon="5.43309">
        <ele>524</ele>
        <time>2022-07-12T16:10:53Z</time>
      </trkpt>
      <trkpt lat="45.42852" lon="5.43316">
        <ele>525</ele>
        <time>2022-07-12T16:10:54Z</time>
      </trkpt>
      <trkpt lat="45.42853" lon="5.43324">
        <ele>525</ele>
        <time>2022-07-12T16:10:55Z</time>
      </trkpt>
      <trkpt lat="45.42821" lon="5.43367">
        <ele>525</ele>
        <time>2022-07-12T16:11:03Z</time>
      </trkpt>
      <trkpt lat="45.42771" lon="5.43425">
        <ele>525</ele>
        <time>2022-07-12T16:11:14Z</time>
      </trkpt>
      <trkpt lat="45.42724" lon="5.43475">
        <ele>527</ele>
        <time>2022-07-12T16:11:25Z</time>
      </trkpt>
      <trkpt lat="45.42628" lon="5.43657">
        <ele>536</ele>
        <time>2022-07-12T16:11:53Z</time>
      </trkpt>
      <trkpt lat="45.42611" lon="5.43694">
        <ele>538</ele>
        <time>2022-07-12T16:11:59Z</time>
      </trkpt>
      <trkpt lat="45.42601" lon="5.43738">
        <ele>540</ele>
        <time>2022-07-12T16:12:04Z</time>
      </trkpt>
      <trkpt lat="45.42582" lon="5.43869">
        <ele>546</ele>
        <time>2022-07-12T16:12:21Z</time>
      </trkpt>
      <trkpt lat="45.42592" lon="5.43922">
        <ele>549</ele>
        <time>2022-07-12T16:12:28Z</time>
      </trkpt>
      <trkpt lat="45.4264" lon="5.44054">
        <ele>553</ele>
        <time>2022-07-12T16:12:47Z</time>
      </trkpt>
      <trkpt lat="45.42648" lon="5.44115">
        <ele>556</ele>
        <time>2022-07-12T16:12:54Z</time>
      </trkpt>
      <trkpt lat="45.42629" lon="5.44198">
        <ele>560</ele>
        <time>2022-07-12T16:13:05Z</time>
      </trkpt>
      <trkpt lat="45.42668" lon="5.44166">
        <ele>558</ele>
        <time>2022-07-12T16:13:13Z</time>
      </trkpt>
      <trkpt lat="45.42687" lon="5.44195">
        <ele>555</ele>
        <time>2022-07-12T16:13:18Z</time>
      </trkpt>
      <trkpt lat="45.4275" lon="5.44332">
        <ele>556</ele>
        <time>2022-07-12T16:13:39Z</time>
      </trkpt>
      <trkpt lat="45.42773" lon="5.44356">
        <ele>555</ele>
        <time>2022-07-12T16:13:44Z</time>
      </trkpt>
      <trkpt lat="45.42782" lon="5.44372">
        <ele>555</ele>
        <time>2022-07-12T16:13:46Z</time>
      </trkpt>
      <trkpt lat="45.42839" lon="5.44501">
        <ele>557</ele>
        <time>2022-07-12T16:14:05Z</time>
      </trkpt>
      <trkpt lat="45.42864" lon="5.44605">
        <ele>553</ele>
        <time>2022-07-12T16:14:19Z</time>
      </trkpt>
      <trkpt lat="45.42836" lon="5.44637">
        <ele>553</ele>
        <time>2022-07-12T16:14:25Z</time>
      </trkpt>
      <trkpt lat="45.42823" lon="5.44657">
        <ele>552</ele>
        <time>2022-07-12T16:14:29Z</time>
      </trkpt>
      <trkpt lat="45.42787" lon="5.44735">
        <ele>552</ele>
        <time>2022-07-12T16:14:40Z</time>
      </trkpt>
      <trkpt lat="45.42782" lon="5.44815">
        <ele>551</ele>
        <time>2022-07-12T16:14:51Z</time>
      </trkpt>
      <trkpt lat="45.42774" lon="5.44868">
        <ele>550</ele>
        <time>2022-07-12T16:14:57Z</time>
      </trkpt>
      <trkpt lat="45.4276" lon="5.44921">
        <ele>550</ele>
        <time>2022-07-12T16:15:04Z</time>
      </trkpt>
      <trkpt lat="45.4274" lon="5.45003">
        <ele>549</ele>
        <time>2022-07-12T16:15:15Z</time>
      </trkpt>
      <trkpt lat="45.42733" lon="5.45062">
        <ele>550</ele>
        <time>2022-07-12T16:15:23Z</time>
      </trkpt>
      <trkpt lat="45.42704" lon="5.45179">
        <ele>551</ele>
        <time>2022-07-12T16:15:38Z</time>
      </trkpt>
      <trkpt lat="45.42653" lon="5.45403">
        <ele>559</ele>
        <time>2022-07-12T16:16:08Z</time>
      </trkpt>
      <trkpt lat="45.42642" lon="5.45486">
        <ele>561</ele>
        <time>2022-07-12T16:16:18Z</time>
      </trkpt>
      <trkpt lat="45.42639" lon="5.45509">
        <ele>561</ele>
        <time>2022-07-12T16:16:21Z</time>
      </trkpt>
      <trkpt lat="45.42627" lon="5.45569">
        <ele>558</ele>
        <time>2022-07-12T16:16:29Z</time>
      </trkpt>
      <trkpt lat="45.42618" lon="5.45663">
        <ele>555</ele>
        <time>2022-07-12T16:16:41Z</time>
      </trkpt>
      <trkpt lat="45.42619" lon="5.457">
        <ele>555</ele>
        <time>2022-07-12T16:16:45Z</time>
      </trkpt>
      <trkpt lat="45.42621" lon="5.45746">
        <ele>555</ele>
        <time>2022-07-12T16:16:51Z</time>
      </trkpt>
      <trkpt lat="45.42624" lon="5.45779">
        <ele>555</ele>
        <time>2022-07-12T16:16:55Z</time>
      </trkpt>
      <trkpt lat="45.42644" lon="5.45911">
        <ele>555</ele>
        <time>2022-07-12T16:17:12Z</time>
      </trkpt>
      <trkpt lat="45.42647" lon="5.45956">
        <ele>557</ele>
        <time>2022-07-12T16:17:18Z</time>
      </trkpt>
      <trkpt lat="45.42651" lon="5.4599">
        <ele>558</ele>
        <time>2022-07-12T16:17:22Z</time>
      </trkpt>
      <trkpt lat="45.42659" lon="5.46034">
        <ele>558</ele>
        <time>2022-07-12T16:17:28Z</time>
      </trkpt>
      <trkpt lat="45.4266" lon="5.46065">
        <ele>558</ele>
        <time>2022-07-12T16:17:32Z</time>
      </trkpt>
      <trkpt lat="45.42658" lon="5.46127">
        <ele>556</ele>
        <time>2022-07-12T16:17:39Z</time>
      </trkpt>
      <trkpt lat="45.42654" lon="5.46179">
        <ele>555</ele>
        <time>2022-07-12T16:17:46Z</time>
      </trkpt>
      <trkpt lat="45.42643" lon="5.46251">
        <ele>556</ele>
        <time>2022-07-12T16:17:55Z</time>
      </trkpt>
      <trkpt lat="45.4262" lon="5.46367">
        <ele>556</ele>
        <time>2022-07-12T16:18:10Z</time>
      </trkpt>
      <trkpt lat="45.42616" lon="5.46425">
        <ele>556</ele>
        <time>2022-07-12T16:18:17Z</time>
      </trkpt>
      <trkpt lat="45.42579" lon="5.46425">
        <ele>555</ele>
        <time>2022-07-12T16:18:24Z</time>
      </trkpt>
      <trkpt lat="45.42526" lon="5.4644">
        <ele>553</ele>
        <time>2022-07-12T16:18:34Z</time>
      </trkpt>
      <trkpt lat="45.42492" lon="5.46467">
        <ele>552</ele>
        <time>2022-07-12T16:18:41Z</time>
      </trkpt>
      <trkpt lat="45.42484" lon="5.46472">
        <ele>552</ele>
        <time>2022-07-12T16:18:42Z</time>
      </trkpt>
      <trkpt lat="45.42518" lon="5.46523">
        <ele>553</ele>
        <time>2022-07-12T16:18:51Z</time>
      </trkpt>
      <trkpt lat="45.42586" lon="5.46686">
        <ele>557</ele>
        <time>2022-07-12T16:19:15Z</time>
      </trkpt>
      <trkpt lat="45.42603" lon="5.468">
        <ele>558</ele>
        <time>2022-07-12T16:19:29Z</time>
      </trkpt>
      <trkpt lat="45.42603" lon="5.46818">
        <ele>559</ele>
        <time>2022-07-12T16:19:31Z</time>
      </trkpt>
      <trkpt lat="45.42611" lon="5.46901">
        <ele>560</ele>
        <time>2022-07-12T16:19:42Z</time>
      </trkpt>
      <trkpt lat="45.42621" lon="5.46949">
        <ele>561</ele>
        <time>2022-07-12T16:19:48Z</time>
      </trkpt>
      <trkpt lat="45.42626" lon="5.46965">
        <ele>561</ele>
        <time>2022-07-12T16:19:50Z</time>
      </trkpt>
      <trkpt lat="45.42639" lon="5.47093">
        <ele>561</ele>
        <time>2022-07-12T16:20:06Z</time>
      </trkpt>
      <trkpt lat="45.42652" lon="5.4718">
        <ele>557</ele>
        <time>2022-07-12T16:20:17Z</time>
      </trkpt>
      <trkpt lat="45.42688" lon="5.47607">
        <ele>562</ele>
        <time>2022-07-12T16:21:11Z</time>
      </trkpt>
      <trkpt lat="45.42706" lon="5.47695">
        <ele>561</ele>
        <time>2022-07-12T16:21:23Z</time>
      </trkpt>
      <trkpt lat="45.42686" lon="5.47713">
        <ele>557</ele>
        <time>2022-07-12T16:21:27Z</time>
      </trkpt>
      <trkpt lat="45.42673" lon="5.47738">
        <ele>554</ele>
        <time>2022-07-12T16:21:31Z</time>
      </trkpt>
      <trkpt lat="45.42664" lon="5.47777">
        <ele>553</ele>
        <time>2022-07-12T16:21:36Z</time>
      </trkpt>
      <trkpt lat="45.42664" lon="5.47807">
        <ele>553</ele>
        <time>2022-07-12T16:21:40Z</time>
      </trkpt>
      <trkpt lat="45.42662" lon="5.47836">
        <ele>553</ele>
        <time>2022-07-12T16:21:43Z</time>
      </trkpt>
      <trkpt lat="45.42651" lon="5.47873">
        <ele>553</ele>
        <time>2022-07-12T16:21:48Z</time>
      </trkpt>
      <trkpt lat="45.42636" lon="5.47909">
        <ele>554</ele>
        <time>2022-07-12T16:21:53Z</time>
      </trkpt>
      <trkpt lat="45.42633" lon="5.47924">
        <ele>555</ele>
        <time>2022-07-12T16:21:55Z</time>
      </trkpt>
      <trkpt lat="45.42633" lon="5.47936">
        <ele>555</ele>
        <time>2022-07-12T16:21:57Z</time>
      </trkpt>
      <trkpt lat="45.42641" lon="5.47991">
        <ele>558</ele>
        <time>2022-07-12T16:22:04Z</time>
      </trkpt>
      <trkpt lat="45.42642" lon="5.48015">
        <ele>559</ele>
        <time>2022-07-12T16:22:07Z</time>
      </trkpt>
      <trkpt lat="45.4264" lon="5.48036">
        <ele>560</ele>
        <time>2022-07-12T16:22:10Z</time>
      </trkpt>
      <trkpt lat="45.42623" lon="5.48108">
        <ele>562</ele>
        <time>2022-07-12T16:22:19Z</time>
      </trkpt>
      <trkpt lat="45.42615" lon="5.48159">
        <ele>564</ele>
        <time>2022-07-12T16:22:26Z</time>
      </trkpt>
      <trkpt lat="45.42612" lon="5.48202">
        <ele>565</ele>
        <time>2022-07-12T16:22:31Z</time>
      </trkpt>
      <trkpt lat="45.42607" lon="5.48228">
        <ele>566</ele>
        <time>2022-07-12T16:22:34Z</time>
      </trkpt>
      <trkpt lat="45.42579" lon="5.48287">
        <ele>567</ele>
        <time>2022-07-12T16:22:43Z</time>
      </trkpt>
      <trkpt lat="45.42519" lon="5.48435">
        <ele>571</ele>
        <time>2022-07-12T16:23:05Z</time>
      </trkpt>
      <trkpt lat="45.42507" lon="5.48454">
        <ele>571</ele>
        <time>2022-07-12T16:23:08Z</time>
      </trkpt>
      <trkpt lat="45.42475" lon="5.48487">
        <ele>571</ele>
        <time>2022-07-12T16:23:15Z</time>
      </trkpt>
      <trkpt lat="45.42455" lon="5.48669">
        <ele>575</ele>
        <time>2022-07-12T16:23:38Z</time>
      </trkpt>
      <trkpt lat="45.42443" lon="5.48739">
        <ele>576</ele>
        <time>2022-07-12T16:23:47Z</time>
      </trkpt>
      <trkpt lat="45.42416" lon="5.48842">
        <ele>578</ele>
        <time>2022-07-12T16:24:01Z</time>
      </trkpt>
      <trkpt lat="45.42411" lon="5.4889">
        <ele>579</ele>
        <time>2022-07-12T16:24:07Z</time>
      </trkpt>
      <trkpt lat="45.42408" lon="5.48952">
        <ele>580</ele>
        <time>2022-07-12T16:24:14Z</time>
      </trkpt>
      <trkpt lat="45.42407" lon="5.4909">
        <ele>581</ele>
        <time>2022-07-12T16:24:32Z</time>
      </trkpt>
      <trkpt lat="45.42409" lon="5.49204">
        <ele>582</ele>
        <time>2022-07-12T16:24:46Z</time>
      </trkpt>
      <trkpt lat="45.42406" lon="5.4923">
        <ele>582</ele>
        <time>2022-07-12T16:24:49Z</time>
      </trkpt>
      <trkpt lat="45.42406" lon="5.49242">
        <ele>582</ele>
        <time>2022-07-12T16:24:51Z</time>
      </trkpt>
      <trkpt lat="45.4238" lon="5.49376">
        <ele>584</ele>
        <time>2022-07-12T16:25:08Z</time>
      </trkpt>
      <trkpt lat="45.42358" lon="5.49663">
        <ele>592</ele>
        <time>2022-07-12T16:25:44Z</time>
      </trkpt>
      <trkpt lat="45.42352" lon="5.49797">
        <ele>595</ele>
        <time>2022-07-12T16:26:01Z</time>
      </trkpt>
      <trkpt lat="45.42348" lon="5.49838">
        <ele>596</ele>
        <time>2022-07-12T16:26:06Z</time>
      </trkpt>
      <trkpt lat="45.42348" lon="5.4989">
        <ele>598</ele>
        <time>2022-07-12T16:26:12Z</time>
      </trkpt>
      <trkpt lat="45.42357" lon="5.4993">
        <ele>598</ele>
        <time>2022-07-12T16:26:18Z</time>
      </trkpt>
      <trkpt lat="45.42368" lon="5.49956">
        <ele>598</ele>
        <time>2022-07-12T16:26:22Z</time>
      </trkpt>
      <trkpt lat="45.42384" lon="5.49987">
        <ele>598</ele>
        <time>2022-07-12T16:26:26Z</time>
      </trkpt>
      <trkpt lat="45.42406" lon="5.50017">
        <ele>598</ele>
        <time>2022-07-12T16:26:32Z</time>
      </trkpt>
      <trkpt lat="45.42421" lon="5.50028">
        <ele>598</ele>
        <time>2022-07-12T16:26:35Z</time>
      </trkpt>
      <trkpt lat="45.42447" lon="5.50039">
        <ele>599</ele>
        <time>2022-07-12T16:26:40Z</time>
      </trkpt>
      <trkpt lat="45.42543" lon="5.50055">
        <ele>595</ele>
        <time>2022-07-12T16:26:57Z</time>
      </trkpt>
      <trkpt lat="45.42681" lon="5.50059">
        <ele>584</ele>
        <time>2022-07-12T16:27:21Z</time>
      </trkpt>
      <trkpt lat="45.42708" lon="5.5005">
        <ele>582</ele>
        <time>2022-07-12T16:27:26Z</time>
      </trkpt>
      <trkpt lat="45.42786" lon="5.50013">
        <ele>577</ele>
        <time>2022-07-12T16:27:41Z</time>
      </trkpt>
      <trkpt lat="45.42845" lon="5.49989">
        <ele>574</ele>
        <time>2022-07-12T16:27:52Z</time>
      </trkpt>
      <trkpt lat="45.42874" lon="5.49989">
        <ele>573</ele>
        <time>2022-07-12T16:27:57Z</time>
      </trkpt>
      <trkpt lat="45.43032" lon="5.50011">
        <ele>565</ele>
        <time>2022-07-12T16:28:25Z</time>
      </trkpt>
      <trkpt lat="45.43042" lon="5.50019">
        <ele>564</ele>
        <time>2022-07-12T16:28:27Z</time>
      </trkpt>
      <trkpt lat="45.4305" lon="5.5003">
        <ele>563</ele>
        <time>2022-07-12T16:28:29Z</time>
      </trkpt>
      <trkpt lat="45.43053" lon="5.50041">
        <ele>563</ele>
        <time>2022-07-12T16:28:31Z</time>
      </trkpt>
      <trkpt lat="45.43054" lon="5.50059">
        <ele>562</ele>
        <time>2022-07-12T16:28:33Z</time>
      </trkpt>
      <trkpt lat="45.43051" lon="5.50074">
        <ele>561</ele>
        <time>2022-07-12T16:28:35Z</time>
      </trkpt>
      <trkpt lat="45.43046" lon="5.50085">
        <ele>560</ele>
        <time>2022-07-12T16:28:37Z</time>
      </trkpt>
      <trkpt lat="45.43037" lon="5.50093">
        <ele>559</ele>
        <time>2022-07-12T16:28:38Z</time>
      </trkpt>
      <trkpt lat="45.4302" lon="5.50097">
        <ele>558</ele>
        <time>2022-07-12T16:28:42Z</time>
      </trkpt>
      <trkpt lat="45.42935" lon="5.5008">
        <ele>559</ele>
        <time>2022-07-12T16:28:57Z</time>
      </trkpt>
      <trkpt lat="45.42884" lon="5.50092">
        <ele>558</ele>
        <time>2022-07-12T16:29:06Z</time>
      </trkpt>
      <trkpt lat="45.42784" lon="5.50195">
        <ele>559</ele>
        <time>2022-07-12T16:29:28Z</time>
      </trkpt>
      <trkpt lat="45.42736" lon="5.50254">
        <ele>558</ele>
        <time>2022-07-12T16:29:39Z</time>
      </trkpt>
      <trkpt lat="45.42707" lon="5.5032">
        <ele>560</ele>
        <time>2022-07-12T16:29:49Z</time>
      </trkpt>
      <trkpt lat="45.42698" lon="5.5035">
        <ele>560</ele>
        <time>2022-07-12T16:29:53Z</time>
      </trkpt>
      <trkpt lat="45.42694" lon="5.50384">
        <ele>561</ele>
        <time>2022-07-12T16:29:57Z</time>
      </trkpt>
      <trkpt lat="45.42677" lon="5.50585">
        <ele>551</ele>
        <time>2022-07-12T16:30:23Z</time>
      </trkpt>
      <trkpt lat="45.42652" lon="5.50634">
        <ele>552</ele>
        <time>2022-07-12T16:30:30Z</time>
      </trkpt>
      <trkpt lat="45.42618" lon="5.50716">
        <ele>555</ele>
        <time>2022-07-12T16:30:42Z</time>
      </trkpt>
      <trkpt lat="45.42613" lon="5.50767">
        <ele>552</ele>
        <time>2022-07-12T16:30:48Z</time>
      </trkpt>
      <trkpt lat="45.42601" lon="5.5084">
        <ele>547</ele>
        <time>2022-07-12T16:30:58Z</time>
      </trkpt>
      <trkpt lat="45.42565" lon="5.50919">
        <ele>544</ele>
        <time>2022-07-12T16:31:10Z</time>
      </trkpt>
      <trkpt lat="45.42529" lon="5.51013">
        <ele>544</ele>
        <time>2022-07-12T16:31:23Z</time>
      </trkpt>
      <trkpt lat="45.42508" lon="5.5108">
        <ele>535</ele>
        <time>2022-07-12T16:31:32Z</time>
      </trkpt>
      <trkpt lat="45.42489" lon="5.51154">
        <ele>524</ele>
        <time>2022-07-12T16:31:42Z</time>
      </trkpt>
      <trkpt lat="45.42491" lon="5.51216">
        <ele>517</ele>
        <time>2022-07-12T16:31:50Z</time>
      </trkpt>
      <trkpt lat="45.42515" lon="5.51663">
        <ele>497</ele>
        <time>2022-07-12T16:32:46Z</time>
      </trkpt>
      <trkpt lat="45.42521" lon="5.51666">
        <ele>497</ele>
        <time>2022-07-12T16:32:47Z</time>
      </trkpt>
      <trkpt lat="45.42598" lon="5.51684">
        <ele>499</ele>
        <time>2022-07-12T16:33:01Z</time>
      </trkpt>
      <trkpt lat="45.42624" lon="5.51684">
        <ele>500</ele>
        <time>2022-07-12T16:33:05Z</time>
      </trkpt>
      <trkpt lat="45.42598" lon="5.51684">
        <ele>499</ele>
        <time>2022-07-12T16:33:10Z</time>
      </trkpt>
      <trkpt lat="45.42521" lon="5.51666">
        <ele>497</ele>
        <time>2022-07-12T16:33:24Z</time>
      </trkpt>
      <trkpt lat="45.42515" lon="5.51663">
        <ele>497</ele>
        <time>2022-07-12T16:33:25Z</time>
      </trkpt>
      <trkpt lat="45.42508" lon="5.51664">
        <ele>496</ele>
        <time>2022-07-12T16:33:26Z</time>
      </trkpt>
      <trkpt lat="45.42465" lon="5.5166">
        <ele>496</ele>
        <time>2022-07-12T16:33:34Z</time>
      </trkpt>
      <trkpt lat="45.4244" lon="5.51653">
        <ele>497</ele>
        <time>2022-07-12T16:33:38Z</time>
      </trkpt>
      <trkpt lat="45.42413" lon="5.51639">
        <ele>498</ele>
        <time>2022-07-12T16:33:44Z</time>
      </trkpt>
      <trkpt lat="45.42367" lon="5.51607">
        <ele>500</ele>
        <time>2022-07-12T16:33:53Z</time>
      </trkpt>
      <trkpt lat="45.42345" lon="5.51604">
        <ele>500</ele>
        <time>2022-07-12T16:33:57Z</time>
      </trkpt>
      <trkpt lat="45.42309" lon="5.51612">
        <ele>500</ele>
        <time>2022-07-12T16:34:03Z</time>
      </trkpt>
      <trkpt lat="45.42139" lon="5.51669">
        <ele>497</ele>
        <time>2022-07-12T16:34:34Z</time>
      </trkpt>
      <trkpt lat="45.42086" lon="5.51709">
        <ele>499</ele>
        <time>2022-07-12T16:34:45Z</time>
      </trkpt>
      <trkpt lat="45.42059" lon="5.51751">
        <ele>499</ele>
        <time>2022-07-12T16:34:52Z</time>
      </trkpt>
      <trkpt lat="45.42012" lon="5.51882">
        <ele>498</ele>
        <time>2022-07-12T16:35:10Z</time>
      </trkpt>
      <trkpt lat="45.42004" lon="5.51897">
        <ele>497</ele>
        <time>2022-07-12T16:35:13Z</time>
      </trkpt>
      <trkpt lat="45.41995" lon="5.51906">
        <ele>498</ele>
        <time>2022-07-12T16:35:15Z</time>
      </trkpt>
      <trkpt lat="45.41965" lon="5.5193">
        <ele>501</ele>
        <time>2022-07-12T16:35:21Z</time>
      </trkpt>
      <trkpt lat="45.41896" lon="5.51976">
        <ele>506</ele>
        <time>2022-07-12T16:35:34Z</time>
      </trkpt>
      <trkpt lat="45.41816" lon="5.52073">
        <ele>514</ele>
        <time>2022-07-12T16:35:53Z</time>
      </trkpt>
      <trkpt lat="45.41782" lon="5.52174">
        <ele>514</ele>
        <time>2022-07-12T16:36:07Z</time>
      </trkpt>
      <trkpt lat="45.4177" lon="5.52259">
        <ele>508</ele>
        <time>2022-07-12T16:36:18Z</time>
      </trkpt>
      <trkpt lat="45.41753" lon="5.52359">
        <ele>503</ele>
        <time>2022-07-12T16:36:31Z</time>
      </trkpt>
      <trkpt lat="45.41736" lon="5.52412">
        <ele>502</ele>
        <time>2022-07-12T16:36:38Z</time>
      </trkpt>
      <trkpt lat="45.41724" lon="5.52462">
        <ele>500</ele>
        <time>2022-07-12T16:36:45Z</time>
      </trkpt>
      <trkpt lat="45.41719" lon="5.52511">
        <ele>497</ele>
        <time>2022-07-12T16:36:51Z</time>
      </trkpt>
      <trkpt lat="45.41706" lon="5.52549">
        <ele>497</ele>
        <time>2022-07-12T16:36:56Z</time>
      </trkpt>
      <trkpt lat="45.41697" lon="5.52571">
        <ele>498</ele>
        <time>2022-07-12T16:36:59Z</time>
      </trkpt>
      <trkpt lat="45.41647" lon="5.52656">
        <ele>501</ele>
        <time>2022-07-12T16:37:13Z</time>
      </trkpt>
      <trkpt lat="45.41611" lon="5.52736">
        <ele>503</ele>
        <time>2022-07-12T16:37:25Z</time>
      </trkpt>
      <trkpt lat="45.41595" lon="5.52765">
        <ele>501</ele>
        <time>2022-07-12T16:37:30Z</time>
      </trkpt>
      <trkpt lat="45.41548" lon="5.52842">
        <ele>496</ele>
        <time>2022-07-12T16:37:42Z</time>
      </trkpt>
      <trkpt lat="45.41493" lon="5.52943">
        <ele>487</ele>
        <time>2022-07-12T16:37:58Z</time>
      </trkpt>
      <trkpt lat="45.41478" lon="5.5296">
        <ele>487</ele>
        <time>2022-07-12T16:38:02Z</time>
      </trkpt>
      <trkpt lat="45.41428" lon="5.53005">
        <ele>481</ele>
        <time>2022-07-12T16:38:12Z</time>
      </trkpt>
      <trkpt lat="45.41401" lon="5.53034">
        <ele>482</ele>
        <time>2022-07-12T16:38:18Z</time>
      </trkpt>
      <trkpt lat="45.41381" lon="5.53061">
        <ele>481</ele>
        <time>2022-07-12T16:38:23Z</time>
      </trkpt>
      <trkpt lat="45.41344" lon="5.53093">
        <ele>478</ele>
        <time>2022-07-12T16:38:31Z</time>
      </trkpt>
      <trkpt lat="45.41328" lon="5.53104">
        <ele>480</ele>
        <time>2022-07-12T16:38:34Z</time>
      </trkpt>
      <trkpt lat="45.41305" lon="5.53115">
        <ele>482</ele>
        <time>2022-07-12T16:38:38Z</time>
      </trkpt>
      <trkpt lat="45.41269" lon="5.53129">
        <ele>483</ele>
        <time>2022-07-12T16:38:45Z</time>
      </trkpt>
      <trkpt lat="45.41249" lon="5.5314">
        <ele>482</ele>
        <time>2022-07-12T16:38:49Z</time>
      </trkpt>
      <trkpt lat="45.41228" lon="5.53153">
        <ele>479</ele>
        <time>2022-07-12T16:38:53Z</time>
      </trkpt>
      <trkpt lat="45.41183" lon="5.53186">
        <ele>477</ele>
        <time>2022-07-12T16:39:02Z</time>
      </trkpt>
      <trkpt lat="45.4117" lon="5.5319">
        <ele>476</ele>
        <time>2022-07-12T16:39:04Z</time>
      </trkpt>
      <trkpt lat="45.41143" lon="5.53192">
        <ele>476</ele>
        <time>2022-07-12T16:39:09Z</time>
      </trkpt>
      <trkpt lat="45.41118" lon="5.53191">
        <ele>475</ele>
        <time>2022-07-12T16:39:13Z</time>
      </trkpt>
      <trkpt lat="45.41063" lon="5.53177">
        <ele>472</ele>
        <time>2022-07-12T16:39:23Z</time>
      </trkpt>
      <trkpt lat="45.41034" lon="5.53179">
        <ele>473</ele>
        <time>2022-07-12T16:39:29Z</time>
      </trkpt>
      <trkpt lat="45.40999" lon="5.53189">
        <ele>475</ele>
        <time>2022-07-12T16:39:35Z</time>
      </trkpt>
      <trkpt lat="45.4097" lon="5.53205">
        <ele>474</ele>
        <time>2022-07-12T16:39:40Z</time>
      </trkpt>
      <trkpt lat="45.40897" lon="5.53292">
        <ele>475</ele>
        <time>2022-07-12T16:39:57Z</time>
      </trkpt>
      <trkpt lat="45.40855" lon="5.53312">
        <ele>476</ele>
        <time>2022-07-12T16:40:05Z</time>
      </trkpt>
      <trkpt lat="45.40824" lon="5.5331">
        <ele>474</ele>
        <time>2022-07-12T16:40:11Z</time>
      </trkpt>
      <trkpt lat="45.40716" lon="5.53296">
        <ele>468</ele>
        <time>2022-07-12T16:40:30Z</time>
      </trkpt>
      <trkpt lat="45.40683" lon="5.53305">
        <ele>467</ele>
        <time>2022-07-12T16:40:36Z</time>
      </trkpt>
      <trkpt lat="45.40669" lon="5.53314">
        <ele>467</ele>
        <time>2022-07-12T16:40:39Z</time>
      </trkpt>
      <trkpt lat="45.40619" lon="5.53369">
        <ele>468</ele>
        <time>2022-07-12T16:40:50Z</time>
      </trkpt>
      <trkpt lat="45.40584" lon="5.534">
        <ele>466</ele>
        <time>2022-07-12T16:40:57Z</time>
      </trkpt>
      <trkpt lat="45.40533" lon="5.5344">
        <ele>465</ele>
        <time>2022-07-12T16:41:08Z</time>
      </trkpt>
      <trkpt lat="45.40441" lon="5.53486">
        <ele>462</ele>
        <time>2022-07-12T16:41:25Z</time>
      </trkpt>
      <trkpt lat="45.40417" lon="5.53495">
        <ele>460</ele>
        <time>2022-07-12T16:41:29Z</time>
      </trkpt>
      <trkpt lat="45.40395" lon="5.53498">
        <ele>461</ele>
        <time>2022-07-12T16:41:33Z</time>
      </trkpt>
      <trkpt lat="45.40359" lon="5.53497">
        <ele>461</ele>
        <time>2022-07-12T16:41:40Z</time>
      </trkpt>
      <trkpt lat="45.40208" lon="5.53458">
        <ele>458</ele>
        <time>2022-07-12T16:42:07Z</time>
      </trkpt>
      <trkpt lat="45.40102" lon="5.53426">
        <ele>458</ele>
        <time>2022-07-12T16:42:26Z</time>
      </trkpt>
      <trkpt lat="45.40075" lon="5.53424">
        <ele>458</ele>
        <time>2022-07-12T16:42:31Z</time>
      </trkpt>
      <trkpt lat="45.40034" lon="5.53428">
        <ele>454</ele>
        <time>2022-07-12T16:42:39Z</time>
      </trkpt>
      <trkpt lat="45.39997" lon="5.53439">
        <ele>452</ele>
        <time>2022-07-12T16:42:45Z</time>
      </trkpt>
      <trkpt lat="45.39933" lon="5.53471">
        <ele>455</ele>
        <time>2022-07-12T16:42:57Z</time>
      </trkpt>
      <trkpt lat="45.39857" lon="5.53494">
        <ele>451</ele>
        <time>2022-07-12T16:43:11Z</time>
      </trkpt>
      <trkpt lat="45.39829" lon="5.53499">
        <ele>449</ele>
        <time>2022-07-12T16:43:16Z</time>
      </trkpt>
      <trkpt lat="45.39795" lon="5.53683">
        <ele>462</ele>
        <time>2022-07-12T16:43:40Z</time>
      </trkpt>
      <trkpt lat="45.39798" lon="5.53736">
        <ele>465</ele>
        <time>2022-07-12T16:43:47Z</time>
      </trkpt>
      <trkpt lat="45.39815" lon="5.53784">
        <ele>467</ele>
        <time>2022-07-12T16:43:53Z</time>
      </trkpt>
      <trkpt lat="45.39845" lon="5.53817">
        <ele>466</ele>
        <time>2022-07-12T16:44:00Z</time>
      </trkpt>
      <trkpt lat="45.39948" lon="5.53881">
        <ele>472</ele>
        <time>2022-07-12T16:44:20Z</time>
      </trkpt>
      <trkpt lat="45.39974" lon="5.53913">
        <ele>470</ele>
        <time>2022-07-12T16:44:26Z</time>
      </trkpt>
      <trkpt lat="45.39996" lon="5.53958">
        <ele>470</ele>
        <time>2022-07-12T16:44:33Z</time>
      </trkpt>
      <trkpt lat="45.40021" lon="5.54015">
        <ele>472</ele>
        <time>2022-07-12T16:44:41Z</time>
      </trkpt>
      <trkpt lat="45.40032" lon="5.54055">
        <ele>473</ele>
        <time>2022-07-12T16:44:47Z</time>
      </trkpt>
      <trkpt lat="45.40031" lon="5.54086">
        <ele>471</ele>
        <time>2022-07-12T16:44:51Z</time>
      </trkpt>
      <trkpt lat="45.4002" lon="5.54143">
        <ele>469</ele>
        <time>2022-07-12T16:44:58Z</time>
      </trkpt>
      <trkpt lat="45.40022" lon="5.54177">
        <ele>468</ele>
        <time>2022-07-12T16:45:02Z</time>
      </trkpt>
      <trkpt lat="45.4003" lon="5.54266">
        <ele>467</ele>
        <time>2022-07-12T16:45:13Z</time>
      </trkpt>
      <trkpt lat="45.4004" lon="5.54331">
        <ele>468</ele>
        <time>2022-07-12T16:45:22Z</time>
      </trkpt>
      <trkpt lat="45.40069" lon="5.54397">
        <ele>469</ele>
        <time>2022-07-12T16:45:32Z</time>
      </trkpt>
      <trkpt lat="45.40188" lon="5.54606">
        <ele>471</ele>
        <time>2022-07-12T16:46:05Z</time>
      </trkpt>
      <trkpt lat="45.40218" lon="5.54658">
        <ele>473</ele>
        <time>2022-07-12T16:46:14Z</time>
      </trkpt>
      <trkpt lat="45.40295" lon="5.54776">
        <ele>475</ele>
        <time>2022-07-12T16:46:34Z</time>
      </trkpt>
      <trkpt lat="45.40357" lon="5.54832">
        <ele>470</ele>
        <time>2022-07-12T16:46:47Z</time>
      </trkpt>
      <trkpt lat="45.40375" lon="5.54857">
        <ele>471</ele>
        <time>2022-07-12T16:46:51Z</time>
      </trkpt>
      <trkpt lat="45.40412" lon="5.5504">
        <ele>477</ele>
        <time>2022-07-12T16:47:15Z</time>
      </trkpt>
      <trkpt lat="45.40421" lon="5.55175">
        <ele>483</ele>
        <time>2022-07-12T16:47:32Z</time>
      </trkpt>
      <trkpt lat="45.40437" lon="5.55223">
        <ele>482</ele>
        <time>2022-07-12T16:47:39Z</time>
      </trkpt>
      <trkpt lat="45.40448" lon="5.55242">
        <ele>480</ele>
        <time>2022-07-12T16:47:42Z</time>
      </trkpt>
      <trkpt lat="45.40504" lon="5.55311">
        <ele>473</ele>
        <time>2022-07-12T16:47:55Z</time>
      </trkpt>
      <trkpt lat="45.40553" lon="5.55388">
        <ele>476</ele>
        <time>2022-07-12T16:48:08Z</time>
      </trkpt>
      <trkpt lat="45.40586" lon="5.55416">
        <ele>473</ele>
        <time>2022-07-12T16:48:15Z</time>
      </trkpt>
      <trkpt lat="45.40645" lon="5.55486">
        <ele>475</ele>
        <time>2022-07-12T16:48:28Z</time>
      </trkpt>
      <trkpt lat="45.40662" lon="5.55497">
        <ele>475</ele>
        <time>2022-07-12T16:48:32Z</time>
      </trkpt>
      <trkpt lat="45.40696" lon="5.55504">
        <ele>476</ele>
        <time>2022-07-12T16:48:38Z</time>
      </trkpt>
      <trkpt lat="45.40771" lon="5.55495">
        <ele>477</ele>
        <time>2022-07-12T16:48:51Z</time>
      </trkpt>
      <trkpt lat="45.40792" lon="5.55499">
        <ele>476</ele>
        <time>2022-07-12T16:48:55Z</time>
      </trkpt>
      <trkpt lat="45.40856" lon="5.55544">
        <ele>476</ele>
        <time>2022-07-12T16:49:08Z</time>
      </trkpt>
      <trkpt lat="45.40899" lon="5.55563">
        <ele>476</ele>
        <time>2022-07-12T16:49:16Z</time>
      </trkpt>
      <trkpt lat="45.4093" lon="5.55585">
        <ele>475</ele>
        <time>2022-07-12T16:49:22Z</time>
      </trkpt>
      <trkpt lat="45.41013" lon="5.55688">
        <ele>476</ele>
        <time>2022-07-12T16:49:41Z</time>
      </trkpt>
      <trkpt lat="45.4104" lon="5.55713">
        <ele>477</ele>
        <time>2022-07-12T16:49:47Z</time>
      </trkpt>
      <trkpt lat="45.41038" lon="5.5572">
        <ele>477</ele>
        <time>2022-07-12T16:49:48Z</time>
      </trkpt>
      <trkpt lat="45.41031" lon="5.5573">
        <ele>478</ele>
        <time>2022-07-12T16:49:50Z</time>
      </trkpt>
      <trkpt lat="45.40993" lon="5.55724">
        <ele>480</ele>
        <time>2022-07-12T16:49:57Z</time>
      </trkpt>
      <trkpt lat="45.40983" lon="5.55763">
        <ele>482</ele>
        <time>2022-07-12T16:50:02Z</time>
      </trkpt>
      <trkpt lat="45.40975" lon="5.55786">
        <ele>484</ele>
        <time>2022-07-12T16:50:05Z</time>
      </trkpt>
      <trkpt lat="45.40973" lon="5.55785">
        <ele>484</ele>
        <time>2022-07-12T16:50:05Z</time>
      </trkpt>
      <trkpt lat="45.40926" lon="5.55802">
        <ele>487</ele>
        <time>2022-07-12T16:50:14Z</time>
      </trkpt>
      <trkpt lat="45.40902" lon="5.55814">
        <ele>488</ele>
        <time>2022-07-12T16:50:19Z</time>
      </trkpt>
      <trkpt lat="45.40892" lon="5.55863">
        <ele>488</ele>
        <time>2022-07-12T16:50:25Z</time>
      </trkpt>
      <trkpt lat="45.40876" lon="5.5588">
        <ele>488</ele>
        <time>2022-07-12T16:50:28Z</time>
      </trkpt>
      <trkpt lat="45.40898" lon="5.55967">
        <ele>484</ele>
        <time>2022-07-12T16:50:40Z</time>
      </trkpt>
      <trkpt lat="45.40899" lon="5.55979">
        <ele>483</ele>
        <time>2022-07-12T16:50:42Z</time>
      </trkpt>
      <trkpt lat="45.40894" lon="5.55997">
        <ele>482</ele>
        <time>2022-07-12T16:50:44Z</time>
      </trkpt>
      <trkpt lat="45.40892" lon="5.56014">
        <ele>482</ele>
        <time>2022-07-12T16:50:46Z</time>
      </trkpt>
      <trkpt lat="45.40889" lon="5.56065">
        <ele>480</ele>
        <time>2022-07-12T16:50:52Z</time>
      </trkpt>
      <trkpt lat="45.40884" lon="5.561">
        <ele>481</ele>
        <time>2022-07-12T16:50:57Z</time>
      </trkpt>
      <trkpt lat="45.40884" lon="5.56111">
        <ele>482</ele>
        <time>2022-07-12T16:50:58Z</time>
      </trkpt>
      <trkpt lat="45.40886" lon="5.56118">
        <ele>482</ele>
        <time>2022-07-12T16:50:59Z</time>
      </trkpt>
      <trkpt lat="45.40631" lon="5.56355">
        <ele>490</ele>
        <time>2022-07-12T16:51:53Z</time>
      </trkpt>
      <trkpt lat="45.40282" lon="5.56684">
        <ele>496</ele>
        <time>2022-07-12T16:53:08Z</time>
      </trkpt>
      <trkpt lat="45.40288" lon="5.56696">
        <ele>496</ele>
        <time>2022-07-12T16:53:10Z</time>
      </trkpt>
      <trkpt lat="45.40293" lon="5.56711">
        <ele>496</ele>
        <time>2022-07-12T16:53:12Z</time>
      </trkpt>
      <trkpt lat="45.40287" lon="5.56745">
        <ele>496</ele>
        <time>2022-07-12T16:53:16Z</time>
      </trkpt>
      <trkpt lat="45.40275" lon="5.56787">
        <ele>496</ele>
        <time>2022-07-12T16:53:22Z</time>
      </trkpt>
      <trkpt lat="45.40243" lon="5.56922">
        <ele>493</ele>
        <time>2022-07-12T16:53:40Z</time>
      </trkpt>
      <trkpt lat="45.40182" lon="5.57139">
        <ele>494</ele>
        <time>2022-07-12T16:54:09Z</time>
      </trkpt>
      <trkpt lat="45.40141" lon="5.57276">
        <ele>495</ele>
        <time>2022-07-12T16:54:27Z</time>
      </trkpt>
      <trkpt lat="45.40043" lon="5.57619">
        <ele>496</ele>
        <time>2022-07-12T16:55:14Z</time>
      </trkpt>
      <trkpt lat="45.39996" lon="5.57789">
        <ele>498</ele>
        <time>2022-07-12T16:55:37Z</time>
      </trkpt>
      <trkpt lat="45.39985" lon="5.57821">
        <ele>498</ele>
        <time>2022-07-12T16:55:41Z</time>
      </trkpt>
      <trkpt lat="45.3998" lon="5.57849">
        <ele>498</ele>
        <time>2022-07-12T16:55:45Z</time>
      </trkpt>
      <trkpt lat="45.39956" lon="5.57937">
        <ele>499</ele>
        <time>2022-07-12T16:55:56Z</time>
      </trkpt>
      <trkpt lat="45.39944" lon="5.57995">
        <ele>499</ele>
        <time>2022-07-12T16:56:04Z</time>
      </trkpt>
      <trkpt lat="45.3994" lon="5.58026">
        <ele>500</ele>
        <time>2022-07-12T16:56:08Z</time>
      </trkpt>
      <trkpt lat="45.39939" lon="5.58115">
        <ele>502</ele>
        <time>2022-07-12T16:56:19Z</time>
      </trkpt>
      <trkpt lat="45.39932" lon="5.58341">
        <ele>502</ele>
        <time>2022-07-12T16:56:47Z</time>
      </trkpt>
      <trkpt lat="45.3991" lon="5.58471">
        <ele>499</ele>
        <time>2022-07-12T16:57:04Z</time>
      </trkpt>
      <trkpt lat="45.39906" lon="5.5851">
        <ele>499</ele>
        <time>2022-07-12T16:57:09Z</time>
      </trkpt>
      <trkpt lat="45.39913" lon="5.58584">
        <ele>500</ele>
        <time>2022-07-12T16:57:18Z</time>
      </trkpt>
      <trkpt lat="45.39945" lon="5.58737">
        <ele>501</ele>
        <time>2022-07-12T16:57:38Z</time>
      </trkpt>
      <trkpt lat="45.3995" lon="5.58779">
        <ele>502</ele>
        <time>2022-07-12T16:57:44Z</time>
      </trkpt>
      <trkpt lat="45.39955" lon="5.58915">
        <ele>503</ele>
        <time>2022-07-12T16:58:01Z</time>
      </trkpt>
      <trkpt lat="45.40006" lon="5.59263">
        <ele>503</ele>
        <time>2022-07-12T16:58:45Z</time>
      </trkpt>
      <trkpt lat="45.40005" lon="5.59309">
        <ele>501</ele>
        <time>2022-07-12T16:58:51Z</time>
      </trkpt>
      <trkpt lat="45.39978" lon="5.5941">
        <ele>499</ele>
        <time>2022-07-12T16:59:04Z</time>
      </trkpt>
      <trkpt lat="45.39969" lon="5.59472">
        <ele>499</ele>
        <time>2022-07-12T16:59:12Z</time>
      </trkpt>
      <trkpt lat="45.39967" lon="5.59509">
        <ele>500</ele>
        <time>2022-07-12T16:59:17Z</time>
      </trkpt>
      <trkpt lat="45.39968" lon="5.59746">
        <ele>499</ele>
        <time>2022-07-12T16:59:46Z</time>
      </trkpt>
      <trkpt lat="45.3997" lon="5.59825">
        <ele>499</ele>
        <time>2022-07-12T16:59:56Z</time>
      </trkpt>
      <trkpt lat="45.39978" lon="5.59898">
        <ele>499</ele>
        <time>2022-07-12T17:00:05Z</time>
      </trkpt>
      <trkpt lat="45.4002" lon="5.60063">
        <ele>497</ele>
        <time>2022-07-12T17:00:27Z</time>
      </trkpt>
      <trkpt lat="45.40035" lon="5.60132">
        <ele>496</ele>
        <time>2022-07-12T17:00:36Z</time>
      </trkpt>
      <trkpt lat="45.40041" lon="5.60185">
        <ele>496</ele>
        <time>2022-07-12T17:00:43Z</time>
      </trkpt>
      <trkpt lat="45.40041" lon="5.60208">
        <ele>496</ele>
        <time>2022-07-12T17:00:46Z</time>
      </trkpt>
      <trkpt lat="45.40039" lon="5.60231">
        <ele>496</ele>
        <time>2022-07-12T17:00:49Z</time>
      </trkpt>
      <trkpt lat="45.40035" lon="5.60245">
        <ele>497</ele>
        <time>2022-07-12T17:00:51Z</time>
      </trkpt>
      <trkpt lat="45.39967" lon="5.60406">
        <ele>497</ele>
        <time>2022-07-12T17:01:14Z</time>
      </trkpt>
      <trkpt lat="45.39938" lon="5.60461">
        <ele>498</ele>
        <time>2022-07-12T17:01:23Z</time>
      </trkpt>
      <trkpt lat="45.39928" lon="5.60486">
        <ele>499</ele>
        <time>2022-07-12T17:01:26Z</time>
      </trkpt>
      <trkpt lat="45.39899" lon="5.60539">
        <ele>499</ele>
        <time>2022-07-12T17:01:35Z</time>
      </trkpt>
      <trkpt lat="45.39897" lon="5.60547">
        <ele>499</ele>
        <time>2022-07-12T17:01:36Z</time>
      </trkpt>
      <trkpt lat="45.39891" lon="5.60585">
        <ele>500</ele>
        <time>2022-07-12T17:01:41Z</time>
      </trkpt>
      <trkpt lat="45.39864" lon="5.60762">
        <ele>494</ele>
        <time>2022-07-12T17:02:03Z</time>
      </trkpt>
      <trkpt lat="45.39856" lon="5.60796">
        <ele>493</ele>
        <time>2022-07-12T17:02:08Z</time>
      </trkpt>
      <trkpt lat="45.39847" lon="5.60814">
        <ele>492</ele>
        <time>2022-07-12T17:02:11Z</time>
      </trkpt>
      <trkpt lat="45.39804" lon="5.60886">
        <ele>490</ele>
        <time>2022-07-12T17:02:22Z</time>
      </trkpt>
      <trkpt lat="45.39785" lon="5.60924">
        <ele>489</ele>
        <time>2022-07-12T17:02:28Z</time>
      </trkpt>
      <trkpt lat="45.39758" lon="5.60985">
        <ele>487</ele>
        <time>2022-07-12T17:02:37Z</time>
      </trkpt>
      <trkpt lat="45.39744" lon="5.61009">
        <ele>487</ele>
        <time>2022-07-12T17:02:41Z</time>
      </trkpt>
      <trkpt lat="45.3973" lon="5.61031">
        <ele>485</ele>
        <time>2022-07-12T17:02:45Z</time>
      </trkpt>
      <trkpt lat="45.39703" lon="5.61066">
        <ele>483</ele>
        <time>2022-07-12T17:02:51Z</time>
      </trkpt>
      <trkpt lat="45.39678" lon="5.61106">
        <ele>481</ele>
        <time>2022-07-12T17:02:58Z</time>
      </trkpt>
      <trkpt lat="45.39634" lon="5.61189">
        <ele>478</ele>
        <time>2022-07-12T17:03:11Z</time>
      </trkpt>
      <trkpt lat="45.39624" lon="5.61231">
        <ele>478</ele>
        <time>2022-07-12T17:03:17Z</time>
      </trkpt>
      <trkpt lat="45.39634" lon="5.61294">
        <ele>479</ele>
        <time>2022-07-12T17:03:25Z</time>
      </trkpt>
      <trkpt lat="45.39634" lon="5.61312">
        <ele>479</ele>
        <time>2022-07-12T17:03:27Z</time>
      </trkpt>
      <trkpt lat="45.39628" lon="5.6133">
        <ele>478</ele>
        <time>2022-07-12T17:03:29Z</time>
      </trkpt>
      <trkpt lat="45.39621" lon="5.61342">
        <ele>478</ele>
        <time>2022-07-12T17:03:31Z</time>
      </trkpt>
      <trkpt lat="45.39535" lon="5.6143">
        <ele>474</ele>
        <time>2022-07-12T17:03:50Z</time>
      </trkpt>
      <trkpt lat="45.39531" lon="5.61437">
        <ele>474</ele>
        <time>2022-07-12T17:03:51Z</time>
      </trkpt>
      <trkpt lat="45.39515" lon="5.61471">
        <ele>474</ele>
        <time>2022-07-12T17:03:56Z</time>
      </trkpt>
      <trkpt lat="45.39497" lon="5.61547">
        <ele>475</ele>
        <time>2022-07-12T17:04:06Z</time>
      </trkpt>
      <trkpt lat="45.3944" lon="5.61692">
        <ele>470</ele>
        <time>2022-07-12T17:04:27Z</time>
      </trkpt>
      <trkpt lat="45.39417" lon="5.61743">
        <ele>469</ele>
        <time>2022-07-12T17:04:35Z</time>
      </trkpt>
      <trkpt lat="45.39399" lon="5.61766">
        <ele>468</ele>
        <time>2022-07-12T17:04:39Z</time>
      </trkpt>
      <trkpt lat="45.39318" lon="5.6184">
        <ele>463</ele>
        <time>2022-07-12T17:04:56Z</time>
      </trkpt>
      <trkpt lat="45.39297" lon="5.61862">
        <ele>463</ele>
        <time>2022-07-12T17:05:01Z</time>
      </trkpt>
      <trkpt lat="45.39231" lon="5.61967">
        <ele>460</ele>
        <time>2022-07-12T17:05:18Z</time>
      </trkpt>
      <trkpt lat="45.39215" lon="5.6199">
        <ele>460</ele>
        <time>2022-07-12T17:05:23Z</time>
      </trkpt>
      <trkpt lat="45.3916" lon="5.62053">
        <ele>460</ele>
        <time>2022-07-12T17:05:35Z</time>
      </trkpt>
      <trkpt lat="45.39105" lon="5.62121">
        <ele>459</ele>
        <time>2022-07-12T17:05:48Z</time>
      </trkpt>
      <trkpt lat="45.39097" lon="5.62136">
        <ele>460</ele>
        <time>2022-07-12T17:05:50Z</time>
      </trkpt>
      <trkpt lat="45.39088" lon="5.62153">
        <ele>460</ele>
        <time>2022-07-12T17:05:53Z</time>
      </trkpt>
      <trkpt lat="45.39048" lon="5.62268">
        <ele>460</ele>
        <time>2022-07-12T17:06:09Z</time>
      </trkpt>
      <trkpt lat="45.39025" lon="5.62352">
        <ele>458</ele>
        <time>2022-07-12T17:06:20Z</time>
      </trkpt>
      <trkpt lat="45.38975" lon="5.6257">
        <ele>458</ele>
        <time>2022-07-12T17:06:49Z</time>
      </trkpt>
      <trkpt lat="45.38967" lon="5.62604">
        <ele>458</ele>
        <time>2022-07-12T17:06:53Z</time>
      </trkpt>
      <trkpt lat="45.38954" lon="5.62663">
        <ele>456</ele>
        <time>2022-07-12T17:07:01Z</time>
      </trkpt>
      <trkpt lat="45.38946" lon="5.62679">
        <ele>456</ele>
        <time>2022-07-12T17:07:04Z</time>
      </trkpt>
      <trkpt lat="45.38926" lon="5.62709">
        <ele>454</ele>
        <time>2022-07-12T17:07:09Z</time>
      </trkpt>
      <trkpt lat="45.38885" lon="5.62829">
        <ele>454</ele>
        <time>2022-07-12T17:07:25Z</time>
      </trkpt>
      <trkpt lat="45.38869" lon="5.62894">
        <ele>450</ele>
        <time>2022-07-12T17:07:34Z</time>
      </trkpt>
      <trkpt lat="45.38853" lon="5.62969">
        <ele>448</ele>
        <time>2022-07-12T17:07:44Z</time>
      </trkpt>
      <trkpt lat="45.38847" lon="5.63006">
        <ele>447</ele>
        <time>2022-07-12T17:07:49Z</time>
      </trkpt>
      <trkpt lat="45.38837" lon="5.63042">
        <ele>444</ele>
        <time>2022-07-12T17:07:53Z</time>
      </trkpt>
      <trkpt lat="45.38826" lon="5.63065">
        <ele>443</ele>
        <time>2022-07-12T17:07:57Z</time>
      </trkpt>
      <trkpt lat="45.3881" lon="5.63085">
        <ele>442</ele>
        <time>2022-07-12T17:08:01Z</time>
      </trkpt>
      <trkpt lat="45.38744" lon="5.63153">
        <ele>441</ele>
        <time>2022-07-12T17:08:15Z</time>
      </trkpt>
      <trkpt lat="45.3872" lon="5.63173">
        <ele>440</ele>
        <time>2022-07-12T17:08:20Z</time>
      </trkpt>
      <trkpt lat="45.3867" lon="5.6324">
        <ele>437</ele>
        <time>2022-07-12T17:08:32Z</time>
      </trkpt>
      <trkpt lat="45.38652" lon="5.63257">
        <ele>436</ele>
        <time>2022-07-12T17:08:36Z</time>
      </trkpt>
      <trkpt lat="45.38638" lon="5.63269">
        <ele>435</ele>
        <time>2022-07-12T17:08:39Z</time>
      </trkpt>
      <trkpt lat="45.38561" lon="5.63311">
        <ele>430</ele>
        <time>2022-07-12T17:08:54Z</time>
      </trkpt>
      <trkpt lat="45.38521" lon="5.63341">
        <ele>428</ele>
        <time>2022-07-12T17:09:02Z</time>
      </trkpt>
      <trkpt lat="45.38504" lon="5.63362">
        <ele>427</ele>
        <time>2022-07-12T17:09:06Z</time>
      </trkpt>
      <trkpt lat="45.38493" lon="5.6338">
        <ele>427</ele>
        <time>2022-07-12T17:09:09Z</time>
      </trkpt>
      <trkpt lat="45.38481" lon="5.63404">
        <ele>428</ele>
        <time>2022-07-12T17:09:13Z</time>
      </trkpt>
      <trkpt lat="45.38467" lon="5.63452">
        <ele>428</ele>
        <time>2022-07-12T17:09:19Z</time>
      </trkpt>
      <trkpt lat="45.3848" lon="5.63462">
        <ele>428</ele>
        <time>2022-07-12T17:09:22Z</time>
      </trkpt>
      <trkpt lat="45.38657" lon="5.63682">
        <ele>434</ele>
        <time>2022-07-12T17:10:03Z</time>
      </trkpt>
      <trkpt lat="45.38666" lon="5.63696">
        <ele>435</ele>
        <time>2022-07-12T17:10:06Z</time>
      </trkpt>
      <trkpt lat="45.3867" lon="5.63716">
        <ele>438</ele>
        <time>2022-07-12T17:10:08Z</time>
      </trkpt>
      <trkpt lat="45.38684" lon="5.63821">
        <ele>445</ele>
        <time>2022-07-12T17:10:22Z</time>
      </trkpt>
      <trkpt lat="45.38684" lon="5.63829">
        <ele>445</ele>
        <time>2022-07-12T17:10:23Z</time>
      </trkpt>
      <trkpt lat="45.38707" lon="5.63921">
        <ele>450</ele>
        <time>2022-07-12T17:10:35Z</time>
      </trkpt>
      <trkpt lat="45.38714" lon="5.63935">
        <ele>452</ele>
        <time>2022-07-12T17:10:37Z</time>
      </trkpt>
      <trkpt lat="45.38738" lon="5.63967">
        <ele>456</ele>
        <time>2022-07-12T17:10:43Z</time>
      </trkpt>
      <trkpt lat="45.38765" lon="5.6403">
        <ele>458</ele>
        <time>2022-07-12T17:10:52Z</time>
      </trkpt>
      <trkpt lat="45.38859" lon="5.64195">
        <ele>455</ele>
        <time>2022-07-12T17:11:19Z</time>
      </trkpt>
      <trkpt lat="45.38899" lon="5.64246">
        <ele>454</ele>
        <time>2022-07-12T17:11:28Z</time>
      </trkpt>
      <trkpt lat="45.38923" lon="5.64287">
        <ele>453</ele>
        <time>2022-07-12T17:11:35Z</time>
      </trkpt>
      <trkpt lat="45.38928" lon="5.64293">
        <ele>454</ele>
        <time>2022-07-12T17:11:36Z</time>
      </trkpt>
      <trkpt lat="45.38941" lon="5.64302">
        <ele>455</ele>
        <time>2022-07-12T17:11:39Z</time>
      </trkpt>
      <trkpt lat="45.38955" lon="5.64299">
        <ele>457</ele>
        <time>2022-07-12T17:11:41Z</time>
      </trkpt>
      <trkpt lat="45.38966" lon="5.64305">
        <ele>458</ele>
        <time>2022-07-12T17:11:43Z</time>
      </trkpt>
      <trkpt lat="45.38987" lon="5.64332">
        <ele>458</ele>
        <time>2022-07-12T17:11:48Z</time>
      </trkpt>
      <trkpt lat="45.39008" lon="5.64362">
        <ele>460</ele>
        <time>2022-07-12T17:11:54Z</time>
      </trkpt>
      <trkpt lat="45.39016" lon="5.6438">
        <ele>461</ele>
        <time>2022-07-12T17:11:56Z</time>
      </trkpt>
      <trkpt lat="45.39024" lon="5.64409">
        <ele>460</ele>
        <time>2022-07-12T17:12:00Z</time>
      </trkpt>
      <trkpt lat="45.39026" lon="5.6444">
        <ele>459</ele>
        <time>2022-07-12T17:12:04Z</time>
      </trkpt>
      <trkpt lat="45.39026" lon="5.64464">
        <ele>458</ele>
        <time>2022-07-12T17:12:07Z</time>
      </trkpt>
      <trkpt lat="45.39038" lon="5.64513">
        <ele>457</ele>
        <time>2022-07-12T17:12:14Z</time>
      </trkpt>
      <trkpt lat="45.3906" lon="5.64576">
        <ele>455</ele>
        <time>2022-07-12T17:12:22Z</time>
      </trkpt>
      <trkpt lat="45.39084" lon="5.64629">
        <ele>455</ele>
        <time>2022-07-12T17:12:30Z</time>
      </trkpt>
      <trkpt lat="45.39119" lon="5.64693">
        <ele>456</ele>
        <time>2022-07-12T17:12:40Z</time>
      </trkpt>
      <trkpt lat="45.39123" lon="5.64715">
        <ele>456</ele>
        <time>2022-07-12T17:12:43Z</time>
      </trkpt>
      <trkpt lat="45.3912" lon="5.64721">
        <ele>456</ele>
        <time>2022-07-12T17:12:44Z</time>
      </trkpt>
      <trkpt lat="45.3912" lon="5.64726">
        <ele>456</ele>
        <time>2022-07-12T17:12:45Z</time>
      </trkpt>
      <trkpt lat="45.39122" lon="5.64733">
        <ele>457</ele>
        <time>2022-07-12T17:12:46Z</time>
      </trkpt>
      <trkpt lat="45.39127" lon="5.64737">
        <ele>457</ele>
        <time>2022-07-12T17:12:47Z</time>
      </trkpt>
      <trkpt lat="45.39132" lon="5.64735">
        <ele>457</ele>
        <time>2022-07-12T17:12:48Z</time>
      </trkpt>
      <trkpt lat="45.39136" lon="5.64726">
        <ele>457</ele>
        <time>2022-07-12T17:12:49Z</time>
      </trkpt>
      <trkpt lat="45.39166" lon="5.64731">
        <ele>459</ele>
        <time>2022-07-12T17:12:54Z</time>
      </trkpt>
      <trkpt lat="45.39177" lon="5.6474">
        <ele>459</ele>
        <time>2022-07-12T17:12:57Z</time>
      </trkpt>
      <trkpt lat="45.39183" lon="5.64753">
        <ele>459</ele>
        <time>2022-07-12T17:12:59Z</time>
      </trkpt>
      <trkpt lat="45.39185" lon="5.64762">
        <ele>459</ele>
        <time>2022-07-12T17:13:00Z</time>
      </trkpt>
      <trkpt lat="45.39207" lon="5.6491">
        <ele>461</ele>
        <time>2022-07-12T17:13:19Z</time>
      </trkpt>
      <trkpt lat="45.39216" lon="5.6499">
        <ele>462</ele>
        <time>2022-07-12T17:13:29Z</time>
      </trkpt>
      <trkpt lat="45.39225" lon="5.65034">
        <ele>462</ele>
        <time>2022-07-12T17:13:35Z</time>
      </trkpt>
      <trkpt lat="45.39238" lon="5.65129">
        <ele>461</ele>
        <time>2022-07-12T17:13:47Z</time>
      </trkpt>
      <trkpt lat="45.39242" lon="5.65184">
        <ele>459.5</ele>
        <time>2022-07-12T17:13:50Z</time>
      </trkpt>
      <trkpt lat="45.39237" lon="5.65248">
        <ele>459</ele>
        <time>2022-07-12T17:14:02Z</time>
      </trkpt>
      <trkpt lat="45.39242" lon="5.65297">
        <ele>459</ele>
        <time>2022-07-12T17:14:08Z</time>
      </trkpt>
      <trkpt lat="45.39253" lon="5.65342">
        <ele>458</ele>
        <time>2022-07-12T17:14:14Z</time>
      </trkpt>
      <trkpt lat="45.39269" lon="5.65392">
        <ele>456</ele>
        <time>2022-07-12T17:14:21Z</time>
      </trkpt>
      <trkpt lat="45.39283" lon="5.65421">
        <ele>456</ele>
        <time>2022-07-12T17:14:25Z</time>
      </trkpt>
      <trkpt lat="45.39312" lon="5.65464">
        <ele>456</ele>
        <time>2022-07-12T17:14:32Z</time>
      </trkpt>
      <trkpt lat="45.39335" lon="5.65492">
        <ele>456</ele>
        <time>2022-07-12T17:14:38Z</time>
      </trkpt>
      <trkpt lat="45.3938" lon="5.65532">
        <ele>462</ele>
        <time>2022-07-12T17:14:47Z</time>
      </trkpt>
      <trkpt lat="45.39395" lon="5.65557">
        <ele>462</ele>
        <time>2022-07-12T17:14:51Z</time>
      </trkpt>
      <trkpt lat="45.39414" lon="5.65617">
        <ele>463</ele>
        <time>2022-07-12T17:15:00Z</time>
      </trkpt>
      <trkpt lat="45.39419" lon="5.65642">
        <ele>464</ele>
        <time>2022-07-12T17:15:03Z</time>
      </trkpt>
      <trkpt lat="45.39429" lon="5.657">
        <ele>464</ele>
        <time>2022-07-12T17:15:10Z</time>
      </trkpt>
      <trkpt lat="45.39452" lon="5.65821">
        <ele>464</ele>
        <time>2022-07-12T17:15:26Z</time>
      </trkpt>
      <trkpt lat="45.39458" lon="5.6589">
        <ele>463</ele>
        <time>2022-07-12T17:15:35Z</time>
      </trkpt>
      <trkpt lat="45.39461" lon="5.65915">
        <ele>463</ele>
        <time>2022-07-12T17:15:38Z</time>
      </trkpt>
      <trkpt lat="45.39471" lon="5.65962">
        <ele>463</ele>
        <time>2022-07-12T17:15:44Z</time>
      </trkpt>
      <trkpt lat="45.39491" lon="5.66016">
        <ele>463</ele>
        <time>2022-07-12T17:15:52Z</time>
      </trkpt>
      <trkpt lat="45.39529" lon="5.66069">
        <ele>463</ele>
        <time>2022-07-12T17:16:01Z</time>
      </trkpt>
      <trkpt lat="45.39554" lon="5.66096">
        <ele>464</ele>
        <time>2022-07-12T17:16:07Z</time>
      </trkpt>
      <trkpt lat="45.39597" lon="5.66159">
        <ele>463</ele>
        <time>2022-07-12T17:16:18Z</time>
      </trkpt>
      <trkpt lat="45.39634" lon="5.66219">
        <ele>458.2</ele>
        <time>2022-07-12T17:16:31Z</time>
      </trkpt>
      <trkpt lat="45.39671" lon="5.66254">
        <ele>462</ele>
        <time>2022-07-12T17:16:35Z</time>
      </trkpt>
      <trkpt lat="45.39748" lon="5.663">
        <ele>464</ele>
        <time>2022-07-12T17:16:50Z</time>
      </trkpt>
      <trkpt lat="45.39841" lon="5.66338">
        <ele>465</ele>
        <time>2022-07-12T17:17:08Z</time>
      </trkpt>
      <trkpt lat="45.3986" lon="5.66348">
        <ele>466</ele>
        <time>2022-07-12T17:17:11Z</time>
      </trkpt>
      <trkpt lat="45.39913" lon="5.66383">
        <ele>465</ele>
        <time>2022-07-12T17:17:22Z</time>
      </trkpt>
      <trkpt lat="45.39951" lon="5.66404">
        <ele>465</ele>
        <time>2022-07-12T17:17:29Z</time>
      </trkpt>
      <trkpt lat="45.39987" lon="5.66419">
        <ele>465</ele>
        <time>2022-07-12T17:17:35Z</time>
      </trkpt>
      <trkpt lat="45.40022" lon="5.66438">
        <ele>468</ele>
        <time>2022-07-12T17:17:42Z</time>
      </trkpt>
      <trkpt lat="45.40054" lon="5.66462">
        <ele>469</ele>
        <time>2022-07-12T17:17:49Z</time>
      </trkpt>
      <trkpt lat="45.40115" lon="5.66528">
        <ele>471</ele>
        <time>2022-07-12T17:18:02Z</time>
      </trkpt>
      <trkpt lat="45.40127" lon="5.66538">
        <ele>471</ele>
        <time>2022-07-12T17:18:05Z</time>
      </trkpt>
      <trkpt lat="45.40161" lon="5.66562">
        <ele>472</ele>
        <time>2022-07-12T17:18:11Z</time>
      </trkpt>
      <trkpt lat="45.40174" lon="5.66575">
        <ele>472</ele>
        <time>2022-07-12T17:18:14Z</time>
      </trkpt>
      <trkpt lat="45.40244" lon="5.66671">
        <ele>475</ele>
        <time>2022-07-12T17:18:32Z</time>
      </trkpt>
      <trkpt lat="45.40265" lon="5.66698">
        <ele>475</ele>
        <time>2022-07-12T17:18:37Z</time>
      </trkpt>
      <trkpt lat="45.40277" lon="5.66708">
        <ele>475</ele>
        <time>2022-07-12T17:18:39Z</time>
      </trkpt>
      <trkpt lat="45.40296" lon="5.66718">
        <ele>476</ele>
        <time>2022-07-12T17:18:43Z</time>
      </trkpt>
      <trkpt lat="45.40335" lon="5.66728">
        <ele>477</ele>
        <time>2022-07-12T17:18:50Z</time>
      </trkpt>
      <trkpt lat="45.40362" lon="5.66748">
        <ele>477</ele>
        <time>2022-07-12T17:18:55Z</time>
      </trkpt>
      <trkpt lat="45.40528" lon="5.66919">
        <ele>482</ele>
        <time>2022-07-12T17:19:32Z</time>
      </trkpt>
      <trkpt lat="45.40565" lon="5.66963">
        <ele>484</ele>
        <time>2022-07-12T17:19:40Z</time>
      </trkpt>
      <trkpt lat="45.40606" lon="5.67005">
        <ele>486</ele>
        <time>2022-07-12T17:19:49Z</time>
      </trkpt>
      <trkpt lat="45.40771" lon="5.67053">
        <ele>490</ele>
        <time>2022-07-12T17:20:19Z</time>
      </trkpt>
      <trkpt lat="45.40798" lon="5.6707">
        <ele>492</ele>
        <time>2022-07-12T17:20:24Z</time>
      </trkpt>
      <trkpt lat="45.40888" lon="5.67186">
        <ele>499</ele>
        <time>2022-07-12T17:20:46Z</time>
      </trkpt>
      <trkpt lat="45.40895" lon="5.67198">
        <ele>499</ele>
        <time>2022-07-12T17:20:48Z</time>
      </trkpt>
      <trkpt lat="45.40907" lon="5.67224">
        <ele>500</ele>
        <time>2022-07-12T17:20:52Z</time>
      </trkpt>
      <trkpt lat="45.40937" lon="5.67282">
        <ele>502</ele>
        <time>2022-07-12T17:21:01Z</time>
      </trkpt>
      <trkpt lat="45.40945" lon="5.67291">
        <ele>502</ele>
        <time>2022-07-12T17:21:03Z</time>
      </trkpt>
      <trkpt lat="45.40986" lon="5.67315">
        <ele>503</ele>
        <time>2022-07-12T17:21:11Z</time>
      </trkpt>
      <trkpt lat="45.41072" lon="5.67377">
        <ele>511</ele>
        <time>2022-07-12T17:21:28Z</time>
      </trkpt>
      <trkpt lat="45.41303" lon="5.67524">
        <ele>532</ele>
        <time>2022-07-12T17:22:13Z</time>
      </trkpt>
      <trkpt lat="45.41315" lon="5.6754">
        <ele>534</ele>
        <time>2022-07-12T17:22:16Z</time>
      </trkpt>
      <trkpt lat="45.41318" lon="5.67559">
        <ele>535</ele>
        <time>2022-07-12T17:22:18Z</time>
      </trkpt>
      <trkpt lat="45.41313" lon="5.67597">
        <ele>535</ele>
        <time>2022-07-12T17:22:23Z</time>
      </trkpt>
      <trkpt lat="45.41316" lon="5.67638">
        <ele>537</ele>
        <time>2022-07-12T17:22:28Z</time>
      </trkpt>
      <trkpt lat="45.41315" lon="5.67689">
        <ele>538</ele>
        <time>2022-07-12T17:22:34Z</time>
      </trkpt>
      <trkpt lat="45.41317" lon="5.67706">
        <ele>539</ele>
        <time>2022-07-12T17:22:37Z</time>
      </trkpt>
      <trkpt lat="45.41338" lon="5.678">
        <ele>547</ele>
        <time>2022-07-12T17:22:49Z</time>
      </trkpt>
      <trkpt lat="45.41341" lon="5.67816">
        <ele>549</ele>
        <time>2022-07-12T17:22:51Z</time>
      </trkpt>
      <trkpt lat="45.41341" lon="5.67829">
        <ele>550</ele>
        <time>2022-07-12T17:22:53Z</time>
      </trkpt>
      <trkpt lat="45.41337" lon="5.67873">
        <ele>553</ele>
        <time>2022-07-12T17:22:58Z</time>
      </trkpt>
      <trkpt lat="45.41336" lon="5.67904">
        <ele>557</ele>
        <time>2022-07-12T17:23:02Z</time>
      </trkpt>
      <trkpt lat="45.41337" lon="5.67939">
        <ele>560</ele>
        <time>2022-07-12T17:23:06Z</time>
      </trkpt>
      <trkpt lat="45.41346" lon="5.68024">
        <ele>569</ele>
        <time>2022-07-12T17:23:17Z</time>
      </trkpt>
      <trkpt lat="45.4135" lon="5.68048">
        <ele>571</ele>
        <time>2022-07-12T17:23:20Z</time>
      </trkpt>
      <trkpt lat="45.41366" lon="5.6812">
        <ele>579</ele>
        <time>2022-07-12T17:23:30Z</time>
      </trkpt>
      <trkpt lat="45.41367" lon="5.68133">
        <ele>580</ele>
        <time>2022-07-12T17:23:31Z</time>
      </trkpt>
      <trkpt lat="45.41358" lon="5.68169">
        <ele>581</ele>
        <time>2022-07-12T17:23:36Z</time>
      </trkpt>
      <trkpt lat="45.41357" lon="5.68182">
        <ele>583</ele>
        <time>2022-07-12T17:23:38Z</time>
      </trkpt>
      <trkpt lat="45.41364" lon="5.68223">
        <ele>588</ele>
        <time>2022-07-12T17:23:43Z</time>
      </trkpt>
      <trkpt lat="45.41373" lon="5.6825">
        <ele>592</ele>
        <time>2022-07-12T17:23:47Z</time>
      </trkpt>
      <trkpt lat="45.41389" lon="5.68287">
        <ele>595</ele>
        <time>2022-07-12T17:23:52Z</time>
      </trkpt>
      <trkpt lat="45.41403" lon="5.68304">
        <ele>595</ele>
        <time>2022-07-12T17:23:55Z</time>
      </trkpt>
      <trkpt lat="45.41408" lon="5.68314">
        <ele>595</ele>
        <time>2022-07-12T17:23:57Z</time>
      </trkpt>
      <trkpt lat="45.41409" lon="5.68326">
        <ele>596</ele>
        <time>2022-07-12T17:23:58Z</time>
      </trkpt>
      <trkpt lat="45.41406" lon="5.68336">
        <ele>596</ele>
        <time>2022-07-12T17:24:00Z</time>
      </trkpt>
      <trkpt lat="45.41405" lon="5.6835">
        <ele>597</ele>
        <time>2022-07-12T17:24:02Z</time>
      </trkpt>
      <trkpt lat="45.41408" lon="5.68357">
        <ele>597</ele>
        <time>2022-07-12T17:24:03Z</time>
      </trkpt>
      <trkpt lat="45.4142" lon="5.68366">
        <ele>597</ele>
        <time>2022-07-12T17:24:05Z</time>
      </trkpt>
      <trkpt lat="45.41429" lon="5.68364">
        <ele>597</ele>
        <time>2022-07-12T17:24:07Z</time>
      </trkpt>
      <trkpt lat="45.41432" lon="5.6836">
        <ele>598</ele>
        <time>2022-07-12T17:24:07Z</time>
      </trkpt>
      <trkpt lat="45.41434" lon="5.68353">
        <ele>598</ele>
        <time>2022-07-12T17:24:08Z</time>
      </trkpt>
      <trkpt lat="45.41434" lon="5.6834">
        <ele>598</ele>
        <time>2022-07-12T17:24:10Z</time>
      </trkpt>
      <trkpt lat="45.4142" lon="5.68298">
        <ele>595</ele>
        <time>2022-07-12T17:24:16Z</time>
      </trkpt>
      <trkpt lat="45.4141" lon="5.68284">
        <ele>595</ele>
        <time>2022-07-12T17:24:18Z</time>
      </trkpt>
      <trkpt lat="45.41401" lon="5.68283">
        <ele>595</ele>
        <time>2022-07-12T17:24:20Z</time>
      </trkpt>
      <trkpt lat="45.41398" lon="5.68286">
        <ele>595</ele>
        <time>2022-07-12T17:24:20Z</time>
      </trkpt>
      <trkpt lat="45.41388" lon="5.68308">
        <ele>596</ele>
        <time>2022-07-12T17:24:24Z</time>
      </trkpt>
      <trkpt lat="45.41389" lon="5.68357">
        <ele>598</ele>
        <time>2022-07-12T17:24:30Z</time>
      </trkpt>
      <trkpt lat="45.41384" lon="5.6841">
        <ele>600</ele>
        <time>2022-07-12T17:24:37Z</time>
      </trkpt>
      <trkpt lat="45.41368" lon="5.68517">
        <ele>601</ele>
        <time>2022-07-12T17:24:50Z</time>
      </trkpt>
      <trkpt lat="45.41368" lon="5.6854">
        <ele>601</ele>
        <time>2022-07-12T17:24:53Z</time>
      </trkpt>
      <trkpt lat="45.41367" lon="5.68554">
        <ele>601</ele>
        <time>2022-07-12T17:24:55Z</time>
      </trkpt>
      <trkpt lat="45.41363" lon="5.68565">
        <ele>601</ele>
        <time>2022-07-12T17:24:56Z</time>
      </trkpt>
      <trkpt lat="45.41357" lon="5.68572">
        <ele>600</ele>
        <time>2022-07-12T17:24:58Z</time>
      </trkpt>
      <trkpt lat="45.41321" lon="5.68596">
        <ele>600</ele>
        <time>2022-07-12T17:25:05Z</time>
      </trkpt>
      <trkpt lat="45.41305" lon="5.68609">
        <ele>601</ele>
        <time>2022-07-12T17:25:08Z</time>
      </trkpt>
      <trkpt lat="45.41296" lon="5.68626">
        <ele>601</ele>
        <time>2022-07-12T17:25:11Z</time>
      </trkpt>
      <trkpt lat="45.41287" lon="5.68658">
        <ele>601</ele>
        <time>2022-07-12T17:25:15Z</time>
      </trkpt>
      <trkpt lat="45.41282" lon="5.68725">
        <ele>601</ele>
        <time>2022-07-12T17:25:23Z</time>
      </trkpt>
      <trkpt lat="45.41283" lon="5.68764">
        <ele>601</ele>
        <time>2022-07-12T17:25:28Z</time>
      </trkpt>
      <trkpt lat="45.4129" lon="5.6884">
        <ele>601</ele>
        <time>2022-07-12T17:25:38Z</time>
      </trkpt>
      <trkpt lat="45.41297" lon="5.68882">
        <ele>599</ele>
        <time>2022-07-12T17:25:43Z</time>
      </trkpt>
      <trkpt lat="45.41337" lon="5.69026">
        <ele>594</ele>
        <time>2022-07-12T17:26:03Z</time>
      </trkpt>
      <trkpt lat="45.41371" lon="5.6914">
        <ele>599</ele>
        <time>2022-07-12T17:26:18Z</time>
      </trkpt>
      <trkpt lat="45.41373" lon="5.69186">
        <ele>600</ele>
        <time>2022-07-12T17:26:24Z</time>
      </trkpt>
      <trkpt lat="45.4137" lon="5.69251">
        <ele>601</ele>
        <time>2022-07-12T17:26:32Z</time>
      </trkpt>
      <trkpt lat="45.41363" lon="5.69267">
        <ele>600</ele>
        <time>2022-07-12T17:26:34Z</time>
      </trkpt>
      <trkpt lat="45.41353" lon="5.69303">
        <ele>600</ele>
        <time>2022-07-12T17:26:39Z</time>
      </trkpt>
      <trkpt lat="45.41346" lon="5.69371">
        <ele>599</ele>
        <time>2022-07-12T17:26:48Z</time>
      </trkpt>
      <trkpt lat="45.4135" lon="5.69447">
        <ele>600</ele>
        <time>2022-07-12T17:26:57Z</time>
      </trkpt>
      <trkpt lat="45.41357" lon="5.6951">
        <ele>599</ele>
        <time>2022-07-12T17:27:05Z</time>
      </trkpt>
      <trkpt lat="45.41355" lon="5.69533">
        <ele>598</ele>
        <time>2022-07-12T17:27:08Z</time>
      </trkpt>
      <trkpt lat="45.41339" lon="5.69613">
        <ele>595</ele>
        <time>2022-07-12T17:27:19Z</time>
      </trkpt>
      <trkpt lat="45.41326" lon="5.69663">
        <ele>592</ele>
        <time>2022-07-12T17:27:25Z</time>
      </trkpt>
      <trkpt lat="45.41323" lon="5.6969">
        <ele>590</ele>
        <time>2022-07-12T17:27:29Z</time>
      </trkpt>
      <trkpt lat="45.41332" lon="5.69744">
        <ele>586</ele>
        <time>2022-07-12T17:27:36Z</time>
      </trkpt>
      <trkpt lat="45.41343" lon="5.69773">
        <ele>583</ele>
        <time>2022-07-12T17:27:40Z</time>
      </trkpt>
      <trkpt lat="45.41351" lon="5.69837">
        <ele>576</ele>
        <time>2022-07-12T17:27:48Z</time>
      </trkpt>
      <trkpt lat="45.41375" lon="5.69966">
        <ele>558</ele>
        <time>2022-07-12T17:28:05Z</time>
      </trkpt>
      <trkpt lat="45.41369" lon="5.69997">
        <ele>553</ele>
        <time>2022-07-12T17:28:09Z</time>
      </trkpt>
      <trkpt lat="45.41369" lon="5.70009">
        <ele>551</ele>
        <time>2022-07-12T17:28:10Z</time>
      </trkpt>
      <trkpt lat="45.41375" lon="5.70022">
        <ele>550</ele>
        <time>2022-07-12T17:28:12Z</time>
      </trkpt>
      <trkpt lat="45.41404" lon="5.70064">
        <ele>544</ele>
        <time>2022-07-12T17:28:19Z</time>
      </trkpt>
      <trkpt lat="45.41408" lon="5.70075">
        <ele>542</ele>
        <time>2022-07-12T17:28:21Z</time>
      </trkpt>
      <trkpt lat="45.41407" lon="5.70092">
        <ele>540</ele>
        <time>2022-07-12T17:28:23Z</time>
      </trkpt>
      <trkpt lat="45.414" lon="5.70123">
        <ele>538</ele>
        <time>2022-07-12T17:28:27Z</time>
      </trkpt>
      <trkpt lat="45.41398" lon="5.70151">
        <ele>535</ele>
        <time>2022-07-12T17:28:31Z</time>
      </trkpt>
      <trkpt lat="45.41403" lon="5.70186">
        <ele>533</ele>
        <time>2022-07-12T17:28:35Z</time>
      </trkpt>
      <trkpt lat="45.41414" lon="5.70233">
        <ele>529</ele>
        <time>2022-07-12T17:28:42Z</time>
      </trkpt>
      <trkpt lat="45.41405" lon="5.70272">
        <ele>525</ele>
        <time>2022-07-12T17:28:47Z</time>
      </trkpt>
      <trkpt lat="45.41415" lon="5.70293">
        <ele>523</ele>
        <time>2022-07-12T17:28:50Z</time>
      </trkpt>
      <trkpt lat="45.41431" lon="5.70315">
        <ele>521</ele>
        <time>2022-07-12T17:28:54Z</time>
      </trkpt>
      <trkpt lat="45.41432" lon="5.70319">
        <ele>520</ele>
        <time>2022-07-12T17:28:54Z</time>
      </trkpt>
      <trkpt lat="45.41431" lon="5.70326">
        <ele>519</ele>
        <time>2022-07-12T17:28:55Z</time>
      </trkpt>
      <trkpt lat="45.41413" lon="5.70336">
        <ele>517</ele>
        <time>2022-07-12T17:28:59Z</time>
      </trkpt>
      <trkpt lat="45.41385" lon="5.70342">
        <ele>514</ele>
        <time>2022-07-12T17:29:04Z</time>
      </trkpt>
      <trkpt lat="45.41375" lon="5.7034">
        <ele>514</ele>
        <time>2022-07-12T17:29:06Z</time>
      </trkpt>
      <trkpt lat="45.41377" lon="5.7035">
        <ele>513</ele>
        <time>2022-07-12T17:29:07Z</time>
      </trkpt>
      <trkpt lat="45.4141" lon="5.70388">
        <ele>509</ele>
        <time>2022-07-12T17:29:15Z</time>
      </trkpt>
      <trkpt lat="45.41429" lon="5.70423">
        <ele>505</ele>
        <time>2022-07-12T17:29:20Z</time>
      </trkpt>
      <trkpt lat="45.41441" lon="5.70459">
        <ele>502</ele>
        <time>2022-07-12T17:29:25Z</time>
      </trkpt>
      <trkpt lat="45.41451" lon="5.7048">
        <ele>500</ele>
        <time>2022-07-12T17:29:28Z</time>
      </trkpt>
      <trkpt lat="45.41462" lon="5.70498">
        <ele>498</ele>
        <time>2022-07-12T17:29:31Z</time>
      </trkpt>
      <trkpt lat="45.41505" lon="5.70534">
        <ele>496</ele>
        <time>2022-07-12T17:29:40Z</time>
      </trkpt>
      <trkpt lat="45.41527" lon="5.70549">
        <ele>495</ele>
        <time>2022-07-12T17:29:44Z</time>
      </trkpt>
      <trkpt lat="45.41584" lon="5.70577">
        <ele>493</ele>
        <time>2022-07-12T17:29:55Z</time>
      </trkpt>
      <trkpt lat="45.41595" lon="5.70588">
        <ele>492</ele>
        <time>2022-07-12T17:29:57Z</time>
      </trkpt>
      <trkpt lat="45.41602" lon="5.706">
        <ele>490</ele>
        <time>2022-07-12T17:29:59Z</time>
      </trkpt>
      <trkpt lat="45.4161" lon="5.70621">
        <ele>488</ele>
        <time>2022-07-12T17:30:02Z</time>
      </trkpt>
      <trkpt lat="45.41614" lon="5.70667">
        <ele>483</ele>
        <time>2022-07-12T17:30:08Z</time>
      </trkpt>
      <trkpt lat="45.41633" lon="5.70733">
        <ele>476</ele>
        <time>2022-07-12T17:30:17Z</time>
      </trkpt>
      <trkpt lat="45.4163" lon="5.70765">
        <ele>473</ele>
        <time>2022-07-12T17:30:21Z</time>
      </trkpt>
      <trkpt lat="45.41631" lon="5.70781">
        <ele>472</ele>
        <time>2022-07-12T17:30:23Z</time>
      </trkpt>
      <trkpt lat="45.4164" lon="5.70814">
        <ele>471</ele>
        <time>2022-07-12T17:30:28Z</time>
      </trkpt>
      <trkpt lat="45.41661" lon="5.7085">
        <ele>469</ele>
        <time>2022-07-12T17:30:33Z</time>
      </trkpt>
      <trkpt lat="45.41679" lon="5.70903">
        <ele>466</ele>
        <time>2022-07-12T17:30:41Z</time>
      </trkpt>
      <trkpt lat="45.41696" lon="5.70939">
        <ele>464</ele>
        <time>2022-07-12T17:30:46Z</time>
      </trkpt>
      <trkpt lat="45.41723" lon="5.70975">
        <ele>463</ele>
        <time>2022-07-12T17:30:53Z</time>
      </trkpt>
      <trkpt lat="45.41768" lon="5.71055">
        <ele>460</ele>
        <time>2022-07-12T17:31:06Z</time>
      </trkpt>
      <trkpt lat="45.41827" lon="5.71083">
        <ele>456</ele>
        <time>2022-07-12T17:31:17Z</time>
      </trkpt>
      <trkpt lat="45.4186" lon="5.71113">
        <ele>452</ele>
        <time>2022-07-12T17:31:24Z</time>
      </trkpt>
      <trkpt lat="45.41866" lon="5.71127">
        <ele>450</ele>
        <time>2022-07-12T17:31:26Z</time>
      </trkpt>
      <trkpt lat="45.4187" lon="5.71173">
        <ele>444.2</ele>
        <time>2022-07-12T17:31:32Z</time>
      </trkpt>
      <trkpt lat="45.41881" lon="5.71201">
        <ele>447</ele>
        <time>2022-07-12T17:31:35Z</time>
      </trkpt>
      <trkpt lat="45.41888" lon="5.71216">
        <ele>446</ele>
        <time>2022-07-12T17:31:38Z</time>
      </trkpt>
      <trkpt lat="45.41904" lon="5.71236">
        <ele>444</ele>
        <time>2022-07-12T17:31:41Z</time>
      </trkpt>
      <trkpt lat="45.41974" lon="5.71306">
        <ele>441</ele>
        <time>2022-07-12T17:31:57Z</time>
      </trkpt>
      <trkpt lat="45.41992" lon="5.71328">
        <ele>440</ele>
        <time>2022-07-12T17:32:01Z</time>
      </trkpt>
      <trkpt lat="45.42" lon="5.7134">
        <ele>440</ele>
        <time>2022-07-12T17:32:03Z</time>
      </trkpt>
      <trkpt lat="45.42011" lon="5.71385">
        <ele>441</ele>
        <time>2022-07-12T17:32:09Z</time>
      </trkpt>
      <trkpt lat="45.42018" lon="5.71406">
        <ele>441</ele>
        <time>2022-07-12T17:32:12Z</time>
      </trkpt>
      <trkpt lat="45.42058" lon="5.71463">
        <ele>439</ele>
        <time>2022-07-12T17:32:22Z</time>
      </trkpt>
      <trkpt lat="45.42092" lon="5.71526">
        <ele>442</ele>
        <time>2022-07-12T17:32:32Z</time>
      </trkpt>
      <trkpt lat="45.42107" lon="5.7157">
        <ele>446</ele>
        <time>2022-07-12T17:32:38Z</time>
      </trkpt>
      <trkpt lat="45.421" lon="5.71641">
        <ele>453</ele>
        <time>2022-07-12T17:32:47Z</time>
      </trkpt>
      <trkpt lat="45.42101" lon="5.7167">
        <ele>455</ele>
        <time>2022-07-12T17:32:50Z</time>
      </trkpt>
      <trkpt lat="45.42111" lon="5.71698">
        <ele>459</ele>
        <time>2022-07-12T17:32:54Z</time>
      </trkpt>
      <trkpt lat="45.42195" lon="5.71828">
        <ele>474</ele>
        <time>2022-07-12T17:33:16Z</time>
      </trkpt>
      <trkpt lat="45.42233" lon="5.71961">
        <ele>480</ele>
        <time>2022-07-12T17:33:34Z</time>
      </trkpt>
      <trkpt lat="45.42312" lon="5.72135">
        <ele>477</ele>
        <time>2022-07-12T17:34:00Z</time>
      </trkpt>
      <trkpt lat="45.42368" lon="5.72278">
        <ele>479</ele>
        <time>2022-07-12T17:34:21Z</time>
      </trkpt>
      <trkpt lat="45.42379" lon="5.72329">
        <ele>483</ele>
        <time>2022-07-12T17:34:27Z</time>
      </trkpt>
      <trkpt lat="45.42366" lon="5.72422">
        <ele>488</ele>
        <time>2022-07-12T17:34:39Z</time>
      </trkpt>
      <trkpt lat="45.42339" lon="5.72515">
        <ele>495</ele>
        <time>2022-07-12T17:34:52Z</time>
      </trkpt>
      <trkpt lat="45.42338" lon="5.7258">
        <ele>497</ele>
        <time>2022-07-12T17:35:00Z</time>
      </trkpt>
      <trkpt lat="45.42346" lon="5.72692">
        <ele>494</ele>
        <time>2022-07-12T17:35:14Z</time>
      </trkpt>
      <trkpt lat="45.42366" lon="5.72725">
        <ele>490</ele>
        <time>2022-07-12T17:35:19Z</time>
      </trkpt>
      <trkpt lat="45.42413" lon="5.72762">
        <ele>487</ele>
        <time>2022-07-12T17:35:29Z</time>
      </trkpt>
      <trkpt lat="45.42432" lon="5.72795">
        <ele>488</ele>
        <time>2022-07-12T17:35:34Z</time>
      </trkpt>
      <trkpt lat="45.42448" lon="5.72809">
        <ele>487</ele>
        <time>2022-07-12T17:35:38Z</time>
      </trkpt>
      <trkpt lat="45.42472" lon="5.7283">
        <ele>486</ele>
        <time>2022-07-12T17:35:43Z</time>
      </trkpt>
      <trkpt lat="45.42506" lon="5.72876">
        <ele>483</ele>
        <time>2022-07-12T17:35:51Z</time>
      </trkpt>
      <trkpt lat="45.42546" lon="5.72917">
        <ele>480</ele>
        <time>2022-07-12T17:36:00Z</time>
      </trkpt>
      <trkpt lat="45.42556" lon="5.72929">
        <ele>479</ele>
        <time>2022-07-12T17:36:02Z</time>
      </trkpt>
      <trkpt lat="45.42566" lon="5.72962">
        <ele>479</ele>
        <time>2022-07-12T17:36:07Z</time>
      </trkpt>
      <trkpt lat="45.42573" lon="5.72991">
        <ele>479</ele>
        <time>2022-07-12T17:36:10Z</time>
      </trkpt>
      <trkpt lat="45.42581" lon="5.73043">
        <ele>479</ele>
        <time>2022-07-12T17:36:17Z</time>
      </trkpt>
      <trkpt lat="45.42587" lon="5.73068">
        <ele>478</ele>
        <time>2022-07-12T17:36:20Z</time>
      </trkpt>
      <trkpt lat="45.42646" lon="5.73249">
        <ele>474</ele>
        <time>2022-07-12T17:36:45Z</time>
      </trkpt>
      <trkpt lat="45.42647" lon="5.73265">
        <ele>475</ele>
        <time>2022-07-12T17:36:47Z</time>
      </trkpt>
      <trkpt lat="45.42647" lon="5.73279">
        <ele>476</ele>
        <time>2022-07-12T17:36:49Z</time>
      </trkpt>
      <trkpt lat="45.42639" lon="5.73292">
        <ele>477</ele>
        <time>2022-07-12T17:36:51Z</time>
      </trkpt>
      <trkpt lat="45.42621" lon="5.73309">
        <ele>479</ele>
        <time>2022-07-12T17:36:55Z</time>
      </trkpt>
      <trkpt lat="45.42615" lon="5.73319">
        <ele>480</ele>
        <time>2022-07-12T17:36:57Z</time>
      </trkpt>
      <trkpt lat="45.42614" lon="5.73326">
        <ele>481</ele>
        <time>2022-07-12T17:36:58Z</time>
      </trkpt>
      <trkpt lat="45.42614" lon="5.73337">
        <ele>481</ele>
        <time>2022-07-12T17:36:59Z</time>
      </trkpt>
      <trkpt lat="45.4269" lon="5.73424">
        <ele>481</ele>
        <time>2022-07-12T17:37:16Z</time>
      </trkpt>
      <trkpt lat="45.42699" lon="5.7345">
        <ele>481</ele>
        <time>2022-07-12T17:37:20Z</time>
      </trkpt>
      <trkpt lat="45.42699" lon="5.73461">
        <ele>482</ele>
        <time>2022-07-12T17:37:21Z</time>
      </trkpt>
      <trkpt lat="45.42689" lon="5.73495">
        <ele>483</ele>
        <time>2022-07-12T17:37:26Z</time>
      </trkpt>
      <trkpt lat="45.42663" lon="5.73545">
        <ele>484</ele>
        <time>2022-07-12T17:37:34Z</time>
      </trkpt>
      <trkpt lat="45.4264" lon="5.73636">
        <ele>485</ele>
        <time>2022-07-12T17:37:46Z</time>
      </trkpt>
      <trkpt lat="45.42631" lon="5.73708">
        <ele>486</ele>
        <time>2022-07-12T17:37:55Z</time>
      </trkpt>
      <trkpt lat="45.42626" lon="5.7373">
        <ele>485</ele>
        <time>2022-07-12T17:37:58Z</time>
      </trkpt>
      <trkpt lat="45.42624" lon="5.73752">
        <ele>485</ele>
        <time>2022-07-12T17:38:01Z</time>
      </trkpt>
      <trkpt lat="45.42624" lon="5.7379">
        <ele>483</ele>
        <time>2022-07-12T17:38:05Z</time>
      </trkpt>
      <trkpt lat="45.42628" lon="5.73833">
        <ele>481</ele>
        <time>2022-07-12T17:38:11Z</time>
      </trkpt>
      <trkpt lat="45.42625" lon="5.7387">
        <ele>479</ele>
        <time>2022-07-12T17:38:15Z</time>
      </trkpt>
      <trkpt lat="45.42631" lon="5.73948">
        <ele>475</ele>
        <time>2022-07-12T17:38:25Z</time>
      </trkpt>
      <trkpt lat="45.42648" lon="5.74026">
        <ele>471</ele>
        <time>2022-07-12T17:38:35Z</time>
      </trkpt>
      <trkpt lat="45.42684" lon="5.74121">
        <ele>468</ele>
        <time>2022-07-12T17:38:49Z</time>
      </trkpt>
      <trkpt lat="45.42749" lon="5.7426">
        <ele>454</ele>
        <time>2022-07-12T17:39:10Z</time>
      </trkpt>
      <trkpt lat="45.42763" lon="5.74306">
        <ele>451</ele>
        <time>2022-07-12T17:39:16Z</time>
      </trkpt>
      <trkpt lat="45.42801" lon="5.74347">
        <ele>449</ele>
        <time>2022-07-12T17:39:25Z</time>
      </trkpt>
      <trkpt lat="45.42826" lon="5.74348">
        <ele>449</ele>
        <time>2022-07-12T17:39:29Z</time>
      </trkpt>
      <trkpt lat="45.42849" lon="5.74317">
        <ele>450</ele>
        <time>2022-07-12T17:39:35Z</time>
      </trkpt>
      <trkpt lat="45.4287" lon="5.74311">
        <ele>448</ele>
        <time>2022-07-12T17:39:39Z</time>
      </trkpt>
      <trkpt lat="45.429" lon="5.74314">
        <ele>444</ele>
        <time>2022-07-12T17:39:44Z</time>
      </trkpt>
      <trkpt lat="45.42926" lon="5.74296">
        <ele>442</ele>
        <time>2022-07-12T17:39:49Z</time>
      </trkpt>
      <trkpt lat="45.42949" lon="5.74246">
        <ele>440</ele>
        <time>2022-07-12T17:39:57Z</time>
      </trkpt>
      <trkpt lat="45.42958" lon="5.74211">
        <ele>442</ele>
        <time>2022-07-12T17:40:01Z</time>
      </trkpt>
      <trkpt lat="45.42971" lon="5.74188">
        <ele>440</ele>
        <time>2022-07-12T17:40:05Z</time>
      </trkpt>
      <trkpt lat="45.42996" lon="5.74153">
        <ele>436</ele>
        <time>2022-07-12T17:40:11Z</time>
      </trkpt>
      <trkpt lat="45.43026" lon="5.74134">
        <ele>430</ele>
        <time>2022-07-12T17:40:17Z</time>
      </trkpt>
      <trkpt lat="45.43051" lon="5.74121">
        <ele>425</ele>
        <time>2022-07-12T17:40:22Z</time>
      </trkpt>
      <trkpt lat="45.43055" lon="5.74124">
        <ele>424</ele>
        <time>2022-07-12T17:40:23Z</time>
      </trkpt>
      <trkpt lat="45.43057" lon="5.74131">
        <ele>422</ele>
        <time>2022-07-12T17:40:24Z</time>
      </trkpt>
      <trkpt lat="45.43054" lon="5.74139">
        <ele>422</ele>
        <time>2022-07-12T17:40:25Z</time>
      </trkpt>
      <trkpt lat="45.43014" lon="5.74209">
        <ele>424</ele>
        <time>2022-07-12T17:40:36Z</time>
      </trkpt>
      <trkpt lat="45.4301" lon="5.74228">
        <ele>423</ele>
        <time>2022-07-12T17:40:39Z</time>
      </trkpt>
      <trkpt lat="45.4301" lon="5.74256">
        <ele>420</ele>
        <time>2022-07-12T17:40:42Z</time>
      </trkpt>
      <trkpt lat="45.43006" lon="5.74318">
        <ele>415</ele>
        <time>2022-07-12T17:40:50Z</time>
      </trkpt>
      <trkpt lat="45.43009" lon="5.74396">
        <ele>406</ele>
        <time>2022-07-12T17:41:00Z</time>
      </trkpt>
      <trkpt lat="45.43007" lon="5.74413">
        <ele>404</ele>
        <time>2022-07-12T17:41:02Z</time>
      </trkpt>
      <trkpt lat="45.42991" lon="5.74471">
        <ele>405</ele>
        <time>2022-07-12T17:41:10Z</time>
      </trkpt>
      <trkpt lat="45.42979" lon="5.74496">
        <ele>408</ele>
        <time>2022-07-12T17:41:13Z</time>
      </trkpt>
      <trkpt lat="45.42978" lon="5.74509">
        <ele>406</ele>
        <time>2022-07-12T17:41:15Z</time>
      </trkpt>
      <trkpt lat="45.42989" lon="5.74546">
        <ele>398</ele>
        <time>2022-07-12T17:41:20Z</time>
      </trkpt>
      <trkpt lat="45.42982" lon="5.74584">
        <ele>395</ele>
        <time>2022-07-12T17:41:25Z</time>
      </trkpt>
      <trkpt lat="45.42963" lon="5.7462">
        <ele>394</ele>
        <time>2022-07-12T17:41:30Z</time>
      </trkpt>
      <trkpt lat="45.42966" lon="5.74627">
        <ele>393</ele>
        <time>2022-07-12T17:41:32Z</time>
      </trkpt>
      <trkpt lat="45.42974" lon="5.74659">
        <ele>389</ele>
        <time>2022-07-12T17:41:36Z</time>
      </trkpt>
      <trkpt lat="45.43008" lon="5.74757">
        <ele>389</ele>
        <time>2022-07-12T17:41:49Z</time>
      </trkpt>
      <trkpt lat="45.4309" lon="5.74942">
        <ele>391</ele>
        <time>2022-07-12T17:42:17Z</time>
      </trkpt>
      <trkpt lat="45.43145" lon="5.75077">
        <ele>391</ele>
        <time>2022-07-12T17:42:36Z</time>
      </trkpt>
      <trkpt lat="45.43156" lon="5.7509">
        <ele>391</ele>
        <time>2022-07-12T17:42:39Z</time>
      </trkpt>
      <trkpt lat="45.43169" lon="5.751">
        <ele>391</ele>
        <time>2022-07-12T17:42:41Z</time>
      </trkpt>
      <trkpt lat="45.43225" lon="5.75132">
        <ele>391</ele>
        <time>2022-07-12T17:42:52Z</time>
      </trkpt>
      <trkpt lat="45.43246" lon="5.75153">
        <ele>390</ele>
        <time>2022-07-12T17:42:57Z</time>
      </trkpt>
      <trkpt lat="45.43265" lon="5.75177">
        <ele>389</ele>
        <time>2022-07-12T17:43:01Z</time>
      </trkpt>
      <trkpt lat="45.43292" lon="5.75207">
        <ele>388</ele>
        <time>2022-07-12T17:43:07Z</time>
      </trkpt>
      <trkpt lat="45.43296" lon="5.75238">
        <ele>388</ele>
        <time>2022-07-12T17:43:11Z</time>
      </trkpt>
      <trkpt lat="45.43295" lon="5.75282">
        <ele>389</ele>
        <time>2022-07-12T17:43:17Z</time>
      </trkpt>
      <trkpt lat="45.43289" lon="5.75322">
        <ele>390</ele>
        <time>2022-07-12T17:43:22Z</time>
      </trkpt>
      <trkpt lat="45.4329" lon="5.75335">
        <ele>391</ele>
        <time>2022-07-12T17:43:24Z</time>
      </trkpt>
      <trkpt lat="45.43356" lon="5.75544">
        <ele>389.5</ele>
      </trkpt>
      <trkpt lat="45.43618" lon="5.75415">
        <ele>392.2</ele>
      </trkpt>
      <trkpt lat="45.4371" lon="5.75381">
        <ele>391.6</ele>
      </trkpt>
      <trkpt lat="45.43769" lon="5.75231">
        <ele>386.8</ele>
      </trkpt>
      <trkpt lat="45.44717" lon="5.75347">
        <ele>412.8</ele>
      </trkpt>
      <trkpt lat="45.44777" lon="5.7507">
        <ele>423.9</ele>
      </trkpt>
      <trkpt lat="45.44911" lon="5.7513">
        <ele>435.4</ele>
      </trkpt>
      <trkpt lat="45.45086" lon="5.75248">
        <ele>460.8</ele>
      </trkpt>
      <trkpt lat="45.4516" lon="5.75347">
        <ele>476.3</ele>
        <time>2022-07-12T17:43:49Z</time>
      </trkpt>
    </trkseg>
  </trk>
</gpx>